[[{"header":{"parameterUnit":"m.s-1","parameterCategory":1,"la1":30.6,"la2":29.2853,"lo1":-89.7004,"lo2":-87.6739,"dy":0.0162,"dx":0.0183,"nx":112,"ny":82,"refTime":"2024-08-26T06:00:00:Z","depth":0,"parameterNumber":2,"parameterNumberName":"U-component_of_WINDS"},"data":[0.0,0.0,0.0,0.0,0.0,0.0,0.0,0.0,0.0,0.0,0.0,0.0,0.0,0.0,0.0,0.0,0.0,0.0,0.0,0.0,0.0,0.0,0.0,0.0,0.0,0.0,0.0,0.0,0.0,0.0,0.0,0.0,0.0,0.0,0.0,0.0,0.0,0.0,0.0,0.0,0.0,0.0,0.0,0.0,0.0,0.0,0.0,0.0,0.0,0.0,0.0,0.0,0.0,0.0,0.0,0.0,0.0,0.0,0.0,0.0,0.0,0.0,0.0,0.0,0.0,0.0,0.0,0.0,0.0,0.0,0.0,0.0,0.0,0.0,0.0,0.0,0.0,0.0,0.0,0.0,0.0,0.0,0.0,0.0,0.0,0.0,0.0,0.0,0.0,0.0,-2.781,-3.0395,-3.1152,-3.1511,-3.1511,-3.0806,-2.9564,-2.772,0.0,0.0,0.0,0.0,0.0,0.0,0.0,0.0,0.0,0.0,0.0,0.0,0.0,0.0,0.0,0.0,0.0,0.0,0.0,0.0,0.0,0.0,0.0,0.0,0.0,0.0,0.0,0.0,0.0,0.0,0.0,0.0,0.0,0.0,0.0,0.0,0.0,0.0,0.0,0.0,0.0,0.0,0.0,0.0,0.0,0.0,0.0,0.0,0.0,0.0,0.0,0.0,0.0,0.0,0.0,0.0,0.0,0.0,0.0,0.0,0.0,0.0,0.0,0.0,0.0,0.0,0.0,0.0,0.0,0.0,0.0,0.0,0.0,0.0,0.0,0.0,0.0,0.0,0.0,0.0,0.0,0.0,0.0,0.0,0.0,0.0,0.0,0.0,0.0,0.0,0.0,0.0,0.0,0.0,0.0,0.0,0.0,0.0,0.0,0.0,0.0,0.0,0.0,0.0,-2.811,-3.1022,-3.1451,-3.1511,-3.1511,-3.0417,-2.9142,-2.769,0.0,0.0,0.0,0.0,0.0,0.0,0.0,0.0,0.0,0.0,0.0,0.0,0.0,0.0,0.0,0.0,0.0,0.0,0.0,0.0,0.0,0.0,0.0,0.0,0.0,0.0,0.0,0.0,0.0,0.0,0.0,0.0,0.0,0.0,0.0,0.0,0.0,0.0,0.0,0.0,0.0,0.0,0.0,0.0,0.0,0.0,0.0,0.0,0.0,0.0,0.0,0.0,0.0,0.0,0.0,0.0,0.0,0.0,0.0,0.0,0.0,0.0,0.0,0.0,0.0,0.0,0.0,0.0,0.0,0.0,0.0,0.0,0.0,0.0,0.0,0.0,0.0,0.0,0.0,0.0,0.0,0.0,0.0,0.0,0.0,0.0,0.0,0.0,0.0,0.0,0.0,0.0,0.0,0.0,0.0,0.0,0.0,0.0,0.0,0.0,0.0,0.0,0.0,-2.8269,-2.9573,-3.1303,-3.1511,-3.1346,-3.0972,-3.0118,-2.8873,-2.718,-2.6422,0.0,0.0,0.0,0.0,0.0,0.0,0.0,0.0,0.0,0.0,0.0,0.0,0.0,0.0,0.0,0.0,0.0,0.0,0.0,0.0,0.0,0.0,0.0,0.0,0.0,0.0,0.0,0.0,0.0,0.0,0.0,0.0,0.0,0.0,0.0,0.0,0.0,0.0,0.0,0.0,0.0,0.0,0.0,0.0,0.0,0.0,0.0,0.0,0.0,0.0,0.0,0.0,0.0,0.0,0.0,0.0,0.0,0.0,0.0,0.0,0.0,0.0,0.0,0.0,0.0,0.0,0.0,0.0,0.0,0.0,0.0,0.0,0.0,0.0,0.0,0.0,0.0,0.0,0.0,0.0,0.0,0.0,0.0,0.0,0.0,0.0,0.0,0.0,0.0,0.0,0.0,0.0,0.0,0.0,0.0,0.0,0.0,0.0,0.0,0.0,0.0,0.0,-2.9537,-3.0569,-3.1407,-3.1511,-3.1227,-3.0567,-2.9939,-2.8753,-2.6722,-2.5974,0.0,0.0,0.0,0.0,0.0,0.0,0.0,0.0,0.0,0.0,0.0,0.0,0.0,0.0,0.0,0.0,0.0,0.0,0.0,0.0,0.0,0.0,0.0,0.0,0.0,0.0,0.0,0.0,0.0,0.0,0.0,0.0,0.0,0.0,0.0,0.0,0.0,0.0,0.0,0.0,0.0,0.0,0.0,0.0,0.0,0.0,0.0,0.0,0.0,0.0,0.0,0.0,0.0,0.0,0.0,0.0,0.0,0.0,0.0,0.0,0.0,0.0,0.0,0.0,0.0,0.0,0.0,0.0,0.0,0.0,0.0,0.0,0.0,0.0,0.0,0.0,0.0,0.0,0.0,0.0,0.0,0.0,0.0,0.0,0.0,0.0,0.0,0.0,0.0,0.0,0.0,0.0,0.0,0.0,0.0,0.0,0.0,0.0,0.0,0.0,0.0,0.0,-2.8852,-3.006,-3.1365,-3.1511,-3.1227,-3.0567,-2.9939,-2.8753,-2.6722,-2.5974,0.0,0.0,0.0,0.0,0.0,0.0,0.0,0.0,0.0,0.0,0.0,0.0,0.0,0.0,0.0,0.0,0.0,0.0,0.0,0.0,0.0,0.0,0.0,0.0,0.0,0.0,0.0,0.0,0.0,0.0,0.0,0.0,0.0,0.0,0.0,0.0,0.0,0.0,0.0,0.0,0.0,0.0,0.0,0.0,0.0,0.0,0.0,0.0,0.0,0.0,0.0,0.0,0.0,0.0,0.0,0.0,0.0,0.0,0.0,0.0,0.0,0.0,0.0,0.0,0.0,0.0,0.0,0.0,0.0,0.0,0.0,0.0,0.0,0.0,0.0,0.0,0.0,0.0,0.0,0.0,0.0,0.0,0.0,0.0,0.0,0.0,0.0,0.0,0.0,0.0,0.0,0.0,0.0,0.0,0.0,0.0,0.0,0.0,0.0,0.0,0.0,0.0,-2.8809,-3.0015,-3.1364,-3.1122,-3.0627,-2.9983,-2.934,-2.8293,-2.6692,0.0,0.0,0.0,0.0,0.0,0.0,0.0,0.0,0.0,0.0,0.0,0.0,0.0,0.0,0.0,0.0,0.0,0.0,0.0,0.0,0.0,0.0,0.0,0.0,0.0,0.0,0.0,0.0,0.0,0.0,0.0,0.0,0.0,0.0,0.0,0.0,0.0,0.0,0.0,0.0,0.0,0.0,0.0,0.0,0.0,0.0,0.0,0.0,0.0,0.0,0.0,0.0,0.0,0.0,0.0,0.0,0.0,0.0,0.0,0.0,0.0,0.0,0.0,0.0,0.0,0.0,0.0,0.0,0.0,0.0,0.0,0.0,0.0,0.0,0.0,0.0,0.0,0.0,0.0,0.0,0.0,0.0,0.0,0.0,0.0,0.0,0.0,0.0,0.0,0.0,0.0,0.0,0.0,0.0,0.0,0.0,0.0,0.0,0.0,0.0,0.0,0.0,-2.7343,-2.8832,-3.0144,-3.1073,-3.0769,-3.0253,-2.9666,-2.8981,-2.7934,-2.6378,0.0,0.0,0.0,0.0,0.0,0.0,0.0,0.0,0.0,0.0,0.0,0.0,0.0,0.0,0.0,0.0,0.0,0.0,0.0,0.0,0.0,0.0,0.0,0.0,0.0,0.0,0.0,0.0,0.0,0.0,0.0,0.0,0.0,0.0,0.0,0.0,0.0,0.0,0.0,0.0,0.0,0.0,0.0,0.0,0.0,0.0,0.0,0.0,0.0,0.0,0.0,0.0,0.0,0.0,0.0,0.0,0.0,0.0,0.0,0.0,0.0,0.0,0.0,0.0,0.0,0.0,0.0,0.0,0.0,0.0,0.0,0.0,0.0,0.0,0.0,0.0,0.0,0.0,0.0,0.0,0.0,0.0,0.0,0.0,0.0,0.0,0.0,0.0,0.0,0.0,0.0,0.0,0.0,0.0,0.0,0.0,0.0,0.0,0.0,0.0,0.0,0.0,-2.6809,-2.8903,-3.0425,-3.0506,-3.0482,-3.0225,-2.9639,-2.8966,-2.7714,0.0,0.0,0.0,0.0,0.0,0.0,0.0,0.0,0.0,0.0,0.0,0.0,0.0,0.0,0.0,0.0,0.0,0.0,0.0,0.0,0.0,0.0,0.0,0.0,0.0,0.0,0.0,0.0,0.0,0.0,0.0,0.0,0.0,0.0,0.0,0.0,0.0,0.0,0.0,0.0,0.0,0.0,0.0,0.0,0.0,0.0,0.0,0.0,0.0,0.0,0.0,0.0,0.0,0.0,0.0,0.0,0.0,0.0,0.0,0.0,0.0,0.0,0.0,0.0,0.0,0.0,0.0,0.0,0.0,0.0,0.0,0.0,0.0,0.0,0.0,0.0,0.0,0.0,0.0,0.0,0.0,0.0,0.0,0.0,0.0,0.0,0.0,0.0,0.0,0.0,0.0,0.0,0.0,0.0,0.0,0.0,0.0,0.0,0.0,0.0,0.0,0.0,0.0,-2.7375,-2.8766,-2.9872,-3.0365,-2.9296,-2.8455,-2.8283,-2.7266,-2.6337,-2.5706,0.0,0.0,0.0,0.0,0.0,0.0,0.0,0.0,0.0,0.0,0.0,0.0,0.0,0.0,0.0,0.0,0.0,0.0,0.0,0.0,0.0,0.0,0.0,0.0,0.0,0.0,0.0,0.0,0.0,0.0,0.0,0.0,0.0,0.0,0.0,0.0,0.0,0.0,0.0,0.0,0.0,0.0,0.0,0.0,0.0,0.0,0.0,0.0,0.0,0.0,0.0,0.0,0.0,0.0,0.0,0.0,0.0,0.0,0.0,0.0,0.0,0.0,0.0,0.0,0.0,0.0,0.0,0.0,0.0,0.0,0.0,0.0,0.0,0.0,0.0,0.0,0.0,0.0,0.0,0.0,0.0,0.0,0.0,0.0,0.0,0.0,0.0,0.0,0.0,0.0,0.0,0.0,0.0,0.0,0.0,0.0,0.0,0.0,0.0,0.0,0.0,0.0,-2.7295,-2.8749,-2.9833,-2.9969,-2.8605,-2.7707,-2.7707,-2.6526,-2.5579,-2.5062,0.0,0.0,0.0,0.0,0.0,0.0,0.0,0.0,0.0,0.0,0.0,0.0,0.0,0.0,0.0,0.0,0.0,0.0,0.0,0.0,0.0,0.0,0.0,0.0,0.0,0.0,0.0,0.0,0.0,0.0,0.0,0.0,0.0,0.0,0.0,0.0,0.0,0.0,0.0,0.0,0.0,0.0,0.0,0.0,0.0,0.0,0.0,0.0,0.0,0.0,0.0,0.0,0.0,0.0,0.0,0.0,0.0,0.0,0.0,0.0,0.0,0.0,0.0,0.0,0.0,0.0,0.0,0.0,0.0,0.0,0.0,0.0,0.0,0.0,0.0,0.0,0.0,0.0,0.0,0.0,0.0,0.0,0.0,0.0,0.0,0.0,0.0,0.0,0.0,0.0,0.0,0.0,0.0,0.0,0.0,0.0,0.0,0.0,0.0,0.0,0.0,0.0,-2.6928,-2.8819,-3.0011,-2.9443,-2.8333,-2.7587,-2.7531,-2.6413,-2.5241,-2.4077,0.0,0.0,0.0,0.0,0.0,0.0,0.0,0.0,0.0,0.0,0.0,0.0,0.0,0.0,0.0,0.0,0.0,0.0,0.0,0.0,0.0,0.0,0.0,0.0,0.0,0.0,0.0,0.0,0.0,0.0,0.0,0.0,0.0,0.0,0.0,0.0,0.0,0.0,0.0,0.0,0.0,0.0,0.0,0.0,0.0,0.0,0.0,0.0,0.0,0.0,0.0,0.0,0.0,0.0,0.0,0.0,0.0,0.0,0.0,0.0,-2.2945,0.0,0.0,0.0,0.0,0.0,0.0,0.0,0.0,0.0,0.0,0.0,0.0,0.0,0.0,0.0,0.0,0.0,0.0,0.0,0.0,0.0,0.0,0.0,0.0,0.0,0.0,0.0,0.0,0.0,0.0,0.0,0.0,0.0,0.0,0.0,0.0,0.0,0.0,0.0,0.0,0.0,-2.8001,-2.8891,-2.9469,-2.9337,-2.7875,-2.6724,-2.6242,-2.5581,-2.4838,-2.4041,-2.37,0.0,0.0,0.0,0.0,0.0,0.0,0.0,0.0,0.0,0.0,0.0,0.0,0.0,0.0,0.0,0.0,0.0,0.0,0.0,0.0,0.0,0.0,0.0,0.0,0.0,0.0,0.0,0.0,0.0,0.0,0.0,0.0,0.0,0.0,0.0,0.0,0.0,0.0,0.0,0.0,0.0,0.0,0.0,0.0,0.0,0.0,0.0,0.0,0.0,0.0,0.0,0.0,0.0,0.0,0.0,0.0,0.0,0.0,0.0,0.0,-2.3021,0.0,0.0,0.0,0.0,0.0,0.0,0.0,0.0,0.0,0.0,0.0,0.0,0.0,0.0,0.0,0.0,0.0,0.0,0.0,0.0,0.0,0.0,0.0,0.0,0.0,0.0,0.0,0.0,0.0,0.0,0.0,0.0,0.0,0.0,0.0,0.0,0.0,0.0,0.0,0.0,-2.8307,-2.8943,-2.931,-2.931,-2.7753,-2.6452,-2.5845,-2.5301,-2.4613,-2.3668,-2.3575,0.0,0.0,0.0,0.0,0.0,0.0,0.0,0.0,0.0,0.0,0.0,0.0,0.0,0.0,0.0,0.0,0.0,0.0,0.0,0.0,0.0,0.0,0.0,0.0,0.0,0.0,0.0,0.0,0.0,0.0,0.0,0.0,0.0,0.0,0.0,0.0,0.0,0.0,0.0,0.0,0.0,0.0,0.0,0.0,0.0,0.0,0.0,0.0,0.0,0.0,0.0,0.0,0.0,-2.5564,-2.5631,-2.5449,-2.5261,-2.5429,-2.575,-2.4446,-2.4108,-2.4418,-2.3877,0.0,0.0,0.0,0.0,0.0,0.0,0.0,0.0,0.0,0.0,0.0,0.0,0.0,0.0,0.0,0.0,0.0,0.0,0.0,0.0,0.0,0.0,0.0,0.0,-2.4763,-2.4855,0.0,0.0,0.0,0.0,0.0,0.0,0.0,0.0,0.0,0.0,0.0,0.0,-2.8456,-2.8885,-2.9168,-2.9274,-2.7831,-2.6556,-2.5845,-2.538,-2.4661,-2.3589,-2.377,-2.3757,0.0,0.0,0.0,0.0,0.0,0.0,0.0,0.0,0.0,0.0,0.0,0.0,0.0,0.0,0.0,0.0,0.0,0.0,0.0,0.0,0.0,0.0,0.0,0.0,0.0,0.0,0.0,0.0,0.0,0.0,0.0,0.0,-1.902,-1.9223,0.0,0.0,0.0,0.0,0.0,0.0,0.0,0.0,0.0,0.0,0.0,0.0,0.0,-2.3069,-2.427,-2.4019,-2.3688,-2.3384,-2.4995,-2.5329,-2.4528,-2.5746,-2.6341,-2.6386,-2.6161,0.0,-2.5474,-2.4897,0.0,0.0,0.0,0.0,0.0,0.0,0.0,0.0,0.0,0.0,0.0,0.0,0.0,0.0,0.0,0.0,0.0,0.0,0.0,0.0,0.0,0.0,-2.5429,-2.5497,-2.5566,-2.5693,0.0,-2.4765,-2.3989,-2.5263,-2.4898,0.0,0.0,0.0,0.0,0.0,0.0,0.0,-2.8881,-2.8702,-2.8641,-2.9239,-2.8164,-2.6955,-2.5884,-2.5728,-2.5432,-2.4809,-2.3851,-2.3537,-2.3952,-2.4073,0.0,0.0,0.0,0.0,0.0,0.0,0.0,0.0,0.0,0.0,0.0,0.0,0.0,0.0,0.0,0.0,0.0,0.0,0.0,0.0,0.0,0.0,0.0,0.0,0.0,0.0,0.0,0.0,0.0,-1.7923,-1.8946,-1.8741,-2.0071,-2.0753,0.0,0.0,0.0,0.0,0.0,0.0,0.0,0.0,0.0,-2.3916,-2.3784,-2.4167,-2.5094,-2.471,-2.4538,-2.459,-2.4914,-2.5112,-2.5156,-2.5795,-2.6366,-2.6909,-2.7196,-2.7036,-2.6479,-2.6003,-2.5784,-2.5739,0.0,0.0,0.0,0.0,-2.6181,-2.625,-2.6852,-2.6726,0.0,-2.5357,0.0,0.0,0.0,0.0,0.0,0.0,0.0,0.0,0.0,0.0,0.0,-2.6129,-2.6358,-2.6622,-2.6841,-2.5968,-2.5344,0.0,-2.6015,-2.5576,-2.4661,0.0,0.0,0.0,0.0,-2.7336,-2.8139,-2.8002,-2.7849,-2.7824,-2.7113,-2.6371,-2.5865,-2.5528,-2.5235,-2.5005,-2.4506,-2.4318,-2.4582,-2.4627,-2.4469,0.0,0.0,0.0,0.0,0.0,0.0,0.0,0.0,0.0,0.0,0.0,0.0,0.0,0.0,0.0,0.0,0.0,0.0,0.0,0.0,0.0,0.0,0.0,0.0,0.0,0.0,0.0,0.0,-1.7847,-1.8754,-1.8353,-1.9792,-2.059,0.0,0.0,0.0,0.0,0.0,0.0,-2.3461,-2.3554,-2.3766,-2.422,-2.4321,-2.4636,-2.5163,-2.466,-2.451,-2.4746,-2.4321,-2.4478,-2.5105,-2.5358,-2.5841,-2.652,-2.6931,-2.6886,-2.6517,-2.6645,-2.6628,-2.649,-2.6363,-2.6508,-2.6812,-2.6694,-2.6901,-2.7252,-2.7538,-2.755,-2.7253,-2.605,0.0,-2.5514,-2.2862,0.0,0.0,0.0,0.0,-2.5402,-2.5402,-2.567,-2.599,-2.599,-2.6281,-2.6498,-2.6498,-2.6411,-2.6405,0.0,-2.6864,-2.6554,-2.5038,0.0,0.0,0.0,0.0,-2.7242,-2.7468,-2.7334,-2.7115,-2.6721,-2.6216,-2.5812,-2.559,-2.5231,-2.4991,-2.5001,-2.4851,-2.4847,-2.4982,-2.4995,-2.4933,-2.4786,0.0,0.0,0.0,0.0,0.0,0.0,0.0,0.0,0.0,0.0,0.0,0.0,0.0,0.0,0.0,0.0,0.0,0.0,0.0,0.0,0.0,0.0,0.0,0.0,0.0,0.0,0.0,0.0,0.0,-1.8049,-1.9607,0.0,0.0,0.0,0.0,-2.2451,-2.2584,-2.2773,-2.3214,-2.3442,-2.3806,-2.427,-2.3448,-2.3242,-2.3799,-2.2921,-2.228,-2.192,-2.2784,-2.3183,-2.327,-2.4145,-2.4584,-2.4627,-2.4647,-2.4647,-2.4754,-2.6475,-2.6898,-2.6455,-2.5934,-2.5761,-2.5725,-2.5333,-2.6054,-2.6974,-2.5274,-2.5221,-2.5844,-2.5366,-2.4939,-2.4491,-2.3794,-2.365,0.0,0.0,-2.4137,-2.4554,-2.4554,-2.4575,-2.4585,-2.4585,-2.4606,-2.4627,-2.4627,-2.5274,-2.6088,0.0,-2.6818,-2.6513,-2.6409,0.0,-2.6461,-2.6426,-2.6512,-2.6732,-2.732,-2.6895,-2.6596,-2.6685,-2.6216,-2.5674,-2.5077,-2.5028,-2.4982,-2.4992,-2.448,-2.4398,-2.497,-2.4995,-2.4737,-2.4177,-2.4676,0.0,0.0,0.0,0.0,0.0,0.0,0.0,0.0,0.0,0.0,0.0,0.0,0.0,0.0,0.0,0.0,0.0,0.0,0.0,0.0,0.0,0.0,0.0,0.0,0.0,0.0,0.0,0.0,-1.911,-2.0137,0.0,-1.9825,-2.0086,-2.0625,-2.1579,-2.1637,-2.2061,-2.2945,-2.2842,-2.2971,-2.3392,-2.3092,-2.2971,-2.3186,-2.2594,-2.2208,-2.2071,-2.2154,-2.2501,-2.3096,-2.3444,-2.393,-2.4498,-2.4498,-2.4498,-2.4541,-2.5179,-2.555,-2.5636,-2.5463,-2.5593,-2.5883,-2.5743,-2.6,-2.6324,-2.57,-2.5656,-2.5844,-2.5357,-2.4065,-2.2877,-2.3909,-2.3805,-2.3463,-2.4028,-2.4364,-2.4498,-2.4498,-2.4498,-2.4498,-2.4498,-2.4498,-2.4498,-2.4498,-2.4744,-2.5253,-2.6144,-2.664,-2.6852,-2.6559,-2.6737,-2.6852,-2.6559,-2.6749,-2.6794,-2.6372,-2.6116,-2.5751,-2.5155,-2.4932,-2.485,-2.5,-2.4684,-2.4507,-2.4554,-2.4317,-2.4096,-2.399,-2.4296,-2.439,-2.4167,-2.4049,-2.3638,0.0,0.0,0.0,0.0,0.0,0.0,0.0,0.0,0.0,0.0,0.0,0.0,0.0,0.0,0.0,0.0,0.0,0.0,0.0,0.0,0.0,0.0,0.0,0.0,0.0,-1.941,-1.9982,-1.9725,-2.0412,-2.0629,-1.9909,-2.0018,-2.043,-2.1211,-2.1364,-2.1807,-2.2717,-2.2592,-2.262,-2.2895,-2.2904,-2.284,-2.2693,-2.2419,-2.2217,-2.2071,-2.1815,-2.2033,-2.2624,-2.2624,-2.2984,-2.3551,-2.3551,-2.3551,-2.3551,-2.3551,-2.3753,-2.4091,-2.4705,-2.5197,-2.5456,-2.5146,-2.5235,-2.5456,-2.5136,-2.4834,-2.4471,-2.4137,-2.2996,-2.1954,-2.3159,-2.3105,-2.2765,-2.3367,-2.3551,-2.3551,-2.3551,-2.3551,-2.3551,-2.3551,-2.3551,-2.3551,-2.3551,-2.38,-2.4178,-2.4766,-2.5883,-2.6726,-2.6743,-2.7001,-2.7075,-2.6772,-2.7013,-2.6823,-2.5842,-2.5716,-2.5325,-2.4303,-2.42,-2.4322,-2.4707,-2.4394,-2.4231,-2.4272,-2.4221,-2.4051,-2.3671,-2.4016,-2.42,-2.42,-2.3867,-2.3579,-2.3431,0.0,0.0,0.0,0.0,0.0,0.0,0.0,0.0,0.0,0.0,0.0,0.0,0.0,0.0,0.0,0.0,0.0,0.0,0.0,0.0,0.0,0.0,0.0,-1.9049,-2.018,-2.0609,-1.9836,-2.0437,-2.0683,-2.0201,-2.049,-2.0947,-2.1573,-2.1868,-2.2131,-2.2481,-2.2735,-2.2867,-2.2867,-2.2867,-2.2675,-2.2309,-2.2263,-2.2071,-2.1696,-2.1696,-2.1696,-2.1696,-2.1696,-2.1696,-2.1696,-2.1696,-2.1696,-2.1696,-2.1696,-2.1696,-2.1865,-2.3714,-2.4413,-2.4284,-2.34,-2.3617,-2.4284,-2.3357,-2.2457,-2.1696,-2.1696,-2.1696,-2.1696,-2.1696,-2.1696,-2.1696,-2.1696,-2.1696,-2.1696,-2.1696,-2.1696,-2.1696,-2.1696,-2.1696,-2.1696,-2.1696,-2.2413,-2.3052,-2.3096,-2.45,-2.5997,-2.6974,-2.7108,-2.7108,-2.7149,-2.7149,0.0,-2.5842,-2.5716,-2.5325,-2.4303,-2.42,-2.42,-2.42,-2.42,-2.4189,-2.4177,-2.4189,-2.42,-2.42,-2.4212,-2.4223,-2.4246,-2.4223,-2.4453,-2.4912,0.0,0.0,0.0,0.0,0.0,0.0,0.0,0.0,0.0,0.0,0.0,0.0,0.0,0.0,0.0,0.0,0.0,0.0,0.0,0.0,0.0,-1.6608,-1.7559,-1.9007,-2.0197,-2.09,-2.0942,-2.0908,-2.089,-2.0896,-2.0931,-2.1211,-2.185,-2.1798,-2.1944,-2.2336,-2.2135,-2.2025,-2.2025,-2.2025,-2.197,-2.1851,-2.1851,-2.1797,-2.1696,-2.1696,-2.1696,-2.1696,-2.1696,-2.1696,-2.1696,-2.1696,-2.1696,-2.1696,-2.1696,-2.1696,-2.1731,-2.2255,-2.2467,-2.2422,-2.2167,-2.2255,-2.2422,-2.2157,-2.1909,-2.1696,-2.1696,-2.1696,-2.1696,-2.1696,-2.1696,-2.1696,-2.1696,-2.1696,-2.1696,-2.1696,-2.1696,-2.1696,-2.1696,-2.1696,-2.1696,-2.1696,-2.1909,-2.229,-2.2965,-2.3477,-2.4125,-2.5094,-2.5221,-2.5474,-2.6091,-2.6174,0.0,-2.5753,-2.5716,-2.5325,-2.4303,-2.42,-2.42,-2.42,-2.42,-2.4039,-2.3637,-2.3994,-2.42,-2.42,-2.4533,-2.49,-2.5291,-2.4912,-2.4872,0.0,0.0,0.0,0.0,0.0,0.0,0.0,0.0,0.0,0.0,0.0,0.0,0.0,0.0,0.0,0.0,0.0,0.0,0.0,0.0,0.0,0.0,-1.6337,-1.7158,-1.8231,-1.932,-1.9983,-1.9926,-1.9741,-1.9602,-1.9581,-1.9975,-2.0443,-2.0913,-2.1329,-2.1707,-2.2025,-2.1815,-2.1696,-2.1696,-2.1696,-2.1696,-2.1696,-2.1696,-2.1696,-2.1696,-2.1696,-2.1696,-2.1696,-2.1696,-2.1696,0.0,-2.1696,-2.1696,-2.1696,-2.1696,-2.1696,0.0,0.0,0.0,0.0,0.0,-2.1696,-2.1696,-2.1696,-2.1696,-2.1696,-2.1696,-2.1696,-2.1696,-2.1696,-2.1696,-2.1696,-2.1696,-2.1696,-2.1696,-2.1696,-2.1696,-2.1696,-2.1696,-2.1696,-2.1696,-2.1696,-2.1696,-2.1865,-2.2422,-2.2501,0.0,-2.3246,-2.3983,-2.4659,-2.5158,-2.5242,-2.5142,-2.4894,-2.4864,-2.4579,-2.3782,-2.3705,-2.3857,-2.4198,-2.4224,0.0,0.0,0.0,-2.4832,-2.4832,-2.5096,0.0,0.0,0.0,0.0,0.0,0.0,0.0,0.0,-2.5915,-2.6394,0.0,0.0,0.0,0.0,0.0,0.0,0.0,0.0,0.0,0.0,0.0,0.0,0.0,0.0,0.0,0.0,-1.5973,-1.6713,-1.6939,-1.7754,-1.8238,-1.7908,-1.786,-1.7713,-1.7372,-1.8365,-1.9147,-1.9347,-2.051,-2.1338,-2.1553,0.0,0.0,0.0,0.0,-2.1696,-2.1696,-2.1696,-2.1696,-2.1696,-2.1696,-2.1696,-2.1696,-2.1696,-2.1696,-2.1696,-2.1696,-2.1696,-2.1696,-2.1696,-2.1696,-2.1696,-2.1696,-2.1696,-2.1696,-2.1696,-2.1696,-2.1696,-2.1696,0.0,0.0,-2.1696,-2.1696,-2.1696,-2.1696,-2.1696,-2.1696,-2.1696,-2.1696,-2.1696,-2.1696,-2.1696,-2.1696,-2.1696,-2.1696,-2.1696,-2.1696,-2.1696,-2.1696,-2.1696,-2.1696,-2.1696,-2.1696,-2.3071,-2.4241,-2.4327,-2.4317,-2.4195,-2.3753,-2.3691,-2.3526,-2.3052,0.0,0.0,-2.4111,-2.414,-2.4517,-2.5344,-2.544,-2.5462,-2.5462,-2.5519,-2.5402,-2.5044,-2.605,-2.5887,-2.4531,-2.5715,-2.5715,-2.4585,-2.5568,-2.6532,0.0,0.0,0.0,0.0,0.0,0.0,0.0,0.0,0.0,0.0,0.0,0.0,0.0,0.0,0.0,-1.504,-1.5487,-1.5669,-1.5503,-1.5495,-1.6098,-1.7712,-1.76,-1.7456,-1.7615,-1.784,-1.8164,-1.8588,-1.9613,-2.0311,-2.0574,-2.1275,-2.1696,-2.1696,-2.1696,-2.1696,-2.1696,-2.1696,-2.1696,-2.1696,0.0,0.0,-2.1696,-2.1696,-2.1696,-2.1696,-2.1696,-2.1696,-2.1696,-2.1696,-2.1696,-2.1696,-2.1696,-2.1696,-2.1696,-2.1696,-2.1696,-2.1696,-2.1696,-2.1696,-2.1696,-2.1696,-2.1696,-2.1696,-2.1696,-2.1696,0.0,-2.1696,-2.1696,-2.1696,-2.1696,-2.1696,-2.1696,-2.1696,-2.1696,-2.1696,-2.1696,-2.1696,-2.1696,-2.1696,-2.1696,-2.1696,-2.1696,-2.1998,-2.2511,-2.328,-2.3357,-2.3448,-2.3669,-2.3691,-2.3526,-2.3052,-2.3011,-2.3092,-2.3243,-2.3243,-2.3323,-2.3494,-2.3872,-2.4102,-2.4102,-2.4482,-2.4693,-2.4618,-2.483,-2.4862,-2.4755,-2.501,-2.5094,-2.4999,-2.5234,-2.538,0.0,0.0,0.0,0.0,0.0,0.0,0.0,0.0,0.0,0.0,0.0,-1.4026,-1.4431,0.0,-1.504,-1.5433,-1.539,-1.5258,-1.5125,-1.4763,-1.4886,-1.5977,-1.5939,-1.5839,-1.5981,-1.6593,-1.7102,-1.7421,-1.8503,-1.9247,-1.9521,-1.9985,-2.0266,-2.0266,-2.0718,-2.0997,-2.0997,-2.1463,-2.1696,-2.1687,-2.1221,-2.0997,-2.0997,-2.0997,-2.0997,-2.1042,-2.1508,-2.1696,-2.1696,-2.1696,-2.1696,-2.1696,-2.1696,-2.1696,-2.1696,-2.1696,-2.1696,-2.1696,-2.1696,-2.1696,-2.1696,-2.1696,-2.1696,-2.1696,-2.1696,-2.1696,-2.1696,-2.1696,-2.1696,-2.1696,-2.1696,-2.1696,-2.1696,-2.1696,-2.1696,-2.1696,-2.1696,-2.1696,-2.1696,-2.1696,-2.1696,-2.1696,-2.1696,-2.1696,-2.1865,-2.2334,-2.2413,-2.2469,-2.2673,-2.2697,-2.2619,-2.2372,-2.2343,-2.2556,-2.301,-2.3482,-2.3732,-2.3732,-2.398,-2.4094,-2.4094,-2.4364,-2.4284,-2.38,-2.4349,-2.4168,-2.326,-2.3953,-2.3996,-2.3391,-2.3574,-2.4214,0.0,0.0,0.0,0.0,0.0,0.0,0.0,-1.3051,-1.3344,-1.414,-1.4472,-1.4727,-1.5113,-1.5228,-1.5396,-1.5819,-1.5451,-1.5107,-1.5107,-1.4642,-1.4298,-1.4298,-1.4298,-1.4346,-1.4394,-1.5296,-1.6001,-1.6264,-1.7444,-1.8241,-1.8473,-1.8696,-1.8788,-1.8788,-1.9613,-2.0022,-2.0022,-2.0763,-2.123,-2.141,-2.0439,-2.0113,-2.0294,-2.0113,-2.0113,-2.0348,-2.1275,-2.1696,-2.1696,-2.1696,-2.1696,-2.1696,-2.1696,-2.1696,-2.1696,-2.1696,-2.1696,-2.1696,-2.1696,-2.1696,-2.1696,-2.1696,-2.1696,-2.1696,-2.1696,-2.1696,-2.1696,-2.1696,-2.1696,-2.1696,-2.1696,-2.1696,-2.1696,-2.1696,-2.1696,-2.1696,-2.1696,-2.1696,-2.1696,-2.1696,-2.1696,-2.1696,-2.1696,-2.1696,-2.1696,-2.1696,-2.1696,-2.1696,-2.1696,-2.1696,-2.1696,-2.1696,-2.1696,-2.1989,-2.2755,-2.3541,-2.3983,-2.3983,-2.3983,-2.3983,-2.3983,-2.3983,-2.3584,-2.2843,-2.378,-2.3434,-2.1785,-2.294,-2.294,-2.1785,-2.2008,-2.309,-1.1602,-1.1828,-1.2159,-1.2586,-1.2511,-1.279,0.0,-1.4436,-1.4342,-1.5146,-1.5547,-1.5656,-1.5487,-1.5644,-1.5819,-1.5879,-1.5451,-1.5107,-1.5107,-1.4642,-1.4298,-1.4298,-1.4298,-1.4394,-1.464,-1.4783,-1.5064,-1.5581,-1.6513,-1.7171,-1.7466,-1.8288,-1.8788,-1.8788,-1.8926,-1.8972,-1.8972,-1.9063,-1.9567,-2.0439,-1.943,-1.943,-2.0249,-1.9384,-1.9476,-2.0348,-2.1275,-2.1696,-2.1696,-2.1696,-2.1696,-2.1696,-2.1696,-2.1696,-2.1696,-2.1696,-2.1696,-2.1696,-2.1696,-2.1696,-2.1696,-2.1696,-2.1696,-2.1696,-2.1696,-2.1696,-2.1696,-2.1696,-2.1696,-2.1696,-2.1696,-2.1696,-2.1696,-2.1696,-2.1696,-2.1696,-2.1696,-2.1696,-2.1696,-2.1696,-2.1696,-2.1696,-2.1696,-2.1696,-2.1696,-2.1696,-2.1696,-2.1696,-2.1696,-2.1696,-2.1696,-2.1696,-2.1696,-2.1731,-2.1865,-2.1945,-2.1989,-2.1989,-2.1989,-2.1989,-2.1989,-2.1989,-2.1954,-2.1865,-2.222,-2.2309,-2.2052,-2.2388,-2.2397,-2.2052,-2.2097,-2.2248,-1.2016,-1.2285,-1.2559,-1.2759,-1.3001,-1.3476,-1.4355,-1.4556,-1.474,-1.5569,-1.5813,-1.5855,-1.5747,-1.5813,-1.5891,-1.5891,-1.5451,-1.5107,-1.5107,-1.4642,-1.4298,-1.4298,-1.4298,-1.4394,-1.4688,-1.4975,-1.5255,-1.5493,-1.5961,-1.6292,-1.644,-1.685,-1.703,-1.703,-1.7638,-1.7924,-1.7924,-1.8519,-1.9018,-1.943,-1.8427,-1.8149,-1.8565,-1.8102,-1.8473,-1.943,-1.9849,-2.0348,-2.0898,-2.0898,-2.1221,-2.1642,-2.1087,-2.0898,-2.0943,-2.1508,-2.1696,-2.1696,-2.1696,-2.1696,-2.1696,-2.1696,-2.1696,-2.1696,-2.1696,-2.1696,-2.1696,-2.1696,-2.1696,-2.1696,-2.1696,-2.1696,-2.1696,-2.1696,-2.1696,-2.1696,-2.1696,-2.1696,-2.1696,-2.1696,-2.1696,-2.1696,-2.1696,-2.1696,-2.1696,-2.1696,-2.1696,-2.1696,-2.1696,-2.1696,-2.1696,-2.1696,-2.1696,-2.1696,-2.1696,-2.1696,-2.1696,-2.1696,-2.1696,-2.1696,-2.1696,-2.1696,-2.1696,-2.1696,-2.183,-2.1874,-2.1874,-2.1954,-2.1954,-2.1874,-2.1874,-2.1963,-1.2221,-1.2533,-1.2845,-1.2975,-1.3394,-1.3898,-1.4412,-1.4636,-1.4983,-1.5743,-1.5891,-1.5891,-1.5891,-1.5891,-1.5891,-1.5891,-1.5451,-1.5107,-1.5107,-1.4642,-1.4298,-1.4298,-1.4442,-1.4592,-1.479,-1.5166,-1.5452,-1.5588,-1.5737,-1.5784,-1.5784,-1.5784,-1.5784,-1.5784,-1.6534,-1.6911,-1.6911,-1.7591,-1.8095,-1.838,-1.7365,-1.7044,-1.7279,-1.7279,-1.7692,-1.838,-1.8703,-1.9384,-2.0294,-1.9977,-2.0439,-2.123,-2.0257,-1.9886,-1.9977,-2.0628,-2.1096,-2.1365,-2.1597,-2.1696,-2.1696,-2.1696,-2.1696,-2.1696,-2.1696,-2.1696,-2.1696,-2.1696,-2.1696,-2.1696,-2.1696,-2.1696,-2.1696,-2.1696,-2.1696,-2.1696,-2.1696,-2.1696,-2.1696,-2.1696,-2.1696,-2.1696,-2.1696,-2.1696,-2.1696,-2.1696,-2.1696,-2.1696,-2.1696,-2.1696,-2.1696,-2.1696,-2.1696,-2.1696,-2.1696,-2.1696,-2.1696,-2.1696,-2.1696,-2.1696,-2.1696,-2.1696,-2.1696,-2.1696,-2.1776,-2.183,-2.183,-2.1874,-2.1865,-2.183,-2.183,-2.1874,-1.21,-1.2451,-1.2926,-1.3391,-1.3642,-1.4037,-1.4801,-1.4965,-1.5137,-1.5785,-1.5891,-1.5891,-1.5891,-1.5891,-1.5891,-1.5891,-1.5451,-1.5107,-1.5107,-1.4642,-1.4298,-1.4298,-1.4742,-1.5083,-1.5083,-1.5083,-1.5315,-1.5784,-1.5784,-1.5784,-1.5784,-1.5784,-1.5784,-1.5784,-1.5832,-1.5825,-1.5825,-1.5879,-1.6386,-1.7326,-1.6346,-1.6346,-1.7279,-1.7279,-1.7326,-1.7419,-1.838,-1.9384,-2.0204,-1.9247,-1.943,-2.0249,-1.9247,-1.8834,-1.8834,-1.8888,-1.9521,-2.0484,-2.1365,-2.1696,-2.1696,-2.1696,-2.1696,-2.1696,-2.1696,-2.1696,-2.1696,-2.1696,-2.1696,-2.1696,-2.1696,-2.1696,-2.1696,-2.1696,-2.1696,-2.1696,-2.1696,-2.1696,-2.1696,-2.1696,-2.1696,-2.1696,-2.1696,-2.1696,-2.1696,-2.1696,-2.1696,-2.1696,-2.1696,-2.1696,-2.1696,-2.1696,-2.1696,-2.1696,-2.1696,-2.1696,-2.1696,-2.1696,-2.1696,-2.1696,-2.1696,-2.1696,-2.1696,-2.1696,-2.1963,-2.2097,-2.2097,-2.2264,-2.2264,-2.2097,-2.2097,-2.1963,-1.1609,-1.1603,-1.1639,-1.1272,-1.1854,-1.2655,-1.3096,-1.3904,-1.4637,-1.5005,-1.5263,-1.5372,-1.5372,-1.5372,-1.5427,-1.5602,-1.5191,-1.4908,-1.5083,-1.4799,-1.4509,-1.4322,-1.4955,-1.5281,-1.5121,-1.5363,-1.5642,-1.5784,-1.5784,-1.5784,-1.5784,-1.5784,-1.5784,-1.5784,-1.5784,-1.5784,-1.5784,-1.5784,-1.5967,-1.6298,-1.5967,-1.5967,-1.6298,-1.6298,-1.6298,-1.6298,-1.6662,-1.7358,-1.8288,-1.7924,-1.838,-1.9201,-1.8195,-1.7785,-1.7785,-1.7785,-1.801,-1.8565,-2.0212,-2.0763,-2.0853,-2.1508,-2.1696,-2.1696,-2.1696,-2.1696,-2.1696,-2.1696,-2.1696,-2.1696,-2.1696,-2.1696,-2.1696,-2.1696,-2.1696,-2.1696,-2.1696,-2.1696,-2.1696,-2.1696,-2.1696,-2.1696,-2.1696,-2.1696,-2.1696,-2.1696,-2.1696,-2.1696,-2.1696,-2.1696,-2.1696,-2.1696,-2.1696,-2.1696,-2.1696,-2.1696,-2.1696,-2.1696,-2.1696,-2.1696,-2.1696,-2.1696,-2.1696,-2.1696,-2.1785,-2.183,-2.183,-2.1909,-2.1909,-2.183,-2.183,-2.1785,-1.0692,-1.0632,-1.0551,-1.0209,-1.0724,-1.1488,-1.2159,-1.3038,-1.3919,-1.4587,-1.4904,-1.5107,-1.5107,-1.5185,-1.5306,-1.5475,-1.5215,-1.5059,-1.5228,-1.5022,-1.4787,-1.4606,-1.5233,-1.5563,-1.5414,-1.5807,-1.6099,-1.5999,-1.5985,-1.5985,-1.5985,-1.5885,-1.5784,-1.5784,-1.5784,-1.5784,-1.5784,-1.5784,-1.5784,-1.5784,-1.5784,-1.5784,-1.5784,-1.5784,-1.5784,-1.5784,-1.5784,-1.6393,-1.7279,-1.6911,-1.7365,-1.8149,-1.7185,-1.6763,-1.6763,-1.6763,-1.6763,-1.7084,-1.9476,-2.0294,-2.0439,-2.141,-2.1696,-2.1696,-2.1696,-2.1696,-2.1696,-2.1696,-2.1696,-2.1696,-2.1696,-2.1696,-2.1696,-2.1696,-2.1696,-2.1696,-2.1696,-2.1696,-2.1696,-2.1696,-2.1696,-2.1696,-2.1696,-2.1696,-2.1696,-2.1696,-2.1696,-2.1696,-2.1696,-2.1696,-2.1696,-2.1696,-2.1696,-2.1696,-2.1696,-2.1696,-2.1696,-2.1696,-2.1696,-2.1696,-2.1696,-2.1696,-2.1696,-2.1696,-2.1696,-2.1696,-2.1696,-2.1696,-2.1696,-2.1696,-2.1696,-2.1696,-0.9461,-0.9509,-0.959,-0.9979,-1.0119,-1.053,-1.1765,-1.2331,-1.2951,-1.4242,-1.4755,-1.4963,-1.4963,-1.5231,-1.5463,-1.5475,-1.5481,-1.5481,-1.5493,-1.5282,-1.5125,-1.5107,-1.5581,-1.5935,-1.591,-1.6432,-1.6627,-1.6388,0.0,-1.6321,-1.6321,-1.5992,-1.5784,-1.5784,-1.5784,-1.5784,-1.5784,-1.5784,-1.5784,-1.5784,-1.5784,-1.5784,-1.5784,-1.5784,-1.5784,-1.5784,-1.5784,-1.6346,-1.7138,-1.6204,-1.6346,-1.7138,-1.6157,-1.5784,-1.5784,-1.5784,-1.5784,-1.6197,-1.9147,-2.0158,-2.0294,-2.123,-2.1597,-2.1642,-2.1642,-2.1651,-2.1696,-2.1696,-2.1696,-2.1696,-2.1696,-2.1696,-2.1696,-2.1696,-2.1696,-2.1696,-2.1696,-2.1696,-2.1696,-2.1696,-2.1696,-2.1696,-2.1696,-2.1696,-2.1696,-2.1696,-2.1696,-2.1696,-2.1696,-2.1696,-2.1696,-2.1696,-2.1696,-2.1696,-2.1696,-2.1696,-2.1696,-2.1696,-2.1696,-2.1696,-2.1696,-2.1696,-2.1696,-2.1696,-2.1696,-2.1696,-2.1696,-2.1696,-2.1696,-2.1696,-2.1696,-2.1696,-0.8605,-0.8418,-0.824,-0.7566,-0.7985,-0.8689,-0.9037,-1.0087,-1.1083,-1.1434,-1.2472,-1.3313,-1.3313,-1.4176,-1.498,-1.5179,-1.5209,-1.5276,-1.5475,-1.5439,-1.5324,-1.5131,-1.5911,-1.6361,-1.5948,-1.6793,-1.7235,-1.6998,-1.6569,-1.6321,-1.6321,-1.5992,-1.5784,-1.5784,-1.5784,-1.5784,-1.5784,-1.5784,-1.5784,-1.5784,-1.5784,-1.5784,-1.5784,-1.5784,-1.5784,-1.5784,-1.5784,-1.5967,-1.6157,-1.5927,-1.5967,-1.6157,-1.592,-1.5784,-1.5784,-1.5784,-1.5784,-1.6015,-1.7552,-1.8056,-1.8241,-1.9209,-2.0031,-2.0673,-2.0673,-2.1132,-2.1696,-2.1696,-2.1696,-2.1696,-2.1696,-2.1696,-2.1696,-2.1696,-2.1696,-2.1696,-2.1696,-2.1696,-2.1696,-2.1696,-2.1696,-2.1696,-2.1696,-2.1696,-2.1696,-2.1696,-2.1696,-2.1696,-2.1696,-2.1696,-2.1696,-2.1696,-2.1696,-2.1696,-2.1696,-2.1696,-2.1696,-2.1696,-2.1696,-2.1696,-2.1696,-2.1696,-2.1696,-2.1696,-2.1696,-2.1696,-2.1696,-2.1696,-2.1696,-2.1696,-2.1696,-2.1696,-0.7478,-0.7279,-0.7129,-0.6534,-0.6833,-0.7428,-0.8028,-0.8962,-0.9989,-1.1072,-1.2047,-1.2823,-1.3318,-1.4219,-1.4938,-1.5083,-1.53,-1.5499,-1.565,-1.5674,-1.5614,-1.5469,-1.6178,-1.6556,-1.6297,-1.7075,-1.7515,-1.7407,-1.6965,-1.665,-1.6473,-1.6186,-1.5965,-1.5784,-1.5784,-1.5784,-1.5784,-1.5784,-1.5784,-1.5784,-1.5784,-1.5784,-1.5784,-1.5784,-1.5784,-1.5784,0.0,-1.5784,-1.5784,-1.5784,-1.5784,-1.5784,-1.5784,-1.5784,-1.5784,-1.5784,-1.5784,-1.5879,-1.644,-1.6622,-1.6857,-1.8334,-1.9201,-1.9704,-2.0158,-2.0664,-2.1177,-2.1597,-2.1696,-2.1696,-2.1696,-2.1696,-2.1696,-2.1696,-2.1696,-2.1696,-2.1696,-2.1696,-2.1696,-2.1696,-2.1696,-2.1696,-2.1696,-2.1696,-2.1696,-2.1696,-2.1696,-2.1696,-2.1696,-2.1696,-2.1696,-2.1696,-2.1696,-2.1696,-2.1696,-2.1696,-2.1696,-2.1696,-2.1696,-2.1696,-2.1696,-2.1696,-2.1696,-2.1696,-2.1696,-2.1696,-2.1696,-2.1696,-2.1696,-2.1696,-2.1696,-2.1785,-0.6584,-0.6487,-0.6387,-0.6387,-0.6387,-0.6734,-0.8081,-0.8616,-0.9444,-1.1707,-1.2441,-1.2974,-1.3908,-1.461,-1.5077,-1.5149,-1.5541,-1.5873,-1.5982,-1.5934,-1.5903,-1.594,-1.6383,-1.6677,-1.6677,-1.7265,-1.7582,-1.7582,-1.74,-1.7112,-1.6727,-1.6433,-1.6139,-1.5791,-1.5784,-1.5784,-1.5784,-1.5784,-1.5784,-1.5784,-1.5784,-1.5784,-1.5784,-1.5784,-1.5784,-1.5784,-1.5784,0.0,-1.5784,-1.5784,-1.5784,-1.5784,-1.5784,-1.5784,-1.5784,-1.5784,-1.5784,-1.5784,-1.5784,-1.5784,-1.6109,-1.7816,-1.8473,-1.8742,-1.9658,-2.0068,-2.0484,-2.1275,-2.1597,-2.1696,-2.1696,-2.1696,-2.1696,-2.1696,-2.1696,-2.1696,-2.1696,-2.1696,-2.1696,-2.1696,-2.1696,-2.1696,-2.1696,-2.1696,-2.1696,-2.1696,-2.1696,-2.1696,-2.1696,-2.1696,-2.1696,-2.1696,-2.1696,-2.1696,-2.1696,-2.1696,-2.1696,-2.1696,-2.1696,-2.1696,-2.1696,-2.1696,-2.1696,-2.1696,-2.1696,-2.1696,-2.1696,-2.1741,-2.1731,-2.1696,-2.1776,-2.1909,-0.7478,-0.708,-0.6387,-0.6387,-0.6387,-0.6734,-0.8071,-0.8612,-0.9251,-1.0779,-1.195,-1.278,-1.2926,-1.3964,-1.4926,-1.536,-1.5511,-1.5795,-1.6465,-1.6169,-1.597,-1.6187,-1.6501,-1.6677,-1.6677,-1.7265,-1.7582,-1.7582,-1.7535,-1.7275,-1.6734,-1.6433,-1.6139,-1.5791,-1.5784,-1.5784,-1.5784,-1.5784,-1.5784,-1.5784,-1.5784,-1.5784,-1.5784,-1.5784,-1.5784,-1.5784,-1.5784,0.0,-1.5784,-1.5784,-1.5784,-1.5784,-1.5784,-1.5784,-1.5784,-1.5784,-1.5784,-1.5784,-1.5784,-1.5784,-1.5879,-1.6197,-1.6904,-1.7598,-1.7785,-1.8972,-2.0348,-2.0484,-2.1087,-2.1696,-2.1696,-2.1696,-2.1696,-2.1696,-2.1696,-2.1696,-2.1696,-2.1696,-2.1696,-2.1696,-2.1696,-2.1696,-2.1696,-2.1696,-2.1696,-2.1696,-2.1696,-2.1696,-2.1696,-2.1696,-2.1696,-2.1696,-2.1696,-2.1696,-2.1696,-2.1696,-2.1696,-2.1696,-2.1696,-2.1696,-2.1696,-2.1696,-2.1696,-2.1696,-2.1696,-2.1696,-2.1696,-2.1919,-2.1919,-2.1687,-2.2087,-2.222,-0.8715,-0.8467,-0.8071,-0.8071,-0.817,-0.8464,-0.9255,-0.9645,-1.0186,-1.1507,-1.229,-1.2877,-1.3414,-1.418,-1.4799,-1.5052,-1.5318,-1.568,-1.6205,-1.6169,-1.6145,-1.6278,-1.6555,-1.6681,-1.6696,-1.7107,-1.743,-1.7582,-1.7582,-1.7395,-1.6961,-1.6563,-1.6139,-1.5791,-1.5784,-1.5784,-1.5784,-1.5784,-1.5784,-1.5784,-1.5784,-1.5784,-1.5784,-1.5784,-1.5784,-1.5784,-1.5784,0.0,-1.5784,-1.5784,-1.5784,-1.5784,-1.5784,-1.5784,-1.5784,-1.5784,-1.5784,-1.5784,-1.5784,-1.5784,-1.5784,-1.5784,-1.6109,-1.6622,-1.7138,-1.8334,-1.9613,-2.0158,-2.0997,-2.1696,-2.1696,-2.1696,-2.1696,-2.1696,-2.1696,-2.1696,-2.1696,-2.1696,-2.1696,-2.1696,-2.1696,-2.1696,-2.1696,-2.1696,-2.1696,-2.1696,-2.1696,-2.1696,-2.1696,-2.1275,-2.1177,-2.1642,-2.1696,-2.1696,-2.1696,-2.1696,-2.1696,-2.1696,-2.1696,-2.1696,-2.1696,-2.1221,-2.0997,-2.1141,-2.1042,-2.1087,-2.132,-2.1874,-2.2097,-2.2087,-2.2309,-2.2397,-0.9899,-0.9756,-0.9608,-0.9608,-0.9805,-1.0145,-1.0632,-1.0925,-1.1512,-1.278,-1.3022,-1.3318,-1.4148,-1.4479,-1.4684,-1.4859,-1.5185,-1.559,-1.6079,-1.6223,-1.6326,-1.6465,-1.6588,-1.6748,-1.6791,-1.7046,-1.7331,-1.7582,-1.7522,-1.7414,-1.7125,-1.661,-1.6139,-1.5791,-1.5784,-1.5784,-1.5784,-1.5784,-1.5784,-1.5784,-1.5784,-1.5784,-1.5784,-1.5784,-1.5784,-1.5784,-1.5784,0.0,0.0,-1.5784,-1.5784,-1.5784,-1.5784,-1.5784,-1.5784,-1.5784,-1.5784,-1.5784,-1.5784,-1.5784,-1.5784,-1.5784,-1.5784,-1.5967,-1.6716,-1.7692,-1.865,-1.943,-2.0492,-2.1365,-2.1132,-2.1374,-2.1696,-2.1696,-2.1696,-2.1696,-2.1696,-2.1696,-2.1696,-2.1696,-2.1696,-2.1696,-2.1696,-2.1696,-2.1696,-2.1696,-2.1696,-2.1696,-2.1696,-2.0898,-2.0574,-2.132,-2.141,-2.141,-2.141,-2.141,-2.1508,-2.1696,-2.132,-2.1186,-2.1463,-2.0574,-2.0167,-2.0357,-2.0212,-2.0303,-2.0673,-2.1275,-2.1588,-2.1704,-2.1748,-2.1837,-1.0779,-1.0342,-0.9608,-0.9608,-0.9805,-1.0342,-1.1565,-1.1999,-1.2533,-1.3859,-1.4148,-1.4196,-1.4292,-1.4322,-1.4576,-1.5306,-1.527,-1.5572,-1.6809,-1.6573,-1.6465,-1.696,-1.6808,-1.6775,-1.7022,-1.7169,-1.7331,-1.7582,-1.7387,-1.7112,-1.676,-1.6446,-1.6139,-1.5791,-1.5784,-1.5784,-1.5784,-1.5784,-1.5784,-1.5784,-1.5784,-1.5784,-1.5784,-1.5784,-1.5784,-1.5784,-1.5784,0.0,0.0,-1.5784,-1.5784,-1.5784,-1.5784,-1.5784,-1.5784,-1.5784,-1.5784,-1.5784,-1.5784,-1.5784,-1.5784,-1.5784,-1.5784,-1.5825,-1.5927,-1.6622,-1.7466,-1.7552,-1.8926,-2.0204,-1.9293,-2.0402,-2.1696,-2.1696,-2.1696,-2.1696,-2.1696,-2.1696,-2.1696,-2.1696,-2.1696,-2.1696,-2.1696,-2.1696,-2.1696,-2.1696,-2.1696,-2.1696,-2.1696,-2.0898,-2.0348,-2.0439,-2.0439,-2.0439,-2.0439,-2.0439,-2.0808,-2.1642,-2.0031,-1.9575,-2.0682,-1.9795,-1.9384,-1.9583,-1.9575,-1.9575,-1.9621,-1.9712,-1.9658,-1.9513,-1.9687,-1.9633,-1.2068,-1.1917,-1.1722,-1.1722,-1.2014,-1.25,-1.3044,-1.3329,-1.3661,-1.4202,-1.4298,-1.4298,-1.4298,-1.4298,-1.4461,-1.495,-1.5071,-1.5403,-1.6247,-1.632,-1.6423,-1.6809,-1.663,-1.6618,-1.7066,-1.6968,-1.7107,-1.7582,-1.7367,-1.7072,-1.672,-1.6433,-1.6139,-1.5791,-1.5784,-1.5784,-1.5784,-1.5784,-1.5784,-1.5784,-1.5784,-1.5784,-1.5784,-1.5784,-1.5784,-1.5784,-1.5784,0.0,0.0,-1.5784,-1.5784,-1.5784,-1.5784,-1.5784,-1.5784,-1.5784,-1.5784,-1.5784,-1.5784,-1.5784,-1.5784,-1.5784,-1.5784,-1.5784,-1.5784,-1.6487,-1.7279,-1.7279,-1.8288,-1.9293,-1.888,-1.9795,-2.0997,-2.1553,-2.1696,-2.1696,-2.1696,-2.1696,-2.1696,-2.1696,-2.1696,-2.1696,-2.1696,-2.1696,-2.1696,-2.1696,-2.1696,-2.1696,-2.1696,-2.0357,-1.9384,-1.9384,-1.9384,-1.9658,-2.0249,-2.0294,-2.0484,-2.0808,-2.0121,-1.9704,-1.9749,-1.8834,-1.8473,-1.8842,-1.8565,-1.8565,-1.8842,-1.9109,-1.9276,-1.9368,-1.9451,-1.9451,-1.2813,-1.2953,-1.3098,-1.3098,-1.3491,-1.3883,-1.3883,-1.4118,-1.4298,-1.4298,-1.4298,-1.4298,-1.4298,-1.4298,-1.4389,-1.4672,-1.4938,-1.5318,-1.5928,-1.6241,-1.6537,-1.6893,-1.6622,-1.6625,-1.7186,-1.706,-1.7153,-1.7582,-1.728,-1.6927,-1.6714,-1.6346,-1.6046,-1.5791,-1.5784,-1.5784,-1.5784,-1.5784,-1.5784,-1.5784,-1.5784,-1.5784,-1.5784,-1.5784,-1.5784,-1.5784,-1.5784,0.0,0.0,-1.5784,-1.5784,-1.5784,-1.5784,-1.5784,-1.5784,-1.5784,-1.5784,-1.5784,-1.5784,-1.5784,-1.5784,-1.5784,-1.5784,-1.5784,-1.5784,-1.6298,-1.6864,-1.6864,-1.7365,-1.8056,-1.8657,-1.9109,-1.9658,-2.0628,-2.0862,-2.0862,-2.0862,-2.0862,-2.0862,-2.0862,-2.0862,-2.0862,-2.0862,-2.1087,-2.1275,-2.1275,-2.1508,-2.1696,-2.1696,-2.0257,-1.9109,-1.8842,-1.8511,-1.865,-1.9338,-1.943,-1.9521,-1.984,-1.9384,-1.9018,-1.8888,-1.7971,-1.7652,-1.7978,-1.7652,-1.7606,-1.7878,-1.8141,-1.8319,-1.8542,-1.8442,-1.8395,-1.2813,-1.2953,-1.3098,-1.3098,-1.3491,-1.3883,-1.3883,-1.4118,-1.4298,-1.4298,-1.4298,-1.4298,-1.4298,-1.4298,-1.4389,-1.4672,-1.4938,-1.5384,-1.6193,-1.6531,-1.6887,-1.7412,-1.7014,-1.6918,-1.7415,-1.7553,-1.7582,-1.7582,-1.7041,0.0,-1.6707,-1.6152,-1.5784,-1.5784,-1.5784,-1.5784,-1.5784,-1.5784,-1.5784,-1.5784,-1.5784,-1.5784,-1.5784,-1.5784,-1.5784,0.0,0.0,0.0,0.0,-1.5784,-1.5784,-1.5784,-1.5784,-1.5784,-1.5784,-1.5784,-1.5784,-1.5784,-1.5784,-1.5784,-1.5784,-1.5784,-1.5784,-1.5784,-1.5784,-1.5832,-1.5825,-1.5825,-1.5825,-1.6292,-1.828,-1.8056,-1.7606,-1.8611,-1.8842,-1.8842,-1.8842,-1.8842,-1.8842,-1.8842,-1.8842,-1.8842,-1.8842,-1.9658,-2.0294,-2.0294,-2.1132,-2.1696,-2.1696,-2.0853,-1.9886,-1.8926,-1.7924,-1.7326,-1.7326,-1.7326,-1.7738,-1.8742,-1.7185,-1.6777,-1.804,-1.7394,-1.7026,-1.7026,-1.7026,-1.6878,-1.6629,-1.6359,-1.6218,-1.6218,-1.5974,-1.5825,-1.2953,-1.3195,-1.3349,-1.3364,-1.3784,-1.4112,-1.3933,-1.4124,-1.4298,-1.4298,-1.4298,-1.4298,-1.4298,-1.4298,-1.4449,-1.4908,-1.5052,-1.5324,-1.594,-1.6247,-1.6549,-1.6905,-1.7135,-1.7159,-1.6987,-1.737,-1.7582,-1.7582,-1.7041,-1.6707,-1.6707,-1.6146,-1.5784,-1.5784,-1.5784,-1.5784,-1.5784,-1.5784,-1.5784,-1.5784,-1.5784,-1.5784,-1.5784,-1.5784,-1.5784,0.0,0.0,0.0,0.0,-1.5784,-1.5784,-1.5784,-1.5784,-1.5784,-1.5784,-1.5784,-1.5784,-1.5784,-1.5784,-1.5784,-1.5784,-1.5784,-1.5784,-1.5784,-1.5784,-1.5784,-1.5784,-1.5784,-1.5784,-1.6109,-1.7412,-1.7559,-1.7552,-1.8565,-1.8788,-1.8788,-1.8788,-1.8788,-1.8788,-1.8788,-1.8788,-1.8788,-1.8788,-1.9063,-1.9521,-2.0204,-2.0529,-2.0988,-2.1597,-2.0898,-2.0158,-1.984,-1.8288,-1.7279,-1.7279,-1.7279,-1.7512,-1.801,-1.7552,-1.7239,-1.7347,-1.6972,-1.6831,-1.6979,-1.665,-1.6414,-1.6312,-1.6076,-1.5927,-1.5927,-1.5832,-1.5784,-1.3078,-1.3295,-1.3494,-1.352,-1.3838,-1.4135,-1.4069,-1.4177,-1.4298,-1.4298,-1.4298,-1.4298,-1.4298,-1.4383,-1.4564,-1.4908,-1.5209,-1.5517,-1.5843,-1.6296,-1.6616,-1.6688,-1.7198,-1.7304,-1.6734,-1.7265,-1.7535,-1.7481,-1.6974,-1.666,-1.6547,-1.6086,-1.5784,-1.5784,-1.5784,-1.5784,-1.5784,-1.5784,-1.5784,-1.5784,-1.5784,-1.5784,-1.5784,-1.5784,-1.5784,0.0,0.0,0.0,0.0,-1.5784,-1.5784,-1.5784,-1.5784,-1.5784,-1.5784,-1.5784,-1.5784,-1.5784,-1.5784,-1.5784,-1.5784,-1.5784,-1.5784,-1.5784,-1.5784,-1.5784,-1.5784,-1.5784,-1.5784,-1.592,-1.6574,-1.6723,-1.6904,-1.7498,-1.7684,-1.7684,-1.7684,-1.7684,-1.7684,-1.7684,-1.7684,-1.7684,-1.7684,-1.7963,-1.8473,-1.9063,-1.9476,-1.9931,-2.0538,-2.0439,-2.0022,-1.9247,-1.838,-1.7552,-1.681,-1.6723,-1.681,-1.699,-1.7091,-1.7005,-1.6697,-1.6636,-1.6636,-1.6697,-1.6366,-1.617,-1.6028,-1.5879,-1.5784,-1.5784,-1.5784,-1.5784,0.0,-1.335,-1.3549,-1.3532,-1.3731,-1.3996,-1.422,-1.4286,0.0,-1.4298,-1.4298,-1.431,-1.4346,-1.4552,-1.4739,-1.4793,-1.5396,-1.5867,-1.5885,-1.6549,-1.6954,-1.6724,-1.7123,-1.7224,-1.6734,-1.7193,-1.7442,-1.7226,-1.6854,-1.656,-1.6286,-1.5992,-1.5784,-1.5784,-1.5784,-1.5784,-1.5784,-1.5784,-1.5784,-1.5784,-1.5784,-1.5784,-1.5784,-1.5784,-1.5784,0.0,0.0,0.0,0.0,-1.5784,-1.5784,-1.5784,-1.5784,-1.5784,-1.5784,-1.5784,-1.5784,-1.5784,-1.5784,-1.5784,-1.5784,-1.5784,-1.5784,-1.5784,-1.5784,-1.5784,-1.5784,-1.5784,-1.5784,-1.5784,-1.5784,-1.5784,-1.5784,-1.5784,-1.5784,-1.5784,-1.5784,-1.5784,-1.5784,-1.5784,-1.5784,-1.5784,-1.5784,-1.6574,-1.7232,-1.7279,-1.811,-1.8703,-1.8788,-1.9613,-1.9476,-1.7606,-1.8195,-1.7963,-1.6062,-1.5825,-1.5832,-1.5832,-1.6076,-1.6224,-1.6224,-1.6454,-1.6447,-1.6224,-1.617,-1.6028,-1.5784,-1.5784,-1.5784,-1.5784,-1.5784,-1.5784,-1.3743,0.0,-1.3784,-1.3813,-1.4009,-1.4171,0.0,-1.4153,-1.4298,-1.4298,-1.4298,-1.4425,-1.4841,-1.4811,-1.4914,-1.5517,-1.5602,-1.5662,-1.5861,-1.6223,-1.6525,-1.6682,-1.679,-1.6853,-1.6715,-1.6807,-1.6969,-1.7206,-1.6717,-1.6395,-1.6279,-1.5992,-1.5784,-1.5784,-1.5784,-1.5784,-1.5784,-1.5784,-1.5784,-1.5784,-1.5784,-1.5784,-1.5784,-1.5784,-1.5784,0.0,0.0,0.0,-1.5784,-1.5784,-1.5784,-1.5784,-1.5784,-1.5784,-1.5784,-1.5784,-1.5784,-1.5784,-1.5784,-1.5784,-1.5784,-1.5784,-1.5784,-1.5784,-1.5784,-1.5784,-1.5784,-1.5784,-1.5784,-1.5784,-1.5784,-1.5784,-1.5784,-1.5784,-1.5784,-1.5784,-1.5784,-1.5784,-1.5784,-1.5784,-1.5784,-1.5784,-1.5784,-1.6015,-1.6386,-1.7185,-1.7512,-1.7924,-1.8703,-1.9018,-1.8972,-1.8519,-1.7971,-1.7466,-1.6998,-1.6251,-1.5879,-1.6076,-1.6177,-1.6312,-1.6494,-1.6359,-1.6265,-1.6224,-1.5981,-1.5879,-1.5784,-1.5784,-1.5784,-1.5784,-1.5784,-1.5784,-1.4046,-1.41,-1.4082,-1.4076,-1.4189,-1.4292,-1.428,-1.4286,-1.4298,-1.4298,-1.4298,-1.4425,-1.4853,-1.501,-1.5215,-1.5644,-1.5903,-1.6139,-1.6404,-1.635,-1.6386,-1.667,-1.679,-1.6788,0.0,-1.6775,-1.6888,-1.6767,-1.6502,-1.6213,-1.6079,-1.5919,-1.5784,-1.5784,-1.5784,-1.5784,-1.5784,-1.5784,-1.5784,-1.5784,-1.5784,-1.5784,-1.5784,-1.5784,-1.5784,0.0,0.0,0.0,-1.5784,-1.5784,-1.5784,-1.5784,-1.5784,-1.5784,-1.5784,-1.5784,-1.5784,-1.5784,-1.5784,-1.5784,-1.5784,-1.5784,-1.5784,-1.5784,-1.5784,-1.5784,-1.5784,-1.5784,-1.5784,-1.5784,-1.5784,-1.5784,-1.5784,-1.5784,-1.5784,-1.5784,-1.5784,-1.5784,-1.5784,-1.5784,-1.5784,-1.5784,-1.5784,-1.5784,-1.5967,-1.6534,-1.6629,-1.681,-1.7358,-1.7824,-1.7917,-1.7451,-1.7365,-1.7091,-1.6676,-1.6109,-1.5879,-1.6028,-1.6028,-1.6123,-1.6407,-1.617,-1.6076,-1.6224,-1.6076,-1.5974,-1.5974,-1.5974,-1.5927,-1.5784,-1.5784,-1.5784,-1.4226,-1.4389,-1.4437,-1.428,-1.4298,-1.4401,-1.4558,-1.4437,-1.4298,-1.4298,-1.4334,-1.4473,-1.4829,-1.5228,-1.5535,-1.5662,-1.6223,-1.673,-1.6996,-1.6604,-1.6374,-1.6616,-1.6844,0.0,-1.6316,-1.6748,-1.686,-1.6362,-1.6233,-1.6092,-1.5798,-1.5784,-1.5784,-1.5784,-1.5784,-1.5784,-1.5784,-1.5784,-1.5784,-1.5784,-1.5784,-1.5784,-1.5784,-1.5784,-1.5784,-1.5784,0.0,0.0,-1.5784,-1.5784,-1.5784,-1.5784,-1.5784,-1.5784,-1.5784,-1.5784,-1.5784,-1.5784,-1.5784,-1.5784,-1.5784,-1.5784,-1.5784,-1.5784,-1.5784,-1.5784,-1.5784,-1.5784,-1.5784,-1.5784,-1.5784,-1.5784,-1.5784,-1.5784,-1.5784,-1.5784,-1.5784,-1.5784,-1.5784,-1.5784,-1.5784,-1.5784,-1.5784,-1.5784,-1.5784,-1.5784,-1.5784,-1.5784,-1.5784,-1.6527,-1.6716,-1.5872,-1.6574,-1.6723,-1.5872,-1.5784,-1.5784,-1.5784,-1.5832,-1.5974,-1.6265,-1.6021,-1.6021,-1.6265,-1.6224,-1.6224,-1.6224,-1.6224,-1.6076,-1.5784,-1.5832,-1.5879,-1.4226,-1.4793,-1.5095,-1.4189,-1.431,-1.4539,-1.4129,-1.4171,-1.4298,-1.4298,-1.4485,-1.4871,-1.5578,-1.5596,-1.5722,-1.6404,-1.6435,-1.6465,-1.6724,-1.6501,-1.632,-1.6368,-1.6397,-1.6368,-1.6297,-1.6368,-1.6397,-1.6299,-1.6039,-1.5831,-1.5784,-1.5784,-1.5784,-1.5784,-1.5784,-1.5784,-1.5784,-1.5784,-1.5784,-1.5784,-1.5784,-1.5784,-1.5784,-1.5784,-1.5784,-1.5784,0.0,-1.5784,-1.5784,-1.5784,-1.5784,-1.5784,-1.5784,-1.5784,-1.5784,-1.5784,-1.5784,-1.5784,-1.5784,-1.5784,-1.5784,-1.5784,-1.5784,-1.5784,-1.5784,-1.5784,-1.5784,-1.5784,-1.5784,-1.5784,-1.5784,-1.5784,-1.5784,-1.5784,-1.5784,-1.5784,-1.5784,-1.5784,-1.5784,-1.5784,-1.5784,-1.5784,-1.5784,-1.5784,-1.5784,-1.5784,-1.5784,-1.5784,-1.5784,-1.592,-1.5967,-1.5825,-1.592,-1.5967,-1.5825,-1.5784,-1.5784,-1.5784,-1.6028,-1.6265,-1.6541,-1.6494,-1.6494,-1.6541,-1.6312,-1.6224,-1.6224,-1.6224,-1.6076,-1.5832,-1.6028,-1.613,-1.4014,-1.4461,-1.4769,-1.4431,-1.4853,-1.5246,-1.4853,-1.4293,-1.3977,-1.4634,-1.4325,-1.4191,-1.4744,-1.5358,-1.5928,-1.6592,-1.635,-1.6229,-1.664,-1.6344,-1.6139,-1.6278,0.0,-1.625,-1.6126,-1.6197,-1.6206,-1.6059,-1.5905,0.0,-1.5784,-1.5784,-1.5784,-1.5784,-1.5784,-1.5784,-1.5784,-1.5784,-1.5784,-1.5784,-1.5784,-1.5784,-1.5784,-1.5784,-1.5784,-1.5784,0.0,-1.5784,-1.5784,-1.5784,-1.5784,-1.5784,-1.5784,-1.5784,-1.5784,-1.5784,-1.5784,-1.5784,-1.5784,-1.5784,-1.5784,-1.5784,-1.5784,-1.5784,-1.5784,-1.5784,-1.5784,-1.5784,-1.5784,-1.5784,-1.5784,-1.5784,-1.5784,-1.5784,-1.5784,-1.5784,-1.5784,-1.5784,-1.5784,-1.5784,-1.5784,-1.5784,-1.5784,-1.5784,-1.5784,-1.5784,-1.5784,-1.5784,-1.5784,-1.5784,-1.5784,-1.5784,-1.5784,-1.5784,-1.5784,-1.5784,-1.5784,-1.5784,-1.6028,-1.617,-1.6157,-1.6447,-1.6541,-1.6407,-1.6548,-1.6555,-1.6407,-1.6555,-1.6592,-1.6505,-1.6649,-1.6787,-1.3815,-1.4099,-1.4364,-1.4648,-1.5071,-1.5369,-1.5092,-1.406,-1.3415,-1.4146,-1.3645,-1.3185,-1.3536,-1.4472,-1.5398,-1.6087,-1.5871,-1.5856,-1.6488,-1.6241,-1.6012,-1.6091,-1.6209,-1.6183,-1.5846,-1.6111,-1.6152,-1.5852,-1.5784,0.0,-1.5784,-1.5784,-1.5784,-1.5784,-1.5784,-1.5784,-1.5784,-1.5784,-1.5784,-1.5784,-1.5784,-1.5784,-1.5784,-1.5784,-1.5784,-1.5784,-1.5784,-1.5784,-1.5784,-1.5784,-1.5784,-1.5784,-1.5784,-1.5784,-1.5784,-1.5784,-1.5784,-1.5784,-1.5784,-1.5784,-1.5784,-1.5784,-1.5784,-1.5784,-1.5784,-1.5784,-1.5784,-1.5784,-1.5784,-1.5784,-1.5784,-1.5784,-1.5784,-1.5784,-1.5784,-1.5784,-1.5784,-1.5784,-1.5784,-1.5784,-1.5784,-1.5784,-1.5784,-1.5784,-1.5784,-1.5784,-1.5784,-1.5784,-1.5784,-1.5784,-1.5784,-1.5784,-1.5784,-1.5784,-1.5784,-1.5784,-1.5784,-1.5784,-1.6123,-1.6218,-1.6021,-1.6447,-1.6588,-1.6414,-1.6737,-1.6831,-1.6683,-1.6885,-1.7042,-1.7099,-1.7099,-1.7267,-1.3767,-1.4099,-1.4364,-1.4648,-1.4383,-1.3945,-1.3634,-1.307,-1.2522,-1.1965,-1.1997,-1.2206,-1.2483,-1.2788,-1.3377,-1.4536,-1.4735,-1.5054,-1.6192,-1.6278,-1.6079,-1.5608,-1.5985,-1.6113,-1.5579,-1.5993,-1.6152,-1.5852,0.0,0.0,-1.5784,-1.5784,-1.5784,-1.5784,-1.5784,-1.5784,-1.5784,-1.5784,-1.5784,-1.5784,-1.5784,-1.5784,-1.5784,-1.5784,-1.5784,-1.5784,-1.5784,-1.5784,-1.5784,-1.5784,-1.5784,-1.5784,-1.5784,-1.5784,-1.5784,-1.5784,-1.5784,-1.5784,-1.5784,-1.5784,-1.5784,-1.5784,-1.5784,-1.5784,-1.5784,-1.5784,-1.5784,-1.5784,-1.5784,-1.5784,-1.5784,-1.5784,-1.5784,-1.5784,-1.5784,-1.5784,-1.5784,-1.5784,-1.5784,-1.5784,-1.5784,-1.5784,-1.5784,-1.5784,-1.5784,-1.5784,-1.5784,-1.5784,-1.5784,-1.5784,-1.5784,-1.5784,-1.5784,-1.5784,-1.5784,-1.5784,-1.5784,-1.5784,-1.6305,-1.6541,-1.6534,-1.6831,-1.6979,-1.6932,-1.6737,-1.673,-1.6979,-1.6979,-1.7042,-1.7099,-1.7043,-1.7204,-1.3562,-1.3972,-1.4256,-1.4036,-1.3554,-1.319,-1.337,-1.2807,-1.2198,-1.212,-1.1599,-1.1458,-1.2236,-1.1981,-1.2055,-1.328,-1.3946,-1.4565,-1.5158,-1.5564,-1.5722,-1.5523,-1.5662,-1.5725,-1.5515,-1.5816,-1.5952,-1.5791,0.0,0.0,-1.5784,-1.5784,-1.5784,-1.5784,-1.5784,-1.5784,-1.5784,-1.5784,-1.5784,-1.5784,-1.5784,-1.5784,-1.5784,-1.5784,-1.5784,-1.5784,-1.5784,-1.5784,-1.5784,-1.5784,-1.5784,-1.5784,-1.5784,-1.5784,-1.5784,-1.5784,-1.5784,-1.5784,-1.5784,-1.5784,-1.5784,-1.5784,-1.5784,-1.5784,-1.5784,-1.5784,-1.5784,-1.5784,-1.5784,-1.5784,-1.5784,-1.5784,-1.5784,-1.5784,-1.5784,-1.5784,-1.5784,-1.5784,-1.5784,-1.5784,-1.5784,-1.5784,-1.5784,-1.5784,-1.5784,-1.5784,-1.5784,-1.5784,-1.5784,-1.5784,-1.5784,-1.5784,-1.5784,-1.5784,-1.5784,-1.5784,-1.5784,-1.5784,-1.5974,-1.6116,-1.6116,-1.6359,-1.6508,-1.6508,-1.6737,-1.6885,-1.6979,-1.7113,-1.7312,-1.7534,-1.754,-1.7647,-1.31,-1.3362,-1.3467,-1.2894,-1.243,-1.2127,-1.2246,-1.1751,-1.1274,-1.1268,-1.0676,-1.0351,-1.1168,-1.0722,-1.0695,-1.1906,-1.3004,-1.3807,-1.4277,-1.5029,-1.5439,-1.527,-1.5376,-1.5464,-1.5375,-1.5617,-1.5784,0.0,0.0,0.0,0.0,-1.5784,-1.5784,-1.5784,-1.5784,-1.5784,-1.5784,-1.5784,-1.5784,-1.5784,-1.5784,-1.5784,-1.5784,-1.5784,-1.5784,-1.5784,-1.5784,-1.5784,-1.5784,-1.5784,-1.5784,-1.5784,-1.5784,-1.5784,-1.5784,-1.5784,-1.5784,-1.5784,-1.5784,-1.5784,-1.5784,-1.5784,-1.5784,-1.5784,-1.5784,-1.5784,-1.5784,-1.5784,-1.5784,-1.5784,-1.5784,-1.5784,-1.5784,-1.5784,-1.5784,-1.5784,-1.5784,-1.5784,-1.5784,-1.5784,-1.5784,-1.5784,-1.5784,-1.5784,-1.5784,-1.5784,-1.5784,-1.5784,-1.5784,-1.5784,-1.5784,-1.5784,-1.5784,-1.5784,-1.5784,-1.5784,-1.5784,-1.5784,-1.5784,-1.5784,-1.5784,-1.6076,-1.6224,-1.6224,-1.6643,-1.6932,-1.6979,-1.72,-1.7447,-1.7823,-1.7757,-1.7775,-1.2447,-1.2153,-1.1962,-1.1316,-1.0979,-1.0655,-1.003,-0.9808,-0.9574,-0.9006,-0.8885,-0.8885,-0.8885,-0.8885,-0.932,-1.0507,-1.1651,-1.2715,-1.3662,-1.4746,-1.53,-1.4781,-1.5152,-1.5388,-1.5108,-1.5499,-1.5784,0.0,0.0,0.0,0.0,-1.5784,-1.5784,-1.5784,-1.5784,-1.5784,-1.5784,-1.5784,-1.5784,-1.5784,-1.5784,-1.5784,-1.5784,-1.5784,-1.5784,-1.5784,-1.5784,-1.5784,-1.5784,-1.5784,-1.5784,-1.5784,-1.5784,-1.5784,-1.5784,-1.5784,-1.5784,-1.5784,-1.5784,-1.5784,-1.5784,-1.5784,-1.5784,-1.5784,-1.5784,-1.5784,-1.5784,-1.5784,-1.5784,-1.5784,-1.5784,-1.5784,-1.5784,-1.5784,-1.5784,-1.5784,-1.5784,-1.5784,-1.5784,-1.5784,-1.5784,-1.5784,-1.5784,-1.5784,-1.5784,-1.5784,-1.5784,-1.5784,-1.5784,-1.5784,-1.5784,-1.5784,-1.5784,-1.5784,-1.5784,-1.5784,-1.5784,-1.5784,-1.5784,-1.5784,-1.5784,-1.6076,-1.6224,-1.6224,-1.6447,-1.6737,-1.6979,-1.7192,-1.7447,-1.7808,-1.7534,-1.7407,-1.2041,-1.2194,-1.2134,-1.048,-1.0395,-1.0391,-0.9299,-0.9606,-0.991,-0.9051,-0.8885,-0.8885,-0.8885,-0.8885,-0.9013,-0.9276,-1.0278,-1.1385,-1.2281,-1.3196,-1.4009,-1.4634,-1.4984,-1.5172,-1.5089,-1.5499,0.0,0.0,0.0,0.0,0.0,-1.5784,-1.5784,-1.5784,-1.5784,-1.5784,-1.5784,-1.5784,-1.5784,-1.5784,-1.5784,-1.5784,-1.5784,-1.5784,-1.5784,-1.5784,-1.5784,-1.5784,-1.5784,-1.5784,-1.5784,-1.5784,-1.5784,-1.5784,-1.5784,-1.5784,-1.5784,-1.5784,-1.5784,-1.5784,-1.5784,-1.5784,-1.5784,-1.5784,-1.5784,-1.5784,-1.5784,-1.5784,-1.5784,-1.5784,-1.5784,-1.5784,-1.5784,-1.5784,-1.5784,-1.5784,-1.5784,-1.5784,-1.5784,-1.5784,-1.5784,-1.5784,-1.5784,-1.5784,-1.5784,-1.5784,-1.5784,-1.5784,-1.5784,-1.5784,-1.5784,-1.5784,-1.5784,-1.5784,-1.5784,-1.5784,-1.5784,-1.5784,-1.5784,-1.5784,-1.5784,-1.6076,-1.6272,-1.6494,-1.6737,-1.6972,-1.7192,-1.7286,-1.733,-1.7432,-1.7227,-1.7029,-1.1451,-1.1392,-1.1098,-0.9689,-0.9499,-0.9523,-0.8919,-0.9284,-0.9581,-0.903,-0.8885,-0.8885,-0.8885,-0.8834,-0.8818,-0.8726,-0.9667,-1.0661,-1.1499,-1.2465,-1.3446,-1.4411,-1.4896,-1.5083,-1.5083,-1.5499,0.0,0.0,0.0,0.0,0.0,-1.5784,-1.5784,-1.5784,-1.5784,-1.5784,-1.5784,-1.5784,-1.5784,-1.5784,-1.5784,-1.5784,-1.5784,-1.5784,-1.5784,-1.5784,-1.5784,-1.5784,-1.5784,-1.5784,-1.5784,-1.5784,-1.5784,-1.5784,-1.5784,-1.5784,-1.5784,-1.5784,-1.5784,-1.5784,-1.5784,-1.5784,-1.5784,-1.5784,-1.5784,-1.5784,-1.5784,-1.5784,-1.5784,-1.5784,-1.5784,-1.5784,-1.5784,-1.5784,-1.5784,-1.5784,-1.5784,-1.5784,-1.5784,-1.5784,-1.5784,-1.5784,-1.5784,-1.5784,-1.5784,-1.5784,-1.5784,-1.5784,-1.5784,-1.5784,-1.5784,-1.5784,-1.5784,-1.5784,-1.5784,-1.5784,-1.5784,-1.5784,-1.5784,-1.5784,-1.5784,-1.5974,-1.617,-1.6447,-1.669,-1.6972,-1.72,-1.72,-1.72,-1.72,-1.6968,-1.6716,-1.0619,-1.0127,-0.9453,-0.8982,-0.8611,-0.8435,-0.8828,-0.8861,-0.8861,-0.8861,-0.8851,-0.8841,-0.8841,-0.8784,-0.8686,-0.8672,-0.9444,-1.0364,-1.124,-1.2253,-1.3265,-1.4178,-1.4742,-1.5083,-1.5083,0.0,0.0,0.0,0.0,0.0,0.0,-1.5784,-1.5784,-1.5784,-1.5784,-1.5784,-1.5784,-1.5784,-1.5784,-1.5784,-1.5784,-1.5784,-1.5784,-1.5784,-1.5784,-1.5784,-1.5784,-1.5784,-1.5784,-1.5784,-1.5784,-1.5784,-1.5784,-1.5784,-1.5784,-1.5784,-1.5784,-1.5784,-1.5784,-1.5784,-1.5784,-1.5784,-1.5784,-1.5784,-1.5784,-1.5784,-1.5784,-1.5784,-1.5784,-1.5784,-1.5784,-1.5784,-1.5784,-1.5784,-1.5784,-1.5784,-1.5784,-1.5784,-1.5784,-1.5784,-1.5784,-1.5784,-1.5784,-1.5784,-1.5784,-1.5784,-1.5784,-1.5784,-1.5784,-1.5784,-1.5784,-1.5784,-1.5784,-1.5784,-1.5784,-1.5784,-1.5784,-1.5784,-1.5784,-1.5784,-1.5784,-1.5825,-1.5927,-1.6224,-1.6447,-1.673,-1.6979,-1.6979,-1.6979,-1.6979,-1.673,-1.6447,-0.9507,-0.9358,-0.9153,-0.8713,-0.8689,-0.8788,-0.8764,-0.876,-0.876,-0.876,-0.8665,-0.8581,-0.8581,-0.8554,-0.8492,-0.8384,-0.8594,-0.9321,-1.1023,-1.1433,-1.2299,-1.4106,-1.4592,-1.4885,-1.5083,0.0,0.0,0.0,0.0,0.0,-1.5784,-1.5784,-1.5784,-1.5784,-1.5784,-1.5784,-1.5784,-1.5784,-1.5784,0.0,-1.5784,-1.5784,-1.5784,-1.5784,-1.5784,-1.5784,-1.5784,-1.5784,-1.5784,-1.5784,-1.5784,-1.5784,-1.5784,-1.5784,-1.5784,-1.5784,-1.5784,-1.5784,-1.5784,-1.5784,-1.5784,-1.5784,-1.5784,-1.5784,-1.5784,-1.5784,-1.5784,-1.5784,-1.5784,-1.5784,-1.5784,-1.5784,-1.5784,-1.5784,-1.5784,-1.5784,-1.5784,-1.5784,-1.5784,-1.5784,-1.5784,-1.5784,-1.5784,-1.5784,-1.5784,-1.5784,-1.5784,-1.5784,-1.5784,-1.5784,-1.5784,-1.5784,-1.5784,-1.5784,-1.5784,-1.5784,-1.5784,-1.5784,-1.5784,-1.5784,-1.5784,-1.5981,-1.6123,-1.6224,-1.6447,-1.6636,-1.6683,-1.6885,-1.6885,-1.6683,-1.6636,-1.6447,-0.9015,-0.886,-0.8619,-0.8584,-0.8767,-0.8844,-0.8747,-0.8655,-0.8581,-0.8513,-0.8489,-0.8482,-0.8482,-0.8428,-0.8357,-0.8333,-0.8208,-0.8875,-1.0895,-1.1219,-1.195,-1.4052,-1.4544,-1.479,0.0,0.0,0.0,0.0,0.0,-1.5784,-1.5784,-1.5784,-1.5784,-1.5784,-1.5784,-1.5784,-1.5784,-1.5784,-1.5784,-1.5784,-1.5784,-1.5784,-1.5784,-1.5784,-1.5784,-1.5784,-1.5784,-1.5784,-1.5784,-1.5784,-1.5784,-1.5784,-1.5784,-1.5784,-1.5784,-1.5784,-1.5784,-1.5784,-1.5784,-1.5784,-1.5784,-1.5784,-1.5784,-1.5784,-1.5784,-1.5784,-1.5784,-1.5784,-1.5784,-1.5784,-1.5784,-1.5784,-1.5784,-1.5784,-1.5784,-1.5784,-1.5784,-1.5784,-1.5784,-1.5784,-1.5784,-1.5784,-1.5784,-1.5784,-1.5784,-1.5784,-1.5784,-1.5784,-1.5784,-1.5784,-1.5784,-1.5784,-1.5784,-1.5784,-1.5784,-1.5784,-1.5784,-1.5784,-1.5784,-1.5784,-1.5784,-1.5927,-1.6076,-1.6224,-1.6359,-1.6447,-1.6588,-1.6595,-1.6548,-1.6407,-1.6258,-1.6163,-0.8875,-0.8623,-0.816,-0.8611,-0.8804,-0.8804,-0.8706,-0.8554,-0.8404,-0.8258,-0.8326,-0.8404,-0.8404,-0.8309,-0.8231,-0.8231,-0.8123,-0.8726,-1.0881,-1.1219,-1.195,-1.4052,-1.4544,-1.479,0.0,0.0,0.0,0.0,0.0,-1.5784,-1.5784,-1.5784,-1.5784,-1.5784,-1.5784,-1.5784,-1.5784,-1.5784,-1.5784,-1.5784,-1.5784,-1.5784,-1.5784,-1.5784,-1.5784,-1.5784,-1.5784,-1.5784,-1.5784,-1.5784,-1.5784,-1.5784,-1.5784,-1.5784,-1.5784,-1.5784,-1.5784,-1.5784,-1.5784,-1.5784,-1.5784,-1.5784,-1.5784,-1.5784,-1.5784,-1.5784,-1.5784,-1.5784,-1.5784,-1.5784,-1.5784,-1.5784,-1.5784,-1.5784,-1.5784,-1.5784,-1.5784,-1.5784,-1.5784,-1.5784,-1.5784,-1.5784,-1.5784,-1.5784,-1.5784,-1.5784,-1.5784,-1.5784,-1.5784,-1.5784,-1.5784,-1.5784,-1.5784,-1.5784,-1.5784,-1.5784,-1.5784,-1.5784,-1.5784,-1.5784,-1.5784,-1.5784,-1.5879,-1.613,-1.613,-1.6265,-1.644,-1.6312,-1.6177,-1.613,-1.5927,-1.5832,-0.8922,-0.8749,-0.8469,-0.8662,-0.8726,-0.8703,-0.8547,-0.8401,-0.8255,-0.8102,-0.8035,-0.8049,-0.8049,-0.8032,-0.8019,-0.8019,-0.8005,-0.8726,-1.0881,-1.1219,-1.195,-1.4052,-1.4544,-1.479,0.0,0.0,0.0,0.0,-1.5784,-1.5784,-1.5784,-1.5784,-1.5784,-1.5784,-1.5784,-1.5784,-1.5784,-1.5784,-1.5784,-1.5784,-1.5784,-1.5784,-1.5784,-1.5784,-1.5784,-1.5784,-1.5784,-1.5784,-1.5784,-1.5784,-1.5784,-1.5784,-1.5784,-1.5784,-1.5784,-1.5784,-1.5784,-1.5784,-1.5784,-1.5784,-1.5784,-1.5784,-1.5784,-1.5784,-1.5784,-1.5784,-1.5784,-1.5784,-1.5784,-1.5784,-1.5784,-1.5784,-1.5784,-1.5784,-1.5784,-1.5784,-1.5784,-1.5784,-1.5784,-1.5784,-1.5784,-1.5784,-1.5784,-1.5784,-1.5784,-1.5784,-1.5784,-1.5784,-1.5784,-1.5784,-1.5784,-1.5784,-1.5784,-1.5784,-1.5784,-1.5784,-1.5784,-1.5784,-1.5784,-1.5784,-1.5784,-1.5784,-1.5832,-1.5832,-1.5832,-1.5879,-1.5927,-1.6123,-1.6076,-1.5879,-1.6076,-1.6028,-0.9242,-0.8718,-0.8309,-0.8632,-0.871,-0.8669,-0.8516,-0.8435,-0.8323,-0.8035,-0.7988,-0.7988,-0.7988,-0.7988,-0.7988,-0.7988,-0.7988,-0.8531,-1.0096,-1.0828,-1.1755,-1.3221,-1.4148,-1.479,0.0,0.0,0.0,0.0,-1.5784,-1.5784,-1.5784,-1.5784,-1.5784,-1.5784,-1.5784,-1.5784,-1.5784,-1.5784,-1.5784,-1.5784,-1.5784,-1.5784,-1.5784,-1.5784,-1.5784,-1.5784,-1.5784,-1.5784,-1.5784,-1.5784,-1.5784,-1.5784,-1.5784,-1.5784,-1.5784,-1.5784,-1.5784,-1.5784,-1.5784,-1.5784,-1.5784,-1.5784,-1.5784,-1.5784,-1.5784,-1.5784,-1.5784,-1.5784,-1.5784,-1.5784,-1.5784,-1.5784,-1.5784,-1.5784,-1.5784,-1.5784,-1.5784,-1.5784,-1.5784,-1.5784,-1.5784,-1.5784,-1.5784,-1.5784,-1.5784,-1.5784,-1.5784,-1.5784,-1.5784,-1.5784,-1.5784,-1.5784,-1.5784,-1.5784,-1.5784,-1.5784,-1.5784,-1.5784,-1.5784,-1.5784,-1.5784,-1.5784,-1.5784,-1.5784,-1.5784,-1.5784,-1.5784,-1.5927,-1.5927,-1.5784,-1.5927,-1.5927,-0.9427,-0.863,-0.8039,-0.854,-0.8652,-0.8621,-0.8509,-0.8455,-0.8353,-0.8042,-0.7988,-0.7988,-0.7988,-0.7988,-0.7988,-0.7988,-0.7988,-0.8382,-0.946,-1.0538,-1.156,-1.2581,-1.3956,-1.4885,0.0,0.0,0.0,0.0,-1.5784,-1.5784,-1.5784,-1.5784,-1.5784,-1.5784,-1.5784,-1.5784,-1.5784,-1.5784,-1.5784,-1.5784,-1.5784,-1.5784,-1.5784,-1.5784,-1.5784,-1.5784,-1.5784,-1.5784,-1.5784,-1.5784,-1.5784,-1.5784,-1.5784,-1.5784,-1.5784,-1.5784,-1.5784,-1.5784,-1.5784,-1.5784,-1.5784,-1.5784,-1.5784,-1.5784,-1.5784,-1.5784,-1.5784,-1.5784,-1.5784,-1.5784,-1.5784,-1.5784,-1.5784,-1.5784,-1.5784,-1.5784,-1.5784,-1.5784,-1.5784,-1.5784,-1.5784,-1.5784,-1.5784,-1.5784,-1.5784,-1.5784,-1.5784,-1.5784,-1.5784,-1.5784,-1.5784,-1.5784,-1.5784,-1.5784,-1.5784,-1.5784,-1.5784,-1.5784,-1.5784,-1.5784,-1.5784,-1.5784,-1.5784,-1.5784,-1.5784,-1.5784,-1.5784,-1.5784,-1.5784,-1.5784,-1.5784,-1.5784,-0.9183,-0.8423,-0.7929,-0.8381,-0.8492,-0.8492,-0.8482,-0.8377,-0.8235,-0.8022,-0.7988,-0.7988,-0.7988,-0.7988,-0.7988,-0.7988,-0.7988,-0.8382,-0.946,-1.0538,-1.156,-1.2581,-1.41,0.0,0.0,0.0,0.0,0.0,-1.5784,-1.5784,-1.5784,-1.5784,-1.5784,-1.5784,-1.5784,-1.5784,-1.5784,-1.5784,-1.5784,-1.5784,-1.5784,-1.5784,-1.5784,-1.5784,-1.5784,-1.5784,-1.5784,-1.5784,-1.5784,-1.5784,-1.5784,-1.5784,-1.5784,-1.5784,-1.5784,-1.5784,-1.5784,-1.5784,-1.5784,-1.5784,-1.5784,-1.5784,-1.5784,-1.5784,-1.5784,-1.5784,-1.5784,-1.5784,-1.5784,-1.5784,-1.5784,-1.5784,-1.5784,-1.5784,-1.5784,-1.5784,-1.5784,-1.5784,-1.5784,-1.5784,-1.5784,-1.5784,-1.5784,-1.5784,-1.5784,-1.5784,-1.5784,-1.5784,-1.5784,-1.5784,-1.5784,-1.5784,-1.5784,-1.5784,-1.5784,-1.5784,-1.5784,-1.5784,-1.5784,-1.5784,-1.5784,-1.5784,-1.5784,-1.5784,-1.5784,-1.5784,-1.5784,-1.5784,-1.5784,-1.5784,-1.5784,-1.5784,-0.9844,-0.9042,-0.8291,-0.8185,-0.8272,-0.8347,-0.8347,-0.8357,-0.8225,-0.8022,-0.7988,-0.7988,-0.7988,-0.7988,-0.7988,-0.7988,-0.7988,-0.8137,-0.8531,-1.0096,-1.1317,-1.1707,-1.3709,0.0,0.0,0.0,0.0,0.0,0.0,-1.5784,-1.5784,-1.5784,-1.5784,-1.5784,-1.5784,-1.5784,-1.5784,-1.5784,-1.5784,-1.5784,-1.5784,-1.5784,-1.5784,-1.5784,-1.5784,-1.5784,-1.5784,-1.5784,-1.5784,-1.5784,-1.5784,-1.5784,-1.5784,-1.5784,-1.5784,-1.5784,-1.5784,-1.5784,-1.5784,-1.5784,-1.5784,-1.5784,-1.5784,-1.5784,-1.5784,-1.5784,-1.5784,-1.5784,-1.5784,-1.5784,-1.5784,-1.5784,-1.5784,-1.5784,-1.5784,-1.5784,-1.5784,-1.5784,-1.5784,-1.5784,-1.5784,-1.5784,-1.5784,-1.5784,-1.5784,-1.5784,-1.5784,-1.5784,-1.5784,-1.5784,-1.5784,-1.5784,-1.5784,-1.5784,-1.5784,-1.5784,-1.5784,-1.5784,-1.5784,-1.5784,-1.5784,-1.5784,-1.5784,-1.5784,-1.5784,-1.5784,-1.5784,-1.5784,-1.5784,-1.5784,-1.5784,-1.5784,-1.0532,-0.9835,-0.9029,-0.8601,-0.856,-0.8606,-0.8361,-0.8357,-0.8286,-0.8032,-0.8029,-0.8102,-0.7998,-0.7988,-0.7988,-0.7988,-0.7988,-0.7988,-0.7988,-0.9558,-1.0828,-1.1268,-1.327,0.0,0.0,0.0,0.0,0.0,0.0,0.0,-1.5784,-1.5784,-1.5784,-1.5784,-1.5784,-1.5784,-1.5784,-1.5784,-1.5784,-1.5784,-1.5784,-1.5784,-1.5784,-1.5784,-1.5784,-1.5784,-1.5784,-1.5784,-1.5784,-1.5784,-1.5784,-1.5784,-1.5784,-1.5784,-1.5784,-1.5784,-1.5784,-1.5784,-1.5784,-1.5784,-1.5784,-1.5784,-1.5784,-1.5784,-1.5784,-1.5784,-1.5784,-1.5784,-1.5784,-1.5784,-1.5784,-1.5784,-1.5784,-1.5784,-1.5784,-1.5784,-1.5784,-1.5784,-1.5784,-1.5784,-1.5784,-1.5784,-1.5784,-1.5784,-1.5784,-1.5784,-1.5784,-1.5784,-1.5784,-1.5784,-1.5784,-1.5784,-1.5784,-1.5784,-1.5784,-1.5784,-1.5784,-1.5784,-1.5784,-1.5784,-1.5784,-1.5784,-1.5784,-1.5784,-1.5784,-1.5784,-1.5784,-1.5784,-1.5784,-1.5784,-1.5784,-1.5784,0.0,0.0,0.0,-0.9546,-0.944,-0.9248,-0.853,-0.8422,-0.8439,-0.8099,-0.816,-0.8218,-0.8069,-0.8038,-0.7988,-0.8038,-0.8038,-0.7988,-0.8038,-0.897,-1.0145,-1.1517,-1.278,0.0,0.0,0.0,0.0,0.0,-1.5784,-1.5784,-1.5784,-1.5784,-1.5784,-1.5784,-1.5784,-1.5784,-1.5784,-1.5784,-1.5784,-1.5784,-1.5784,-1.5784,-1.5784,-1.5784,-1.5784,-1.5784,-1.5784,-1.5784,-1.5784,-1.5784,-1.5784,-1.5784,-1.5784,-1.5784,-1.5784,-1.5784,-1.5825,-1.5825,-1.5825,-1.5872,-1.5872,-1.5872,-1.5872,-1.5872,-1.5872,-1.5872,-1.5872,-1.5872,-1.5872,-1.5872,-1.5825,-1.5825,-1.5832,-1.5832,-1.5784,-1.5784,-1.5784,-1.5784,-1.5784,-1.5784,-1.5784,-1.5784,-1.5784,-1.5784,-1.5784,-1.5784,-1.5784,-1.5784,-1.5784,-1.5784,-1.5784,-1.5784,-1.5784,-1.5784,-1.5784,-1.5784,-1.5784,-1.5784,-1.5784,-1.5784,-1.5784,-1.5784,-1.5784,-1.5784,-1.5784,-1.5784,-1.5784,-1.5784,-1.5784,-1.5784,-1.5784,-1.5784,-1.1044,0.0,0.0,0.0,0.0,0.0,-0.9397,-0.9276,-0.928,-0.9187,-0.8567,-0.8289,-0.9027,-0.8531,-0.8237,-0.9019,-0.8528,-0.8283,-0.9069,-1.0243,-1.1463,-1.2533,-1.404,0.0,0.0,0.0,0.0,0.0,-1.5784,-1.5784,-1.5784,-1.5784,-1.5784,-1.5784,-1.5784,-1.5784,-1.5784,-1.5784,-1.5784,-1.5784,-1.5784,-1.5784,-1.5784,-1.5784,-1.5784,-1.5784,-1.5784,-1.5784,-1.5784,-1.5784,-1.5784,-1.5784,-1.5784,-1.5784,-1.5784,-1.5784,-1.6251,-1.6911,-1.6911,-1.7365,-1.7956,-1.7956,-1.7956,-1.7956,-1.7956,-1.7956,-1.7956,-1.7956,-1.7956,-1.7824,-1.7091,-1.6911,-1.6716,-1.5967,-1.5784,-1.5784,-1.5784,-1.5784,-1.5784,-1.5784,-1.5784,-1.5784,-1.5784,-1.5784,-1.5784,-1.5784,-1.5784,-1.5784,-1.5784,-1.5784,-1.5784,-1.5784,-1.5784,-1.5784,-1.5784,-1.5784,-1.5784,-1.5784,-1.5784,-1.5784,-1.5784,-1.5784,-1.5784,-1.5784,-1.5784,-1.5784,-1.5784,-1.5784,-1.5784,-1.5784,-1.5784,-1.5784,-1.1695,-1.173,-1.1761,-1.1385,0.0,0.0,-1.0445,-1.0243,-1.0199,-1.0243,-0.9706,-0.9464,-1.0145,-0.9756,-0.9558,-1.0145,-0.985,-0.9706,-1.0342,-1.117,-1.2145,-1.3307,-1.4274,0.0,0.0,-1.573,-1.5784,-1.5784,-1.5784,-1.5784,-1.5784,-1.5784,-1.5784,-1.5784,-1.5784,-1.5784,-1.5784,-1.5784,-1.5784,-1.5784,-1.5784,-1.5784,-1.5784,-1.5784,-1.5784,-1.5784,-1.5784,-1.5784,-1.5784,-1.5784,-1.5784,-1.5784,-1.5784,-1.6062,-1.644,-1.644,-1.7044,-1.7924,-1.7924,-1.8288,-1.8788,-1.8788,-1.8788,-1.8788,-1.8788,-1.8788,-1.8788,-1.8788,-1.8788,-1.8565,-1.7559,-1.7279,-1.7044,-1.6062,-1.5784,-1.5784,-1.5784,-1.5784,-1.5784,-1.5784,-1.5784,-1.5784,-1.5784,-1.5784,-1.5784,-1.5784,-1.5784,-1.5784,-1.5784,-1.5784,-1.5784,-1.5784,-1.5784,-1.5784,-1.5784,-1.5784,-1.5784,-1.5784,-1.5784,-1.5784,-1.5784,-1.5784,-1.5784,-1.5784,-1.5784,-1.5784,-1.5784,-1.5784,-1.5784,-1.5784,-1.5784,-1.5784,-1.2729,-1.2771,-1.2752,-1.2546,-1.2476,0.0,-1.156,-1.1272,-1.1228,-1.1321,-1.1179,-1.1082,-1.1317,-1.1253,-1.1195,-1.1365,-1.1609,-1.1765,-1.1839,-1.2034,-1.2662,-1.3968,-1.416,0.0,-1.5689,-1.5784,-1.5784,-1.5784,-1.5784,-1.5784,-1.5784,-1.5784,-1.5784,-1.5784,-1.5784,-1.5784,-1.5784,-1.5784,-1.5784,-1.5784,-1.5784,-1.5784,-1.5784,-1.5784,-1.5784,-1.5784,-1.5784,-1.5784,-1.5784,-1.5784,-1.5784,-1.5832,-1.592,-1.6527,-1.7326,-1.7419,-1.811,-1.8972,-1.8972,-1.9018,-1.9117,-1.9117,-1.9117,-1.9117,-1.9117,-1.9117,-1.9117,-1.9117,-1.9117,-1.888,-1.7738,-1.7466,-1.7185,-1.6062,-1.5784,-1.5784,-1.5784,-1.5784,-1.5832,-1.592,-1.5879,-1.5784,-1.5784,-1.5784,-1.5784,-1.5784,-1.5784,-1.5784,-1.5784,-1.5784,-1.5784,-1.5784,-1.5784,-1.5784,-1.5784,-1.5784,-1.5784,-1.5784,-1.5784,-1.5784,-1.5784,-1.5784,-1.5784,-1.5784,-1.5784,-1.5784,-1.5784,-1.5784,-1.5784,-1.5784,-1.5784,-1.5784,-1.3243,-1.3194,-1.3402,-1.3531,-1.3573,0.0,-1.2582,-1.2393,-1.2387,-1.2387,-1.1755,-1.1419,-1.2242,-1.1568,-1.1221,-1.2264,-1.263,-1.2894,-1.3188,-1.355,-1.4233,-1.5382,-1.5687,0.0,-1.5804,-1.5784,-1.5784,-1.5784,-1.5784,-1.5784,-1.5784,-1.5784,-1.5784,-1.5784,-1.5784,-1.5784,-1.5784,-1.5784,-1.5784,-1.5784,-1.5784,-1.5784,-1.5784,-1.5784,-1.5784,-1.5784,-1.5784,-1.5784,-1.5784,-1.5784,-1.5784,-1.5879,-1.6669,-1.7138,-1.7419,-1.8195,-1.9155,-2.0022,-2.0022,-2.0484,-2.1132,-2.1132,-2.1132,-2.1132,-2.1132,-2.1132,-2.1132,-2.1132,-2.1132,-2.0727,-1.8972,-1.8519,-1.8056,-1.6244,-1.5784,-1.5784,-1.5784,-1.5784,-1.6062,-1.6857,-1.6346,-1.5784,-1.5784,-1.5784,-1.5784,-1.5784,-1.5784,-1.5784,-1.5784,-1.5784,-1.5784,-1.5784,-1.5784,-1.5784,-1.5784,-1.5784,-1.5784,-1.5784,-1.5784,-1.5784,-1.5784,-1.5784,-1.5784,-1.5784,-1.5784,-1.5784,-1.5784,-1.5784,-1.5784,-1.5784,-1.5784,-1.5784,-1.4494,-1.427,-1.4235,-1.4143,0.0,0.0,0.0,-1.3366,-1.3315,-1.3488,-1.2977,-1.2736,-1.3392,-1.2977,-1.2703,-1.3233,-1.3772,-1.4099,-1.4127,-1.4813,-1.5525,-1.6233,-1.631,0.0,-1.6066,-1.5919,-1.5784,-1.5784,-1.5784,-1.5784,-1.5784,-1.5784,-1.5784,-1.5784,-1.5784,-1.5784,-1.5784,-1.5784,-1.5784,-1.5784,-1.5784,-1.5784,-1.5784,-1.5784,-1.5784,-1.5784,-1.5784,-1.5784,-1.5784,-1.5784,-1.6109,-1.6581,-1.7091,-1.7924,-1.888,-1.9338,-2.0167,-2.0997,-2.0997,-2.132,-2.1696,-2.1696,-2.1696,-2.1696,-2.1696,-2.1696,-2.1696,-2.1696,-2.1696,-2.123,-1.9293,-1.9155,-1.9063,-1.7044,-1.6943,-1.7311,-1.7311,-1.7311,-1.7311,-1.7279,-1.6904,-1.6534,-1.6534,-1.6109,-1.5784,-1.5784,-1.5784,-1.5784,-1.5784,-1.5784,-1.5784,-1.5784,-1.5784,-1.5784,-1.5784,-1.5784,-1.5784,-1.5784,-1.5784,-1.5784,-1.5784,-1.5784,-1.5784,-1.5784,-1.5784,-1.5784,-1.5784,-1.5784,-1.5784,-1.5784,-1.5784,-1.5784,-1.5975,-1.5591,-1.5302,0.0,0.0,-1.4532,0.0,0.0,0.0,-1.4256,-1.4129,-1.4045,-1.4256,0.0,0.0,-1.4008,0.0,0.0,0.0,-1.5498,0.0,-1.652,-1.6413,0.0,-1.6192,-1.5972,-1.5784,-1.5784,-1.5784,-1.5784,-1.5784,-1.5784,-1.5784,-1.5784,-1.5784,-1.5784,-1.5784,-1.5784,-1.5784,-1.5784,-1.5784,-1.5784,-1.5784,-1.5784,-1.5784,-1.5784,-1.5784,-1.5784,-1.5784,-1.5784,-1.6527,-1.7606,-1.7606,-1.8703,-2.0294,-2.0484,-2.1042,-2.1696,-2.1696,-2.1696,-2.1696,-2.1696,-2.1696,-2.1696,-2.1696,-2.1696,-2.1696,-2.1696,-2.1696,-2.132,-1.9521,-1.9704,-1.984,-1.801,-1.8195,-1.8788,-1.8788,-1.8788,-1.8611,-1.801,-1.7559,-1.7232,-1.7044,-1.6346,-1.5784,-1.5784,-1.5784,-1.5784,-1.5784,-1.5784,-1.5784,-1.5784,-1.5784,-1.5784,-1.5784,-1.5784,-1.5784,-1.5784,-1.5784,-1.5784,-1.5784,-1.5784,-1.5784,-1.5784,-1.5784,-1.5784,-1.5784,-1.5784,-1.5784,-1.5784,-1.5784,-1.5784,0.0,0.0,0.0,0.0,-1.5609,0.0,0.0,0.0,-1.4262,-1.4292,0.0,0.0,0.0,0.0,0.0,0.0,0.0,0.0,-1.4979,-1.5152,-1.543,-1.5921,-1.6188,0.0,0.0,-1.5798,-1.5784,-1.5784,-1.5784,-1.5784,-1.5784,-1.5784,-1.5784,-1.5784,-1.5784,-1.5784,-1.5784,-1.5784,-1.5784,-1.5784,-1.5784,-1.5784,-1.5784,-1.5784,-1.5784,-1.5784,-1.5784,-1.5784,-1.5784,-1.5784,-1.6943,-1.8611,-1.8611,-1.9293,-2.0393,-2.1221,-2.1597,-2.1696,-2.1696,-2.1696,-2.1696,-2.1696,-2.1696,-2.1696,-2.1696,-2.1696,-2.1696,-2.1696,-2.1696,-2.1454,-2.0393,-2.0204,-2.0022,-1.8888,-1.8703,-1.8788,-1.8788,-1.8788,-1.9018,-1.9795,-1.8519,-1.6998,-1.6109,-1.5879,-1.5784,-1.5784,-1.5784,-1.5784,-1.5784,-1.5784,-1.5784,-1.5784,-1.5784,-1.5784,-1.5784,-1.5784,-1.5784,-1.5784,-1.5784,-1.5784,-1.5784,-1.5784,-1.5784,-1.5784,-1.5784,-1.5784,-1.5784,-1.5784,-1.5784,-1.5784,-1.5784,-1.5784,0.0,0.0,0.0,0.0,0.0,0.0,-1.6129,0.0,-1.5893,0.0,0.0,0.0,0.0,0.0,0.0,0.0,-1.4253,0.0,0.0,0.0,-1.5263,0.0,0.0,0.0,0.0,0.0,0.0,0.0,-1.5784,-1.5784,-1.5784,-1.5784,-1.5784,-1.5784,-1.5784,-1.5784,-1.5784,-1.5784,-1.5784,-1.5784,-1.5784,-1.5784,-1.5784,-1.5784,-1.5784,-1.5784,-1.5784,-1.5784,-1.5784,-1.5784,-1.699,-1.8788,-1.8788,-1.9758,-2.1177,-2.1553,-2.1696,-2.1696,-2.1696,-2.1696,-2.1696,-2.1696,-2.1696,-2.1696,-2.1696,-2.1696,-2.1696,-2.1696,-2.1696,-2.1454,-2.0529,-2.0718,-2.0853,-1.9886,-2.0076,-2.0492,-2.0492,-2.0492,-2.0447,-2.0294,-1.9155,-1.787,-1.6857,-1.6204,-1.5784,-1.5784,-1.5784,-1.5784,-1.5784,-1.5784,-1.5879,-1.6028,-1.6028,-1.6123,-1.6251,-1.6116,-1.6028,-1.6028,-1.5879,-1.5784,-1.5784,-1.5784,-1.5784,-1.5784,-1.5784,-1.5784,-1.5784,-1.5784,-1.5784,-1.5784,-1.5784,-1.5784,-1.9327,0.0,0.0,0.0,0.0,0.0,0.0,0.0,0.0,0.0,0.0,0.0,0.0,0.0,0.0,0.0,0.0,-1.4763,0.0,-1.4691,0.0,0.0,0.0,0.0,0.0,0.0,0.0,0.0,0.0,-1.5818,-1.5945,-1.5872,-1.5818,-1.5945,-1.5872,-1.5784,-1.5784,-1.5784,-1.5784,-1.5784,-1.5784,-1.5784,-1.5784,-1.5784,-1.5784,-1.5784,-1.5784,-1.5784,-1.5784,-1.5784,-1.6803,-1.8427,-1.8696,-1.9849,-2.1365,-2.1597,-2.1696,-2.1696,-2.1696,-2.1696,-2.1696,-2.1696,-2.1696,-2.1696,-2.1696,-2.1696,-2.1696,-2.1696,-2.1696,-2.1553,-2.0853,-2.1177,-2.1553,-2.0853,-2.1177,-2.1696,-2.1696,-2.1696,-2.1508,-2.0808,-1.9658,-1.8565,-1.7831,-1.6669,-1.5784,-1.5784,-1.5784,-1.5784,-1.5784,-1.5784,-1.5879,-1.6177,-1.6224,-1.6265,-1.6447,-1.6359,-1.6265,-1.6224,-1.5927,-1.5784,-1.5784,-1.5784,-1.5784,-1.5784,-1.5784,-1.5784,-1.5784,-1.5784,-1.5784,-1.5784,-1.5784,-1.5784,0.0,0.0,0.0,-1.898,0.0,0.0,0.0,0.0,-1.7289,0.0,0.0,0.0,0.0,0.0,-1.7196,-1.7188,0.0,0.0,0.0,0.0,0.0,0.0,0.0,0.0,0.0,0.0,0.0,0.0,0.0,0.0,-1.6295,-1.5985,-1.5965,-1.6253,-1.5979,-1.5784,-1.5784,-1.5784,-1.5784,-1.5784,-1.5784,-1.5784,-1.5784,-1.5784,-1.5784,-1.5784,-1.5784,-1.5784,-1.5784,-1.5784,-1.6386,-1.7419,-1.8427,-1.943,-2.0439,-2.1365,-2.1696,-2.1696,-2.1696,-2.1696,-2.1696,-2.1696,-2.1696,-2.1696,-2.1696,-2.1696,-2.1696,-2.1696,-2.1696,-2.1687,-2.1651,-2.1696,-2.1687,-2.1651,-2.1696,-2.1696,-2.1696,-2.1696,-2.1687,-2.1651,-2.0121,-1.8788,-1.8742,-1.7124,-1.5784,-1.5784,-1.5784,-1.5784,-1.5784,-1.5784,-1.5879,-1.6177,-1.6224,-1.6224,-1.6224,-1.6447,-1.6494,-1.6224,-1.5927,-1.5784,-1.5784,-1.5784,-1.5784,-1.5784,-1.5784,-1.5784,-1.5784,-1.5784,-1.5784,-1.5784,-1.5784,-1.5784,0.0,0.0,-1.9519,-1.941,0.0,0.0,0.0,0.0,0.0,0.0,0.0,0.0,0.0,0.0,-1.7296,-1.7296,-1.6929,-1.6754,0.0,0.0,0.0,0.0,0.0,-1.5299,0.0,0.0,0.0,0.0,-1.6012,0.0,0.0,-1.6359,-1.6366,-1.6279,-1.6179,-1.6025,-1.5784,-1.5784,-1.5784,-1.5784,-1.5784,-1.5784,-1.5784,-1.5784,-1.5784,-1.5784,-1.5784,-1.5784,-1.5784,-1.5784,-1.6393,-1.7326,-1.7645,-1.8842,-2.0393,-2.1365,-2.1696,-2.1696,-2.1696,-2.1696,-2.1696,-2.1696,-2.1696,-2.1696,-2.1696,-2.1696,-2.1696,-2.1696,-2.1696,-2.1696,-2.1696,-2.183,-2.1963,-2.1963,-2.1963,-2.1963,-2.1963,-2.183,-2.1508,-2.0898,-1.9712,-1.8611,-1.7924,-1.6669,-1.5784,-1.5784,-1.5784,-1.5879,-1.6028,-1.6076,-1.6218,-1.6697,-1.6744,-1.6784,-1.6918,-1.673,-1.64,-1.5974,-1.5832,-1.5784,-1.5784,-1.5784,-1.5784,-1.5784,-1.5784,-1.5784,-1.5784,-1.5784,-1.5784,-1.5784,-1.5784,-1.5784,-1.9144,-1.9213,0.0,-1.9478,-1.9358,0.0,-1.9614,0.0,0.0,0.0,0.0,0.0,0.0,0.0,0.0,-1.8503,-1.8272,-1.8033,0.0,-1.7213,0.0,0.0,0.0,-1.5259,0.0,-1.5658,-1.5872,-1.5979,-1.6166,0.0,0.0,0.0,-1.662,-1.6433,-1.6326,-1.6126,-1.5784,-1.5784,-1.5784,-1.5784,-1.5784,-1.5784,-1.5784,-1.5784,-1.5784,-1.5784,-1.5784,-1.5784,-1.5784,-1.5784,-1.6157,-1.681,-1.7145,-1.8102,-1.9384,-2.0718,-2.141,-2.1642,-2.132,-2.141,-2.1696,-2.1696,-2.1696,-2.1696,-2.1696,-2.1696,-2.1696,-2.1696,-2.1696,-2.1741,-2.183,-2.1963,-2.2097,-2.2097,-2.2097,-2.2052,-2.1963,-2.183,-2.141,-2.0484,-1.9476,-1.8473,-1.7466,-1.6487,-1.5784,-1.5784,-1.5879,-1.5981,-1.6177,-1.6265,-1.6454,-1.6831,-1.6932,-1.7073,-1.72,-1.673,-1.6305,-1.5974,-1.5927,-1.5927,-1.5927,-1.5927,-1.5927,-1.5927,-1.5832,-1.5784,-1.5784,-1.5784,-1.5784,-1.5784,-1.5784,-1.5784]},{"header":{"parameterUnit":"m.s-1","parameterCategory":1,"la1":30.6,"la2":29.2853,"lo1":-89.7004,"lo2":-87.6739,"dy":0.0162,"dx":0.0183,"nx":112,"ny":82,"refTime":"2024-08-26T06:00:00:Z","depth":0,"parameterNumber":3,"parameterNumberName":"V-component_of_WINDS"},"data":[0.0,0.0,0.0,0.0,0.0,0.0,0.0,0.0,0.0,0.0,0.0,0.0,0.0,0.0,0.0,0.0,0.0,0.0,0.0,0.0,0.0,0.0,0.0,0.0,0.0,0.0,0.0,0.0,0.0,0.0,0.0,0.0,0.0,0.0,0.0,0.0,0.0,0.0,0.0,0.0,0.0,0.0,0.0,0.0,0.0,0.0,0.0,0.0,0.0,0.0,0.0,0.0,0.0,0.0,0.0,0.0,0.0,0.0,0.0,0.0,0.0,0.0,0.0,0.0,0.0,0.0,0.0,0.0,0.0,0.0,0.0,0.0,0.0,0.0,0.0,0.0,0.0,0.0,0.0,0.0,0.0,0.0,0.0,0.0,0.0,0.0,0.0,0.0,0.0,0.0,2.5764,2.5731,2.6197,2.6499,2.6499,2.585,2.4808,2.3208,0.0,0.0,0.0,0.0,0.0,0.0,0.0,0.0,0.0,0.0,0.0,0.0,0.0,0.0,0.0,0.0,0.0,0.0,0.0,0.0,0.0,0.0,0.0,0.0,0.0,0.0,0.0,0.0,0.0,0.0,0.0,0.0,0.0,0.0,0.0,0.0,0.0,0.0,0.0,0.0,0.0,0.0,0.0,0.0,0.0,0.0,0.0,0.0,0.0,0.0,0.0,0.0,0.0,0.0,0.0,0.0,0.0,0.0,0.0,0.0,0.0,0.0,0.0,0.0,0.0,0.0,0.0,0.0,0.0,0.0,0.0,0.0,0.0,0.0,0.0,0.0,0.0,0.0,0.0,0.0,0.0,0.0,0.0,0.0,0.0,0.0,0.0,0.0,0.0,0.0,0.0,0.0,0.0,0.0,0.0,0.0,0.0,0.0,0.0,0.0,0.0,0.0,0.0,0.0,2.5871,2.632,2.6449,2.6499,2.6499,2.5523,2.4399,2.3183,0.0,0.0,0.0,0.0,0.0,0.0,0.0,0.0,0.0,0.0,0.0,0.0,0.0,0.0,0.0,0.0,0.0,0.0,0.0,0.0,0.0,0.0,0.0,0.0,0.0,0.0,0.0,0.0,0.0,0.0,0.0,0.0,0.0,0.0,0.0,0.0,0.0,0.0,0.0,0.0,0.0,0.0,0.0,0.0,0.0,0.0,0.0,0.0,0.0,0.0,0.0,0.0,0.0,0.0,0.0,0.0,0.0,0.0,0.0,0.0,0.0,0.0,0.0,0.0,0.0,0.0,0.0,0.0,0.0,0.0,0.0,0.0,0.0,0.0,0.0,0.0,0.0,0.0,0.0,0.0,0.0,0.0,0.0,0.0,0.0,0.0,0.0,0.0,0.0,0.0,0.0,0.0,0.0,0.0,0.0,0.0,0.0,0.0,0.0,0.0,0.0,0.0,0.0,2.6303,2.5878,2.6442,2.6499,2.6361,2.6047,2.5272,2.4173,2.2757,2.2171,0.0,0.0,0.0,0.0,0.0,0.0,0.0,0.0,0.0,0.0,0.0,0.0,0.0,0.0,0.0,0.0,0.0,0.0,0.0,0.0,0.0,0.0,0.0,0.0,0.0,0.0,0.0,0.0,0.0,0.0,0.0,0.0,0.0,0.0,0.0,0.0,0.0,0.0,0.0,0.0,0.0,0.0,0.0,0.0,0.0,0.0,0.0,0.0,0.0,0.0,0.0,0.0,0.0,0.0,0.0,0.0,0.0,0.0,0.0,0.0,0.0,0.0,0.0,0.0,0.0,0.0,0.0,0.0,0.0,0.0,0.0,0.0,0.0,0.0,0.0,0.0,0.0,0.0,0.0,0.0,0.0,0.0,0.0,0.0,0.0,0.0,0.0,0.0,0.0,0.0,0.0,0.0,0.0,0.0,0.0,0.0,0.0,0.0,0.0,0.0,0.0,0.0,2.6712,2.634,2.6471,2.6499,2.626,2.5649,2.5121,2.4073,2.2422,2.1794,0.0,0.0,0.0,0.0,0.0,0.0,0.0,0.0,0.0,0.0,0.0,0.0,0.0,0.0,0.0,0.0,0.0,0.0,0.0,0.0,0.0,0.0,0.0,0.0,0.0,0.0,0.0,0.0,0.0,0.0,0.0,0.0,0.0,0.0,0.0,0.0,0.0,0.0,0.0,0.0,0.0,0.0,0.0,0.0,0.0,0.0,0.0,0.0,0.0,0.0,0.0,0.0,0.0,0.0,0.0,0.0,0.0,0.0,0.0,0.0,0.0,0.0,0.0,0.0,0.0,0.0,0.0,0.0,0.0,0.0,0.0,0.0,0.0,0.0,0.0,0.0,0.0,0.0,0.0,0.0,0.0,0.0,0.0,0.0,0.0,0.0,0.0,0.0,0.0,0.0,0.0,0.0,0.0,0.0,0.0,0.0,0.0,0.0,0.0,0.0,0.0,0.0,2.762,2.7848,2.6611,2.6499,2.626,2.5649,2.5121,2.4073,2.2422,2.1794,0.0,0.0,0.0,0.0,0.0,0.0,0.0,0.0,0.0,0.0,0.0,0.0,0.0,0.0,0.0,0.0,0.0,0.0,0.0,0.0,0.0,0.0,0.0,0.0,0.0,0.0,0.0,0.0,0.0,0.0,0.0,0.0,0.0,0.0,0.0,0.0,0.0,0.0,0.0,0.0,0.0,0.0,0.0,0.0,0.0,0.0,0.0,0.0,0.0,0.0,0.0,0.0,0.0,0.0,0.0,0.0,0.0,0.0,0.0,0.0,0.0,0.0,0.0,0.0,0.0,0.0,0.0,0.0,0.0,0.0,0.0,0.0,0.0,0.0,0.0,0.0,0.0,0.0,0.0,0.0,0.0,0.0,0.0,0.0,0.0,0.0,0.0,0.0,0.0,0.0,0.0,0.0,0.0,0.0,0.0,0.0,0.0,0.0,0.0,0.0,0.0,0.0,2.7041,2.7144,2.6552,2.6172,2.5699,2.5159,2.4619,2.374,2.2397,0.0,0.0,0.0,0.0,0.0,0.0,0.0,0.0,0.0,0.0,0.0,0.0,0.0,0.0,0.0,0.0,0.0,0.0,0.0,0.0,0.0,0.0,0.0,0.0,0.0,0.0,0.0,0.0,0.0,0.0,0.0,0.0,0.0,0.0,0.0,0.0,0.0,0.0,0.0,0.0,0.0,0.0,0.0,0.0,0.0,0.0,0.0,0.0,0.0,0.0,0.0,0.0,0.0,0.0,0.0,0.0,0.0,0.0,0.0,0.0,0.0,0.0,0.0,0.0,0.0,0.0,0.0,0.0,0.0,0.0,0.0,0.0,0.0,0.0,0.0,0.0,0.0,0.0,0.0,0.0,0.0,0.0,0.0,0.0,0.0,0.0,0.0,0.0,0.0,0.0,0.0,0.0,0.0,0.0,0.0,0.0,0.0,0.0,0.0,0.0,0.0,0.0,2.6987,2.7301,2.738,2.6892,2.6106,2.5385,2.4838,2.4318,2.3439,2.2133,0.0,0.0,0.0,0.0,0.0,0.0,0.0,0.0,0.0,0.0,0.0,0.0,0.0,0.0,0.0,0.0,0.0,0.0,0.0,0.0,0.0,0.0,0.0,0.0,0.0,0.0,0.0,0.0,0.0,0.0,0.0,0.0,0.0,0.0,0.0,0.0,0.0,0.0,0.0,0.0,0.0,0.0,0.0,0.0,0.0,0.0,0.0,0.0,0.0,0.0,0.0,0.0,0.0,0.0,0.0,0.0,0.0,0.0,0.0,0.0,0.0,0.0,0.0,0.0,0.0,0.0,0.0,0.0,0.0,0.0,0.0,0.0,0.0,0.0,0.0,0.0,0.0,0.0,0.0,0.0,0.0,0.0,0.0,0.0,0.0,0.0,0.0,0.0,0.0,0.0,0.0,0.0,0.0,0.0,0.0,0.0,0.0,0.0,0.0,0.0,0.0,0.0,2.7762,2.8715,2.8999,2.7649,2.6381,2.5418,2.487,2.4305,2.3306,0.0,0.0,0.0,0.0,0.0,0.0,0.0,0.0,0.0,0.0,0.0,0.0,0.0,0.0,0.0,0.0,0.0,0.0,0.0,0.0,0.0,0.0,0.0,0.0,0.0,0.0,0.0,0.0,0.0,0.0,0.0,0.0,0.0,0.0,0.0,0.0,0.0,0.0,0.0,0.0,0.0,0.0,0.0,0.0,0.0,0.0,0.0,0.0,0.0,0.0,0.0,0.0,0.0,0.0,0.0,0.0,0.0,0.0,0.0,0.0,0.0,0.0,0.0,0.0,0.0,0.0,0.0,0.0,0.0,0.0,0.0,0.0,0.0,0.0,0.0,0.0,0.0,0.0,0.0,0.0,0.0,0.0,0.0,0.0,0.0,0.0,0.0,0.0,0.0,0.0,0.0,0.0,0.0,0.0,0.0,0.0,0.0,0.0,0.0,0.0,0.0,0.0,0.0,2.841,2.9401,2.9872,2.9005,2.7378,2.6303,2.6144,2.5259,2.4134,2.2793,0.0,0.0,0.0,0.0,0.0,0.0,0.0,0.0,0.0,0.0,0.0,0.0,0.0,0.0,0.0,0.0,0.0,0.0,0.0,0.0,0.0,0.0,0.0,0.0,0.0,0.0,0.0,0.0,0.0,0.0,0.0,0.0,0.0,0.0,0.0,0.0,0.0,0.0,0.0,0.0,0.0,0.0,0.0,0.0,0.0,0.0,0.0,0.0,0.0,0.0,0.0,0.0,0.0,0.0,0.0,0.0,0.0,0.0,0.0,0.0,0.0,0.0,0.0,0.0,0.0,0.0,0.0,0.0,0.0,0.0,0.0,0.0,0.0,0.0,0.0,0.0,0.0,0.0,0.0,0.0,0.0,0.0,0.0,0.0,0.0,0.0,0.0,0.0,0.0,0.0,0.0,0.0,0.0,0.0,0.0,0.0,0.0,0.0,0.0,0.0,0.0,0.0,2.9079,3.0097,3.0625,2.9969,2.7988,2.6698,2.6698,2.5672,2.4487,2.3269,0.0,0.0,0.0,0.0,0.0,0.0,0.0,0.0,0.0,0.0,0.0,0.0,0.0,0.0,0.0,0.0,0.0,0.0,0.0,0.0,0.0,0.0,0.0,0.0,0.0,0.0,0.0,0.0,0.0,0.0,0.0,0.0,0.0,0.0,0.0,0.0,0.0,0.0,0.0,0.0,0.0,0.0,0.0,0.0,0.0,0.0,0.0,0.0,0.0,0.0,0.0,0.0,0.0,0.0,0.0,0.0,0.0,0.0,0.0,0.0,0.0,0.0,0.0,0.0,0.0,0.0,0.0,0.0,0.0,0.0,0.0,0.0,0.0,0.0,0.0,0.0,0.0,0.0,0.0,0.0,0.0,0.0,0.0,0.0,0.0,0.0,0.0,0.0,0.0,0.0,0.0,0.0,0.0,0.0,0.0,0.0,0.0,0.0,0.0,0.0,0.0,0.0,2.9842,3.0837,3.1349,3.0757,2.8457,2.6933,2.6879,2.5899,2.4696,2.3455,0.0,0.0,0.0,0.0,0.0,0.0,0.0,0.0,0.0,0.0,0.0,0.0,0.0,0.0,0.0,0.0,0.0,0.0,0.0,0.0,0.0,0.0,0.0,0.0,0.0,0.0,0.0,0.0,0.0,0.0,0.0,0.0,0.0,0.0,0.0,0.0,0.0,0.0,0.0,0.0,0.0,0.0,0.0,0.0,0.0,0.0,0.0,0.0,0.0,0.0,0.0,0.0,0.0,0.0,0.0,0.0,0.0,0.0,0.0,0.0,2.9041,0.0,0.0,0.0,0.0,0.0,0.0,0.0,0.0,0.0,0.0,0.0,0.0,0.0,0.0,0.0,0.0,0.0,0.0,0.0,0.0,0.0,0.0,0.0,0.0,0.0,0.0,0.0,0.0,0.0,0.0,0.0,0.0,0.0,0.0,0.0,0.0,0.0,0.0,0.0,0.0,0.0,3.1031,3.1806,3.223,3.2086,3.0221,2.8784,2.8326,2.7553,2.6403,2.4733,2.4275,0.0,0.0,0.0,0.0,0.0,0.0,0.0,0.0,0.0,0.0,0.0,0.0,0.0,0.0,0.0,0.0,0.0,0.0,0.0,0.0,0.0,0.0,0.0,0.0,0.0,0.0,0.0,0.0,0.0,0.0,0.0,0.0,0.0,0.0,0.0,0.0,0.0,0.0,0.0,0.0,0.0,0.0,0.0,0.0,0.0,0.0,0.0,0.0,0.0,0.0,0.0,0.0,0.0,0.0,0.0,0.0,0.0,0.0,0.0,0.0,2.9799,0.0,0.0,0.0,0.0,0.0,0.0,0.0,0.0,0.0,0.0,0.0,0.0,0.0,0.0,0.0,0.0,0.0,0.0,0.0,0.0,0.0,0.0,0.0,0.0,0.0,0.0,0.0,0.0,0.0,0.0,0.0,0.0,0.0,0.0,0.0,0.0,0.0,0.0,0.0,0.0,3.1438,3.2075,3.2481,3.2481,3.0755,2.9377,2.8767,2.81,2.7037,2.5492,2.5392,0.0,0.0,0.0,0.0,0.0,0.0,0.0,0.0,0.0,0.0,0.0,0.0,0.0,0.0,0.0,0.0,0.0,0.0,0.0,0.0,0.0,0.0,0.0,0.0,0.0,0.0,0.0,0.0,0.0,0.0,0.0,0.0,0.0,0.0,0.0,0.0,0.0,0.0,0.0,0.0,0.0,0.0,0.0,0.0,0.0,0.0,0.0,0.0,0.0,0.0,0.0,0.0,0.0,3.584,3.5768,3.5514,3.4928,3.4999,3.5442,3.2812,3.2431,3.3609,3.294,0.0,0.0,0.0,0.0,0.0,0.0,0.0,0.0,0.0,0.0,0.0,0.0,0.0,0.0,0.0,0.0,0.0,0.0,0.0,0.0,0.0,0.0,0.0,0.0,3.4083,3.4209,0.0,0.0,0.0,0.0,0.0,0.0,0.0,0.0,0.0,0.0,0.0,0.0,3.1882,3.2363,3.2608,3.2513,3.0842,2.9493,2.8767,2.8187,2.7389,2.6199,2.6457,2.6442,0.0,0.0,0.0,0.0,0.0,0.0,0.0,0.0,0.0,0.0,0.0,0.0,0.0,0.0,0.0,0.0,0.0,0.0,0.0,0.0,0.0,0.0,0.0,0.0,0.0,0.0,0.0,0.0,0.0,0.0,0.0,0.0,3.3109,3.3128,0.0,0.0,0.0,0.0,0.0,0.0,0.0,0.0,0.0,0.0,0.0,0.0,0.0,3.5694,3.5813,3.6987,3.7362,3.6884,3.7584,3.7289,3.6109,3.6094,3.6172,3.6235,3.5843,0.0,3.5063,3.4347,0.0,0.0,0.0,0.0,0.0,0.0,0.0,0.0,0.0,0.0,0.0,0.0,0.0,0.0,0.0,0.0,0.0,0.0,0.0,0.0,0.0,0.0,3.4999,3.5094,3.5189,3.5363,0.0,3.4009,3.2568,3.3298,3.252,0.0,0.0,0.0,0.0,0.0,0.0,0.0,3.3741,3.3458,3.302,3.2544,3.1279,3.0002,2.8811,2.8636,2.8245,2.7492,2.6489,2.6141,2.666,2.6736,0.0,0.0,0.0,0.0,0.0,0.0,0.0,0.0,0.0,0.0,0.0,0.0,0.0,0.0,0.0,0.0,0.0,0.0,0.0,0.0,0.0,0.0,0.0,0.0,0.0,0.0,0.0,0.0,0.0,3.4157,3.4984,3.4518,3.5028,3.497,0.0,0.0,0.0,0.0,0.0,0.0,0.0,0.0,0.0,3.7541,3.8155,3.8676,3.9106,3.9257,3.9365,3.9448,3.9013,3.8302,3.7383,3.7444,3.7307,3.7038,3.7433,3.7212,3.6529,3.5789,3.5489,3.5426,0.0,0.0,0.0,0.0,3.6118,3.6213,3.6959,3.6785,0.0,3.613,0.0,0.0,0.0,0.0,0.0,0.0,0.0,0.0,0.0,0.0,0.0,3.5963,3.6279,3.6643,3.6943,3.5742,3.4723,0.0,3.5077,3.4406,3.2652,0.0,0.0,0.0,0.0,3.3682,3.3984,3.3818,3.3411,3.2795,3.1886,3.0877,2.9688,2.9824,2.9612,2.8702,2.8693,2.8853,2.9167,2.9155,2.9032,0.0,0.0,0.0,0.0,0.0,0.0,0.0,0.0,0.0,0.0,0.0,0.0,0.0,0.0,0.0,0.0,0.0,0.0,0.0,0.0,0.0,0.0,0.0,0.0,0.0,0.0,0.0,0.0,3.5601,3.6609,3.5826,3.6836,3.6956,0.0,0.0,0.0,0.0,0.0,0.0,3.8949,3.9007,3.9358,4.011,4.0778,4.1204,4.1366,4.094,4.0893,4.1184,3.9981,3.9172,3.875,3.8585,3.8311,3.7963,3.8462,3.8398,3.787,3.7012,3.6566,3.6377,3.6203,3.6485,3.6988,3.7337,3.7454,3.7682,3.8966,3.8982,3.8474,3.8711,0.0,3.695,3.6059,0.0,0.0,0.0,0.0,3.6362,3.6362,3.6746,3.7118,3.7118,3.7534,3.7931,3.7931,3.7371,3.6848,0.0,3.6975,3.6548,3.4462,0.0,0.0,0.0,0.0,3.4557,3.4378,3.421,3.3785,3.2998,3.2302,3.1522,3.0565,3.0812,3.0655,2.9861,3.0416,3.0821,3.0989,3.1004,3.0928,3.0745,0.0,0.0,0.0,0.0,0.0,0.0,0.0,0.0,0.0,0.0,0.0,0.0,0.0,0.0,0.0,0.0,0.0,0.0,0.0,0.0,0.0,0.0,0.0,0.0,0.0,0.0,0.0,0.0,0.0,3.7005,3.8585,0.0,0.0,0.0,0.0,3.8593,3.8629,3.9445,4.124,4.1223,4.1442,4.2144,4.274,4.2475,4.1221,4.1671,4.1574,4.0903,4.0271,3.9952,3.9902,3.9401,3.9152,3.9125,3.9158,3.9158,3.9044,3.7899,3.7022,3.6329,3.5695,3.5458,3.5653,3.686,3.7383,3.7642,3.8826,3.8838,3.8497,3.972,3.9621,3.891,3.8171,3.7939,0.0,0.0,3.8441,3.9009,3.9009,3.9043,3.9059,3.9059,3.9092,3.9125,3.9125,3.864,3.8048,0.0,3.6911,3.6408,3.6266,0.0,3.6253,3.6206,3.624,3.6126,3.5684,3.505,3.4195,3.3027,3.2302,3.1635,3.1037,3.0976,3.0989,3.0931,3.0365,3.0331,3.0973,3.1004,3.0684,3.0057,3.0608,0.0,0.0,0.0,0.0,0.0,0.0,0.0,0.0,0.0,0.0,0.0,0.0,0.0,0.0,0.0,0.0,0.0,0.0,0.0,0.0,0.0,0.0,0.0,0.0,0.0,0.0,0.0,0.0,3.929,4.0723,0.0,3.9547,3.8999,3.9202,4.0266,3.9746,4.0316,4.248,4.207,4.2088,4.286,4.3089,4.2976,4.2483,4.2159,4.1878,4.1619,4.091,4.0385,4.0003,3.98,3.9532,3.9206,3.9206,3.9206,3.9179,3.8772,3.8693,3.8823,3.8562,3.8758,3.9198,3.964,3.9846,3.996,4.0341,4.0369,4.0179,4.0188,4.0249,4.0128,3.9111,3.9037,3.9243,3.8923,3.899,3.9206,3.9206,3.9206,3.9206,3.9206,3.9206,3.9206,3.9206,3.9028,3.8701,3.8128,3.752,3.6959,3.6472,3.6801,3.6959,3.6472,3.6817,3.6711,3.564,3.5294,3.4642,3.3306,3.2936,3.2606,3.2071,3.2315,3.2155,3.1428,3.1834,3.205,3.1836,3.2242,3.2367,3.2143,3.1914,3.1368,0.0,0.0,0.0,0.0,0.0,0.0,0.0,0.0,0.0,0.0,0.0,0.0,0.0,0.0,0.0,0.0,0.0,0.0,0.0,0.0,0.0,0.0,0.0,0.0,0.0,3.9796,4.1082,4.0555,4.185,4.2179,4.0595,4.004,4.0314,4.1516,4.0932,4.1339,4.3178,4.2714,4.2654,4.3172,4.3189,4.3069,4.2792,4.2275,4.1895,4.1619,4.1136,4.0686,4.0294,4.0294,4.0112,3.9782,3.9782,3.9782,3.9782,3.9782,4.0025,4.0393,4.002,4.0128,4.0541,4.0735,4.068,4.0541,4.0718,4.0925,4.103,4.057,4.0645,4.0752,4.0011,4.002,4.0237,3.9868,3.9782,3.9782,3.9782,3.9782,3.9782,3.9782,3.9782,3.9782,3.9782,3.961,3.9358,3.8968,3.8282,3.7555,3.6893,3.7164,3.7352,3.6848,3.718,3.7004,3.5568,3.5394,3.4857,3.3451,3.3309,3.3171,3.2861,3.3118,3.2972,3.2211,3.2882,3.3103,3.2655,3.3056,3.3309,3.3309,3.285,3.2529,3.225,0.0,0.0,0.0,0.0,0.0,0.0,0.0,0.0,0.0,0.0,0.0,0.0,0.0,0.0,0.0,0.0,0.0,0.0,0.0,0.0,0.0,0.0,0.0,3.9493,4.1376,4.2254,4.0783,4.1903,4.2174,4.0517,4.0984,4.1672,4.234,4.2233,4.2514,4.3301,4.3212,4.312,4.312,4.312,4.2758,4.1957,4.1981,4.1619,4.0912,4.0912,4.0912,4.0912,4.0912,4.0912,4.0912,4.0912,4.0912,4.0912,4.0912,4.0912,4.0799,3.9662,3.9259,3.9339,3.9825,3.9697,3.9339,3.9851,4.041,4.0912,4.0912,4.0912,4.0912,4.0912,4.0912,4.0912,4.0912,4.0912,4.0912,4.0912,4.0912,4.0912,4.0912,4.0912,4.0912,4.0912,4.0434,4.0028,4.0003,3.9113,3.8181,3.7642,3.7569,3.7569,3.7539,3.7539,0.0,3.5568,3.5394,3.4857,3.3451,3.3309,3.3309,3.3309,3.3309,3.3293,3.3277,3.3293,3.3309,3.3309,3.3324,3.334,3.3372,3.334,3.3656,3.4288,0.0,0.0,0.0,0.0,0.0,0.0,0.0,0.0,0.0,0.0,0.0,0.0,0.0,0.0,0.0,0.0,0.0,0.0,0.0,0.0,0.0,4.2432,4.3735,4.2442,4.2582,4.2851,4.2938,4.2868,4.2594,4.2025,4.1527,4.1516,4.2198,4.1652,4.1598,4.2341,4.185,4.1533,4.1533,4.1533,4.1429,4.1205,4.1205,4.1101,4.0912,4.0912,4.0912,4.0912,4.0912,4.0912,4.0912,4.0912,4.0912,4.0912,4.0912,4.0912,4.0871,4.0566,4.0427,4.0451,4.0614,4.0566,4.0451,4.0597,4.0776,4.0912,4.0912,4.0912,4.0912,4.0912,4.0912,4.0912,4.0912,4.0912,4.0912,4.0912,4.0912,4.0912,4.0912,4.0912,4.0912,4.0912,4.0776,4.0524,4.0078,3.9757,3.9368,3.8827,3.8745,3.8579,3.8141,3.8084,0.0,3.5609,3.5394,3.4857,3.3451,3.3309,3.3309,3.3309,3.3309,3.3087,3.2608,3.3024,3.3309,3.3309,3.3767,3.4273,3.481,3.4288,3.4076,0.0,0.0,0.0,0.0,0.0,0.0,0.0,0.0,0.0,0.0,0.0,0.0,0.0,0.0,0.0,0.0,0.0,0.0,0.0,0.0,0.0,0.0,4.4581,4.5589,4.4981,4.4566,4.4231,4.3978,4.3568,4.3138,4.2718,4.1995,4.1683,4.206,4.1412,4.1149,4.1533,4.1136,4.0912,4.0912,4.0912,4.0912,4.0912,4.0912,4.0912,4.0912,4.0912,4.0912,4.0912,4.0912,4.0912,0.0,4.0912,4.0912,4.0912,4.0912,4.0912,0.0,0.0,0.0,0.0,0.0,4.0912,4.0912,4.0912,4.0912,4.0912,4.0912,4.0912,4.0912,4.0912,4.0912,4.0912,4.0912,4.0912,4.0912,4.0912,4.0912,4.0912,4.0912,4.0912,4.0912,4.0912,4.0912,4.0799,4.0451,4.0385,0.0,3.9961,3.9523,3.9082,3.8739,3.8684,3.8166,3.6734,3.6518,3.6099,3.5011,3.4898,3.4794,3.4558,3.4515,0.0,0.0,0.0,3.4178,3.4178,3.4541,0.0,0.0,0.0,0.0,0.0,0.0,0.0,0.0,3.5103,3.4867,0.0,0.0,0.0,0.0,0.0,0.0,0.0,0.0,0.0,0.0,0.0,0.0,0.0,0.0,0.0,0.0,4.6224,4.6232,4.6856,4.6554,4.5715,4.4185,4.393,4.3568,4.2863,4.2362,4.2015,4.1966,4.1475,4.1099,4.0965,0.0,0.0,0.0,0.0,4.0912,4.0912,4.0912,4.0912,4.0912,4.0912,4.0912,4.0912,4.0912,4.0912,4.0912,4.0912,4.0912,4.0912,4.0912,4.0912,4.0912,4.0912,4.0912,4.0912,4.0912,4.0912,4.0912,4.0912,0.0,0.0,4.0912,4.0912,4.0912,4.0912,4.0912,4.0912,4.0912,4.0912,4.0912,4.0912,4.0912,4.0912,4.0912,4.0912,4.0912,4.0912,4.0912,4.0912,4.0912,4.0912,4.0912,4.0912,4.0062,3.9365,3.9312,3.9295,3.9003,3.8197,3.8098,3.7833,3.7161,0.0,0.0,3.6342,3.63,3.6093,3.5613,3.5665,3.5697,3.5697,3.5776,3.6362,3.7481,3.686,3.7403,3.9162,3.8395,3.8395,3.9059,3.5598,3.513,0.0,0.0,0.0,0.0,0.0,0.0,0.0,0.0,0.0,0.0,0.0,0.0,0.0,0.0,0.0,4.629,4.6965,4.7173,4.6672,4.5975,4.5145,4.4116,4.3424,4.2935,4.2658,4.2544,4.2406,4.2244,4.1821,4.1529,4.1378,4.1088,4.0912,4.0912,4.0912,4.0912,4.0912,4.0912,4.0912,4.0912,0.0,0.0,4.0912,4.0912,4.0912,4.0912,4.0912,4.0912,4.0912,4.0912,4.0912,4.0912,4.0912,4.0912,4.0912,4.0912,4.0912,4.0912,4.0912,4.0912,4.0912,4.0912,4.0912,4.0912,4.0912,4.0912,0.0,4.0912,4.0912,4.0912,4.0912,4.0912,4.0912,4.0912,4.0912,4.0912,4.0912,4.0912,4.0912,4.0912,4.0912,4.0912,4.0912,4.0728,4.0402,3.9919,3.9851,3.9412,3.8249,3.8098,3.7833,3.7161,3.7095,3.7044,3.6927,3.6927,3.6876,3.679,3.7291,3.7561,3.7561,3.8153,3.8574,3.883,3.8695,3.8744,3.8951,3.8789,3.8734,3.8772,3.8035,3.7984,0.0,0.0,0.0,0.0,0.0,0.0,0.0,0.0,0.0,0.0,0.0,4.3169,4.4413,0.0,4.629,4.7497,4.7367,4.6958,4.655,4.5435,4.449,4.4047,4.3645,4.337,4.3318,4.3087,4.2867,4.2717,4.2302,4.199,4.1864,4.1666,4.1552,4.1552,4.1328,4.1209,4.1209,4.1012,4.0912,4.0894,4.1094,4.1209,4.1209,4.1209,4.1209,4.1186,4.0989,4.0912,4.0912,4.0912,4.0912,4.0912,4.0912,4.0912,4.0912,4.0912,4.0912,4.0912,4.0912,4.0912,4.0912,4.0912,4.0912,4.0912,4.0912,4.0912,4.0912,4.0912,4.0912,4.0912,4.0912,4.0912,4.0912,4.0912,4.0912,4.0912,4.0912,4.0912,4.0912,4.0912,4.0912,4.0912,4.0912,4.0912,4.0799,4.05,4.0434,4.0224,3.957,3.9511,3.9376,3.9044,3.8994,3.8871,3.8581,3.8319,3.8164,3.8164,3.847,3.8652,3.8652,3.899,3.9339,3.961,3.9252,3.9342,3.9885,3.9473,3.9447,3.9808,3.9723,3.9611,0.0,0.0,0.0,0.0,0.0,0.0,0.0,4.3025,4.314,4.4507,4.4872,4.5324,4.6513,4.6865,4.7386,4.8686,4.7553,4.6494,4.6494,4.5064,4.4005,4.4005,4.4005,4.3989,4.3974,4.3647,4.3373,4.3212,4.2771,4.2458,4.2358,4.2239,4.2198,4.2198,4.1821,4.1626,4.1626,4.1305,4.1111,4.1018,4.1445,4.1583,4.1494,4.1583,4.1583,4.149,4.1088,4.0912,4.0912,4.0912,4.0912,4.0912,4.0912,4.0912,4.0912,4.0912,4.0912,4.0912,4.0912,4.0912,4.0912,4.0912,4.0912,4.0912,4.0912,4.0912,4.0912,4.0912,4.0912,4.0912,4.0912,4.0912,4.0912,4.0912,4.0912,4.0912,4.0912,4.0912,4.0912,4.0912,4.0912,4.0912,4.0912,4.0912,4.0912,4.0912,4.0912,4.0912,4.0912,4.0912,4.0912,4.0912,4.0912,4.071,4.022,3.9765,3.9523,3.9523,3.9523,3.9523,3.9523,3.9523,3.974,4.017,3.9577,3.9783,4.0864,4.0137,4.0137,4.0864,4.0745,4.0501,4.0459,4.1248,4.223,4.3712,4.3632,4.406,0.0,4.7217,4.6368,4.7138,4.785,4.8184,4.7664,4.8147,4.8686,4.8872,4.7553,4.6494,4.6494,4.5064,4.4005,4.4005,4.4005,4.3974,4.3913,4.3865,4.3749,4.3546,4.316,4.2902,4.2825,4.2438,4.2198,4.2198,4.2136,4.2115,4.2115,4.2074,4.1842,4.1445,4.1906,4.1906,4.1516,4.1927,4.1885,4.149,4.1088,4.0912,4.0912,4.0912,4.0912,4.0912,4.0912,4.0912,4.0912,4.0912,4.0912,4.0912,4.0912,4.0912,4.0912,4.0912,4.0912,4.0912,4.0912,4.0912,4.0912,4.0912,4.0912,4.0912,4.0912,4.0912,4.0912,4.0912,4.0912,4.0912,4.0912,4.0912,4.0912,4.0912,4.0912,4.0912,4.0912,4.0912,4.0912,4.0912,4.0912,4.0912,4.0912,4.0912,4.0912,4.0912,4.0912,4.0871,4.0799,4.0734,4.071,4.071,4.071,4.071,4.071,4.071,4.0752,4.0799,4.0607,4.0558,4.0721,4.0493,4.051,4.0721,4.0697,4.0658,4.1905,4.2844,4.3618,4.4313,4.5341,4.6423,4.7507,4.761,4.7655,4.8274,4.8667,4.8797,4.8463,4.8667,4.8909,4.8909,4.7553,4.6494,4.6494,4.5064,4.4005,4.4005,4.4005,4.3974,4.3897,4.38,4.3682,4.3599,4.3409,4.3286,4.325,4.305,4.2958,4.2958,4.2713,4.2614,4.2614,4.2338,4.2095,4.1906,4.2378,4.2498,4.2318,4.2518,4.2358,4.1906,4.1731,4.149,4.1237,4.1237,4.1094,4.0918,4.1163,4.1237,4.1214,4.0989,4.0912,4.0912,4.0912,4.0912,4.0912,4.0912,4.0912,4.0912,4.0912,4.0912,4.0912,4.0912,4.0912,4.0912,4.0912,4.0912,4.0912,4.0912,4.0912,4.0912,4.0912,4.0912,4.0912,4.0912,4.0912,4.0912,4.0912,4.0912,4.0912,4.0912,4.0912,4.0912,4.0912,4.0912,4.0912,4.0912,4.0912,4.0912,4.0912,4.0912,4.0912,4.0912,4.0912,4.0912,4.0912,4.0912,4.0912,4.0912,4.084,4.0817,4.0817,4.0752,4.0752,4.0817,4.0817,4.0769,4.2618,4.3707,4.4613,4.5064,4.6711,4.807,4.751,4.7871,4.8439,4.8813,4.8909,4.8909,4.8909,4.8909,4.8909,4.8909,4.7553,4.6494,4.6494,4.5064,4.4005,4.4005,4.3958,4.3929,4.3883,4.3734,4.3634,4.3565,4.3532,4.3515,4.3515,4.3515,4.3515,4.3515,4.3214,4.3068,4.3068,4.2732,4.25,4.2398,4.2845,4.2995,4.2901,4.2901,4.2711,4.2398,4.2257,4.1927,4.1494,4.1648,4.1445,4.1111,4.1534,4.1692,4.1648,4.1373,4.118,4.1041,4.0942,4.0912,4.0912,4.0912,4.0912,4.0912,4.0912,4.0912,4.0912,4.0912,4.0912,4.0912,4.0912,4.0912,4.0912,4.0912,4.0912,4.0912,4.0912,4.0912,4.0912,4.0912,4.0912,4.0912,4.0912,4.0912,4.0912,4.0912,4.0912,4.0912,4.0912,4.0912,4.0912,4.0912,4.0912,4.0912,4.0912,4.0912,4.0912,4.0912,4.0912,4.0912,4.0912,4.0912,4.0912,4.0912,4.0847,4.084,4.084,4.0817,4.0799,4.084,4.084,4.0817,4.2023,4.3243,4.4895,4.6509,4.7575,4.8355,4.8984,4.9139,4.9127,4.8943,4.8909,4.8909,4.8909,4.8909,4.8909,4.8909,4.7553,4.6494,4.6494,4.5064,4.4005,4.4005,4.3899,4.3804,4.3804,4.3804,4.3703,4.3515,4.3515,4.3515,4.3515,4.3515,4.3515,4.3515,4.3497,4.3479,4.3479,4.348,4.325,4.2882,4.3286,4.3286,4.2901,4.2901,4.2882,4.2844,4.2398,4.1927,4.1539,4.199,4.1906,4.1516,4.199,4.2177,4.2177,4.2175,4.1864,4.1423,4.1041,4.0912,4.0912,4.0912,4.0912,4.0912,4.0912,4.0912,4.0912,4.0912,4.0912,4.0912,4.0912,4.0912,4.0912,4.0912,4.0912,4.0912,4.0912,4.0912,4.0912,4.0912,4.0912,4.0912,4.0912,4.0912,4.0912,4.0912,4.0912,4.0912,4.0912,4.0912,4.0912,4.0912,4.0912,4.0912,4.0912,4.0912,4.0912,4.0912,4.0912,4.0912,4.0912,4.0912,4.0912,4.0912,4.0769,4.0697,4.0697,4.0583,4.0583,4.0697,4.0697,4.0769,4.3517,4.4266,4.5004,4.6284,4.7105,4.7645,4.7829,4.7702,4.7503,4.7409,4.7326,4.7311,4.7311,4.7311,4.7478,4.8017,4.6754,4.5881,4.642,4.5547,4.4655,4.4079,4.4858,4.5016,4.3915,4.3686,4.3566,4.3515,4.3515,4.3515,4.3515,4.3515,4.3515,4.3515,4.3515,4.3515,4.3515,4.3515,4.3427,4.3304,4.3427,4.3427,4.3304,4.3304,4.3304,4.3304,4.3124,4.2827,4.2438,4.2614,4.2398,4.2011,4.2478,4.2673,4.2673,4.2673,4.2557,4.2318,4.1556,4.1305,4.126,4.0989,4.0912,4.0912,4.0912,4.0912,4.0912,4.0912,4.0912,4.0912,4.0912,4.0912,4.0912,4.0912,4.0912,4.0912,4.0912,4.0912,4.0912,4.0912,4.0912,4.0912,4.0912,4.0912,4.0912,4.0912,4.0912,4.0912,4.0912,4.0912,4.0912,4.0912,4.0912,4.0912,4.0912,4.0912,4.0912,4.0912,4.0912,4.0912,4.0912,4.0912,4.0912,4.0912,4.0864,4.084,4.084,4.0776,4.0776,4.084,4.084,4.0864,4.4535,4.4931,4.5251,4.653,4.7155,4.7397,4.7229,4.7015,4.6802,4.6619,4.6559,4.6494,4.6494,4.6735,4.7107,4.7627,4.6828,4.6345,4.6865,4.6234,4.5509,4.4952,4.5692,4.5848,4.4764,4.4482,4.4232,4.3956,4.392,4.392,4.392,4.3644,4.3515,4.3515,4.3515,4.3515,4.3515,4.3515,4.3515,4.3515,4.3515,4.3515,4.3515,4.3515,4.3515,4.3515,4.3515,4.3268,4.2901,4.3068,4.2845,4.2498,4.2939,4.3105,4.3105,4.3105,4.3105,4.2958,4.1885,4.1494,4.1445,4.1018,4.0912,4.0912,4.0912,4.0912,4.0912,4.0912,4.0912,4.0912,4.0912,4.0912,4.0912,4.0912,4.0912,4.0912,4.0912,4.0912,4.0912,4.0912,4.0912,4.0912,4.0912,4.0912,4.0912,4.0912,4.0912,4.0912,4.0912,4.0912,4.0912,4.0912,4.0912,4.0912,4.0912,4.0912,4.0912,4.0912,4.0912,4.0912,4.0912,4.0912,4.0912,4.0912,4.0912,4.0912,4.0912,4.0912,4.0912,4.0912,4.0912,4.0912,4.4993,4.5222,4.5604,4.7199,4.7608,4.7499,4.7188,4.7044,4.6897,4.6582,4.6443,4.6397,4.6397,4.7049,4.759,4.7627,4.7646,4.7646,4.7683,4.7033,4.655,4.6494,4.6399,4.6279,4.6205,4.6084,4.5681,4.4874,0.0,4.4691,4.4691,4.3938,4.3515,4.3515,4.3515,4.3515,4.3515,4.3515,4.3515,4.3515,4.3515,4.3515,4.3515,4.3515,4.3515,4.3515,4.3515,4.3286,4.2957,4.3339,4.3286,4.2957,4.3357,4.3515,4.3515,4.3515,4.3515,4.3321,4.2015,4.1561,4.1494,4.1111,4.0942,4.0918,4.0918,4.0935,4.0912,4.0912,4.0912,4.0912,4.0912,4.0912,4.0912,4.0912,4.0912,4.0912,4.0912,4.0912,4.0912,4.0912,4.0912,4.0912,4.0912,4.0912,4.0912,4.0912,4.0912,4.0912,4.0912,4.0912,4.0912,4.0912,4.0912,4.0912,4.0912,4.0912,4.0912,4.0912,4.0912,4.0912,4.0912,4.0912,4.0912,4.0912,4.0912,4.0912,4.0912,4.0912,4.0912,4.0912,4.0912,4.0912,4.5323,4.5418,4.5569,4.6141,4.617,4.6043,4.5956,4.5737,4.5506,4.5439,4.5165,4.4945,4.4945,4.5478,4.6104,4.6717,4.681,4.7014,4.7627,4.7516,4.7163,4.6568,4.738,4.7516,4.6316,4.7095,4.7352,4.6544,4.537,4.4691,4.4691,4.3938,4.3515,4.3515,4.3515,4.3515,4.3515,4.3515,4.3515,4.3515,4.3515,4.3515,4.3515,4.3515,4.3515,4.3515,4.3515,4.3427,4.3357,4.3463,4.3427,4.3357,4.3444,4.3515,4.3515,4.3515,4.3515,4.341,4.2769,4.2537,4.2458,4.2029,4.1644,4.1351,4.1351,4.114,4.0912,4.0912,4.0912,4.0912,4.0912,4.0912,4.0912,4.0912,4.0912,4.0912,4.0912,4.0912,4.0912,4.0912,4.0912,4.0912,4.0912,4.0912,4.0912,4.0912,4.0912,4.0912,4.0912,4.0912,4.0912,4.0912,4.0912,4.0912,4.0912,4.0912,4.0912,4.0912,4.0912,4.0912,4.0912,4.0912,4.0912,4.0912,4.0912,4.0912,4.0912,4.0912,4.0912,4.0912,4.0912,4.0912,4.5602,4.5634,4.5658,4.5766,4.5723,4.561,4.5528,4.5314,4.5058,4.4825,4.4572,4.4355,4.425,4.5097,4.5974,4.642,4.7088,4.7701,4.8166,4.824,4.8054,4.7608,4.8176,4.8254,4.7331,4.7886,4.8122,4.7663,4.6452,4.559,4.5259,4.447,4.3864,4.3515,4.3515,4.3515,4.3515,4.3515,4.3515,4.3515,4.3515,4.3515,4.3515,4.3515,4.3515,4.3515,0.0,4.3515,4.3515,4.3515,4.3515,4.3515,4.3515,4.3515,4.3515,4.3515,4.3515,4.348,4.325,4.316,4.3069,4.2418,4.2011,4.1778,4.1561,4.1333,4.1117,4.0942,4.0912,4.0912,4.0912,4.0912,4.0912,4.0912,4.0912,4.0912,4.0912,4.0912,4.0912,4.0912,4.0912,4.0912,4.0912,4.0912,4.0912,4.0912,4.0912,4.0912,4.0912,4.0912,4.0912,4.0912,4.0912,4.0912,4.0912,4.0912,4.0912,4.0912,4.0912,4.0912,4.0912,4.0912,4.0912,4.0912,4.0912,4.0912,4.0912,4.0912,4.0912,4.0912,4.0912,4.0864,4.5759,4.5793,4.5807,4.5807,4.5807,4.5737,4.5538,4.5381,4.5156,4.4663,4.4484,4.4332,4.4109,4.53,4.6401,4.6624,4.7831,4.8853,4.9187,4.9039,4.8946,4.9057,4.8787,4.8605,4.8605,4.842,4.8306,4.8306,4.7645,4.6856,4.5957,4.5149,4.4342,4.3533,4.3515,4.3515,4.3515,4.3515,4.3515,4.3515,4.3515,4.3515,4.3515,4.3515,4.3515,4.3515,4.3515,0.0,4.3515,4.3515,4.3515,4.3515,4.3515,4.3515,4.3515,4.3515,4.3515,4.3515,4.3515,4.3515,4.3375,4.2617,4.2358,4.2218,4.1799,4.1604,4.1423,4.1088,4.0942,4.0912,4.0912,4.0912,4.0912,4.0912,4.0912,4.0912,4.0912,4.0912,4.0912,4.0912,4.0912,4.0912,4.0912,4.0912,4.0912,4.0912,4.0912,4.0912,4.0912,4.0912,4.0912,4.0912,4.0912,4.0912,4.0912,4.0912,4.0912,4.0912,4.0912,4.0912,4.0912,4.0912,4.0912,4.0912,4.0912,4.0912,4.0912,4.0888,4.0871,4.0912,4.0847,4.0776,4.5602,4.5665,4.5807,4.5807,4.5807,4.5737,4.5481,4.5361,4.5216,4.4896,4.4599,4.4388,4.4346,4.4972,4.5937,4.7274,4.7738,4.8612,5.0673,4.9763,4.915,4.9819,4.9139,4.8605,4.8605,4.842,4.8306,4.8306,4.8177,4.7462,4.5975,4.5149,4.4342,4.3533,4.3515,4.3515,4.3515,4.3515,4.3515,4.3515,4.3515,4.3515,4.3515,4.3515,4.3515,4.3515,4.3515,0.0,4.3515,4.3515,4.3515,4.3515,4.3515,4.3515,4.3515,4.3515,4.3515,4.3515,4.3515,4.3515,4.348,4.3321,4.305,4.275,4.2673,4.2115,4.149,4.1423,4.1163,4.0912,4.0912,4.0912,4.0912,4.0912,4.0912,4.0912,4.0912,4.0912,4.0912,4.0912,4.0912,4.0912,4.0912,4.0912,4.0912,4.0912,4.0912,4.0912,4.0912,4.0912,4.0912,4.0912,4.0912,4.0912,4.0912,4.0912,4.0912,4.0912,4.0912,4.0912,4.0912,4.0912,4.0912,4.0912,4.0912,4.0912,4.0912,4.0793,4.0793,4.0894,4.068,4.0607,4.5362,4.5409,4.5481,4.5481,4.5463,4.5389,4.5235,4.5133,4.5014,4.4695,4.4506,4.436,4.4221,4.4802,4.5547,4.6327,4.7144,4.8259,4.9875,4.9763,4.9689,5.0098,4.9657,4.914,4.8661,4.8476,4.8382,4.8306,4.8306,4.7792,4.6599,4.5351,4.4342,4.3533,4.3515,4.3515,4.3515,4.3515,4.3515,4.3515,4.3515,4.3515,4.3515,4.3515,4.3515,4.3515,4.3515,0.0,4.3515,4.3515,4.3515,4.3515,4.3515,4.3515,4.3515,4.3515,4.3515,4.3515,4.3515,4.3515,4.3515,4.3515,4.3375,4.316,4.2957,4.2418,4.1821,4.1561,4.1209,4.0912,4.0912,4.0912,4.0912,4.0912,4.0912,4.0912,4.0912,4.0912,4.0912,4.0912,4.0912,4.0912,4.0912,4.0912,4.0912,4.0912,4.0912,4.0912,4.0912,4.1088,4.1117,4.0918,4.0912,4.0912,4.0912,4.0912,4.0912,4.0912,4.0912,4.0912,4.0912,4.1094,4.1209,4.1157,4.1186,4.1163,4.1065,4.0817,4.0697,4.068,4.0558,4.051,4.5118,4.5169,4.5201,4.5201,4.5159,4.5063,4.4931,4.4861,4.4714,4.4388,4.4318,4.425,4.4033,4.4562,4.5194,4.5732,4.6735,4.798,4.9485,4.993,5.0246,5.0673,5.0304,4.9695,4.8938,4.8642,4.8438,4.8306,4.8141,4.7681,4.6892,4.548,4.4342,4.3533,4.3515,4.3515,4.3515,4.3515,4.3515,4.3515,4.3515,4.3515,4.3515,4.3515,4.3515,4.3515,4.3515,0.0,0.0,4.3515,4.3515,4.3515,4.3515,4.3515,4.3515,4.3515,4.3515,4.3515,4.3515,4.3515,4.3515,4.3515,4.3515,4.3427,4.3124,4.2711,4.2259,4.1906,4.144,4.1041,4.114,4.1059,4.0912,4.0912,4.0912,4.0912,4.0912,4.0912,4.0912,4.0912,4.0912,4.0912,4.0912,4.0912,4.0912,4.0912,4.0912,4.0912,4.0912,4.1237,4.1378,4.1065,4.1018,4.1018,4.1018,4.1018,4.0989,4.0912,4.1065,4.1134,4.1012,4.1378,4.1578,4.1507,4.1556,4.1512,4.1351,4.1088,4.0924,4.0819,4.0795,4.0748,4.4896,4.5019,4.5201,4.5201,4.5159,4.5019,4.472,4.4585,4.4438,4.4124,4.4033,4.4017,4.3986,4.4079,4.4859,4.7107,4.6995,4.7924,5.1732,5.1008,5.0673,5.2197,5.0972,4.9954,4.9788,4.8993,4.8438,4.8306,4.7608,4.6856,4.6049,4.5186,4.4342,4.3533,4.3515,4.3515,4.3515,4.3515,4.3515,4.3515,4.3515,4.3515,4.3515,4.3515,4.3515,4.3515,4.3515,0.0,0.0,4.3515,4.3515,4.3515,4.3515,4.3515,4.3515,4.3515,4.3515,4.3515,4.3515,4.3515,4.3515,4.3515,4.3515,4.3479,4.3463,4.316,4.2825,4.2769,4.2136,4.1539,4.1969,4.1485,4.0912,4.0912,4.0912,4.0912,4.0912,4.0912,4.0912,4.0912,4.0912,4.0912,4.0912,4.0912,4.0912,4.0912,4.0912,4.0912,4.0912,4.1237,4.149,4.1445,4.1445,4.1445,4.1445,4.1445,4.1283,4.0918,4.1644,4.186,4.1368,4.1735,4.1927,4.1878,4.186,4.186,4.1839,4.1796,4.1799,4.1846,4.1743,4.1746,4.4648,4.4668,4.472,4.472,4.4642,4.4508,4.4393,4.4288,4.4166,4.4036,4.4005,4.4005,4.4005,4.4005,4.4506,4.6011,4.6382,4.7404,5.0005,5.0228,5.0543,5.1732,5.0804,5.0027,4.9917,4.9104,4.8476,4.8306,4.7553,4.6746,4.5938,4.5149,4.4342,4.3533,4.3515,4.3515,4.3515,4.3515,4.3515,4.3515,4.3515,4.3515,4.3515,4.3515,4.3515,4.3515,4.3515,0.0,0.0,4.3515,4.3515,4.3515,4.3515,4.3515,4.3515,4.3515,4.3515,4.3515,4.3515,4.3515,4.3515,4.3515,4.3515,4.3515,4.3515,4.3232,4.2901,4.2901,4.2438,4.1969,4.2157,4.1735,4.1209,4.0965,4.0912,4.0912,4.0912,4.0912,4.0912,4.0912,4.0912,4.0912,4.0912,4.0912,4.0912,4.0912,4.0912,4.0912,4.0912,4.1507,4.1927,4.1927,4.1927,4.1799,4.1516,4.1494,4.1423,4.1283,4.16,4.1778,4.1756,4.2177,4.2358,4.2195,4.2318,4.2318,4.2195,4.2053,4.1934,4.1892,4.1832,4.1832,4.4501,4.444,4.4397,4.4397,4.43,4.4199,4.4199,4.4104,4.4005,4.4005,4.4005,4.4005,4.4005,4.4005,4.4283,4.5157,4.5974,4.7144,4.902,4.9986,5.0896,5.1992,5.1156,5.0416,5.0268,4.9196,4.8439,4.8306,4.7314,4.6507,4.592,4.4911,4.4085,4.3533,4.3515,4.3515,4.3515,4.3515,4.3515,4.3515,4.3515,4.3515,4.3515,4.3515,4.3515,4.3515,4.3515,0.0,0.0,4.3515,4.3515,4.3515,4.3515,4.3515,4.3515,4.3515,4.3515,4.3515,4.3515,4.3515,4.3515,4.3515,4.3515,4.3515,4.3515,4.3304,4.3087,4.3087,4.2845,4.2537,4.2277,4.2053,4.1799,4.1373,4.1277,4.1277,4.1277,4.1277,4.1277,4.1277,4.1277,4.1277,4.1277,4.1163,4.1088,4.1088,4.0989,4.0912,4.0912,4.1534,4.2053,4.2195,4.232,4.2259,4.1948,4.1906,4.1864,4.1713,4.1927,4.2095,4.2175,4.2595,4.2749,4.2613,4.2749,4.2768,4.2634,4.248,4.2382,4.2264,4.2286,4.2306,4.4501,4.444,4.4397,4.4397,4.43,4.4199,4.4199,4.4104,4.4005,4.4005,4.4005,4.4005,4.4005,4.4005,4.4283,4.5157,4.5974,4.7348,4.9837,5.0878,5.1974,5.359,5.2364,5.1306,5.1119,4.9396,4.8306,4.8306,4.6819,0.0,4.5902,4.4378,4.3515,4.3515,4.3515,4.3515,4.3515,4.3515,4.3515,4.3515,4.3515,4.3515,4.3515,4.3515,4.3515,0.0,0.0,0.0,0.0,4.3515,4.3515,4.3515,4.3515,4.3515,4.3515,4.3515,4.3515,4.3515,4.3515,4.3515,4.3515,4.3515,4.3515,4.3515,4.3515,4.3497,4.3479,4.3479,4.3479,4.3286,4.242,4.2537,4.2768,4.2297,4.2195,4.2195,4.2195,4.2195,4.2195,4.2195,4.2195,4.2195,4.2195,4.1799,4.1494,4.1494,4.114,4.0912,4.0912,4.126,4.1692,4.2136,4.2614,4.2882,4.2882,4.2882,4.2692,4.2218,4.2939,4.3142,4.2629,4.2918,4.3086,4.3086,4.3086,4.3123,4.3178,4.3323,4.3376,4.3376,4.3445,4.3479,4.444,4.4368,4.418,4.3542,4.3718,4.3921,4.3363,4.363,4.4005,4.4005,4.4005,4.4005,4.4005,4.4005,4.4469,4.5881,4.6327,4.7163,4.9057,5.0005,5.0933,5.2029,5.1584,5.0731,4.951,4.8714,4.8306,4.8306,4.6819,4.5902,4.5902,4.436,4.3515,4.3515,4.3515,4.3515,4.3515,4.3515,4.3515,4.3515,4.3515,4.3515,4.3515,4.3515,4.3515,0.0,0.0,0.0,0.0,4.3515,4.3515,4.3515,4.3515,4.3515,4.3515,4.3515,4.3515,4.3515,4.3515,4.3515,4.3515,4.3515,4.3515,4.3515,4.3515,4.3515,4.3515,4.3515,4.3515,4.3375,4.2826,4.2787,4.2769,4.2318,4.2198,4.2198,4.2198,4.2198,4.2198,4.2198,4.2198,4.2198,4.2198,4.2074,4.1864,4.1539,4.1401,4.1192,4.0942,4.1237,4.1561,4.1713,4.2438,4.2901,4.2901,4.2901,4.2806,4.2557,4.2769,4.2938,4.2936,4.3086,4.3142,4.3104,4.3233,4.3323,4.334,4.3429,4.3463,4.3463,4.3497,4.3515,4.3975,4.3829,4.3625,4.3044,4.323,4.3503,4.3299,4.3633,4.4005,4.4005,4.4005,4.4005,4.4005,4.4265,4.4822,4.5881,4.681,4.7757,4.876,5.0153,5.1138,5.1361,5.1213,5.0434,4.8771,4.842,4.8177,4.7865,4.6636,4.5773,4.5461,4.4195,4.3515,4.3515,4.3515,4.3515,4.3515,4.3515,4.3515,4.3515,4.3515,4.3515,4.3515,4.3515,4.3515,0.0,0.0,0.0,0.0,4.3515,4.3515,4.3515,4.3515,4.3515,4.3515,4.3515,4.3515,4.3515,4.3515,4.3515,4.3515,4.3515,4.3515,4.3515,4.3515,4.3515,4.3515,4.3515,4.3515,4.3444,4.3178,4.3142,4.305,4.277,4.2693,4.2693,4.2693,4.2693,4.2693,4.2693,4.2693,4.2693,4.2693,4.2577,4.2358,4.2074,4.1885,4.167,4.1418,4.1445,4.1626,4.199,4.2398,4.2769,4.3087,4.3142,4.3087,4.2995,4.2976,4.3031,4.3215,4.3196,4.3196,4.3215,4.3341,4.3394,4.3446,4.348,4.3515,4.3515,4.3515,4.3515,0.0,4.2994,4.2973,4.2917,4.2895,4.3076,4.3763,4.3968,0.0,4.4005,4.4005,4.4042,4.4153,4.4785,4.5361,4.5528,4.7386,4.8834,4.889,5.0933,5.2178,5.1472,5.1176,5.0379,4.8771,4.8384,4.7921,4.7168,4.6305,4.5498,4.4745,4.3938,4.3515,4.3515,4.3515,4.3515,4.3515,4.3515,4.3515,4.3515,4.3515,4.3515,4.3515,4.3515,4.3515,0.0,0.0,0.0,0.0,4.3515,4.3515,4.3515,4.3515,4.3515,4.3515,4.3515,4.3515,4.3515,4.3515,4.3515,4.3515,4.3515,4.3515,4.3515,4.3515,4.3515,4.3515,4.3515,4.3515,4.3515,4.3515,4.3515,4.3515,4.3515,4.3515,4.3515,4.3515,4.3515,4.3515,4.3515,4.3515,4.3515,4.3515,4.3178,4.292,4.2901,4.2536,4.2257,4.2198,4.1821,4.1885,4.2768,4.2478,4.2577,4.3392,4.3479,4.3497,4.3497,4.3429,4.3394,4.3394,4.3287,4.3269,4.3394,4.3394,4.3446,4.3515,4.3515,4.3515,4.3515,4.3515,4.3515,4.3096,0.0,4.3718,4.2991,4.3277,4.3615,0.0,4.3559,4.4005,4.4005,4.4005,4.4395,4.5677,4.5584,4.59,4.7757,4.8017,4.8203,4.8816,4.993,5.0859,5.1342,5.0731,4.9825,4.8716,4.796,4.7426,4.7113,4.5773,4.4893,4.4727,4.3938,4.3515,4.3515,4.3515,4.3515,4.3515,4.3515,4.3515,4.3515,4.3515,4.3515,4.3515,4.3515,4.3515,0.0,0.0,0.0,4.3515,4.3515,4.3515,4.3515,4.3515,4.3515,4.3515,4.3515,4.3515,4.3515,4.3515,4.3515,4.3515,4.3515,4.3515,4.3515,4.3515,4.3515,4.3515,4.3515,4.3515,4.3515,4.3515,4.3515,4.3515,4.3515,4.3515,4.3515,4.3515,4.3515,4.3515,4.3515,4.3515,4.3515,4.3515,4.341,4.325,4.2939,4.2806,4.2614,4.2257,4.2095,4.2115,4.2338,4.2595,4.2825,4.3013,4.3322,4.348,4.3429,4.3412,4.334,4.3251,4.3323,4.3358,4.3394,4.3464,4.348,4.3515,4.3515,4.3515,4.3515,4.3515,4.3515,4.3389,4.372,4.3992,4.3482,4.367,4.3986,4.3949,4.3968,4.4005,4.4005,4.4005,4.4395,4.5714,4.6197,4.6828,4.8147,4.8946,4.967,5.0488,5.032,5.0432,5.1305,5.0546,4.9455,0.0,4.7537,4.6875,4.6067,4.5186,4.4544,4.4176,4.3736,4.3515,4.3515,4.3515,4.3515,4.3515,4.3515,4.3515,4.3515,4.3515,4.3515,4.3515,4.3515,4.3515,0.0,0.0,0.0,4.3515,4.3515,4.3515,4.3515,4.3515,4.3515,4.3515,4.3515,4.3515,4.3515,4.3515,4.3515,4.3515,4.3515,4.3515,4.3515,4.3515,4.3515,4.3515,4.3515,4.3515,4.3515,4.3515,4.3515,4.3515,4.3515,4.3515,4.3515,4.3515,4.3515,4.3515,4.3515,4.3515,4.3515,4.3515,4.3515,4.3427,4.3214,4.3178,4.3087,4.2827,4.2635,4.2596,4.2789,4.2845,4.2976,4.316,4.3375,4.348,4.3446,4.3446,4.3411,4.3305,4.3394,4.3429,4.3394,4.3429,4.3445,4.3445,4.3445,4.3463,4.3515,4.3515,4.3515,4.3782,4.4283,4.4432,4.3949,4.4005,4.4321,4.4804,4.4432,4.4005,4.4005,4.4116,4.4544,4.5639,4.6865,4.7813,4.8203,4.993,5.1491,5.2308,5.1101,5.0395,5.1138,5.0343,0.0,4.7552,4.7132,4.6324,4.4801,4.4599,4.4213,4.3551,4.3515,4.3515,4.3515,4.3515,4.3515,4.3515,4.3515,4.3515,4.3515,4.3515,4.3515,4.3515,4.3515,4.3515,4.3515,0.0,0.0,4.3515,4.3515,4.3515,4.3515,4.3515,4.3515,4.3515,4.3515,4.3515,4.3515,4.3515,4.3515,4.3515,4.3515,4.3515,4.3515,4.3515,4.3515,4.3515,4.3515,4.3515,4.3515,4.3515,4.3515,4.3515,4.3515,4.3515,4.3515,4.3515,4.3515,4.3515,4.3515,4.3515,4.3515,4.3515,4.3515,4.3515,4.3515,4.3515,4.3515,4.3515,4.3196,4.3124,4.3462,4.3178,4.3142,4.3462,4.3515,4.3515,4.3515,4.3497,4.3445,4.3358,4.3428,4.3428,4.3358,4.3394,4.3394,4.3394,4.3394,4.3429,4.3515,4.3497,4.348,4.3782,4.5528,4.6457,4.367,4.4042,4.4748,4.3485,4.3615,4.4005,4.4005,4.4581,4.5769,4.7943,4.7999,4.8389,5.0488,5.058,5.0673,5.1472,5.0785,5.0228,5.0376,4.9544,4.8566,4.7497,4.6707,4.5827,4.4782,4.4066,4.3643,4.3515,4.3515,4.3515,4.3515,4.3515,4.3515,4.3515,4.3515,4.3515,4.3515,4.3515,4.3515,4.3515,4.3515,4.3515,4.3515,0.0,4.3515,4.3515,4.3515,4.3515,4.3515,4.3515,4.3515,4.3515,4.3515,4.3515,4.3515,4.3515,4.3515,4.3515,4.3515,4.3515,4.3515,4.3515,4.3515,4.3515,4.3515,4.3515,4.3515,4.3515,4.3515,4.3515,4.3515,4.3515,4.3515,4.3515,4.3515,4.3515,4.3515,4.3515,4.3515,4.3515,4.3515,4.3515,4.3515,4.3515,4.3515,4.3515,4.3444,4.3427,4.3479,4.3444,4.3427,4.3479,4.3515,4.3515,4.3515,4.3446,4.3358,4.3233,4.3251,4.3251,4.3233,4.334,4.3394,4.3394,4.3394,4.3429,4.3497,4.3446,4.3429,4.3132,4.4506,4.5454,4.4413,4.5714,4.6921,4.5714,4.5503,4.554,4.5374,4.578,4.6782,4.8798,4.871,4.902,5.1063,5.032,4.9949,5.1212,5.0302,4.967,5.0098,0.0,4.7699,4.6833,4.5898,4.4982,4.4121,4.3699,0.0,4.3515,4.3515,4.3515,4.3515,4.3515,4.3515,4.3515,4.3515,4.3515,4.3515,4.3515,4.3515,4.3515,4.3515,4.3515,4.3515,0.0,4.3515,4.3515,4.3515,4.3515,4.3515,4.3515,4.3515,4.3515,4.3515,4.3515,4.3515,4.3515,4.3515,4.3515,4.3515,4.3515,4.3515,4.3515,4.3515,4.3515,4.3515,4.3515,4.3515,4.3515,4.3515,4.3515,4.3515,4.3515,4.3515,4.3515,4.3515,4.3515,4.3515,4.3515,4.3515,4.3515,4.3515,4.3515,4.3515,4.3515,4.3515,4.3515,4.3515,4.3515,4.3515,4.3515,4.3515,4.3515,4.3515,4.3515,4.3515,4.3446,4.3394,4.3357,4.3269,4.3233,4.3305,4.3251,4.3269,4.3305,4.3269,4.3506,4.3998,4.3944,4.4163,4.2519,4.3392,4.4209,4.5082,4.6382,4.7477,4.7504,4.6903,4.64,4.6632,4.7005,4.7744,4.9227,4.9449,4.9782,5.102,5.0146,4.972,5.0933,4.9986,4.928,4.9522,4.8269,4.6999,4.602,4.5182,4.4378,4.3552,4.3515,0.0,4.3515,4.3515,4.3515,4.3515,4.3515,4.3515,4.3515,4.3515,4.3515,4.3515,4.3515,4.3515,4.3515,4.3515,4.3515,4.3515,4.3515,4.3515,4.3515,4.3515,4.3515,4.3515,4.3515,4.3515,4.3515,4.3515,4.3515,4.3515,4.3515,4.3515,4.3515,4.3515,4.3515,4.3515,4.3515,4.3515,4.3515,4.3515,4.3515,4.3515,4.3515,4.3515,4.3515,4.3515,4.3515,4.3515,4.3515,4.3515,4.3515,4.3515,4.3515,4.3515,4.3515,4.3515,4.3515,4.3515,4.3515,4.3515,4.3515,4.3515,4.3515,4.3515,4.3515,4.3515,4.3515,4.3515,4.3515,4.3515,4.3411,4.3376,4.3428,4.3269,4.3214,4.3323,4.3178,4.3142,4.3178,4.3141,4.3541,4.4399,4.4399,4.4837,4.237,4.3392,4.4209,4.5082,4.4265,4.3893,4.6398,4.5768,4.5151,4.6896,4.7895,4.8729,4.9606,5.0354,5.0808,5.0691,5.0553,5.0418,5.0207,5.0098,4.9485,4.8036,4.7602,4.6796,4.5244,4.4851,4.4378,4.3552,0.0,0.0,4.3515,4.3515,4.3515,4.3515,4.3515,4.3515,4.3515,4.3515,4.3515,4.3515,4.3515,4.3515,4.3515,4.3515,4.3515,4.3515,4.3515,4.3515,4.3515,4.3515,4.3515,4.3515,4.3515,4.3515,4.3515,4.3515,4.3515,4.3515,4.3515,4.3515,4.3515,4.3515,4.3515,4.3515,4.3515,4.3515,4.3515,4.3515,4.3515,4.3515,4.3515,4.3515,4.3515,4.3515,4.3515,4.3515,4.3515,4.3515,4.3515,4.3515,4.3515,4.3515,4.3515,4.3515,4.3515,4.3515,4.3515,4.3515,4.3515,4.3515,4.3515,4.3515,4.3515,4.3515,4.3515,4.3515,4.3515,4.3515,4.3322,4.3233,4.3214,4.3142,4.3104,4.3123,4.3178,4.316,4.3104,4.3104,4.3541,4.4399,4.44,4.4819,4.1739,4.3002,4.4368,4.591,4.5036,4.435,4.6434,4.6977,4.7381,4.8609,4.9258,4.9632,4.9768,5.0633,5.1197,5.0893,5.0289,4.9971,5.0366,4.9362,4.8389,4.7776,4.664,4.5669,4.506,4.4354,4.3828,4.3533,0.0,0.0,4.3515,4.3515,4.3515,4.3515,4.3515,4.3515,4.3515,4.3515,4.3515,4.3515,4.3515,4.3515,4.3515,4.3515,4.3515,4.3515,4.3515,4.3515,4.3515,4.3515,4.3515,4.3515,4.3515,4.3515,4.3515,4.3515,4.3515,4.3515,4.3515,4.3515,4.3515,4.3515,4.3515,4.3515,4.3515,4.3515,4.3515,4.3515,4.3515,4.3515,4.3515,4.3515,4.3515,4.3515,4.3515,4.3515,4.3515,4.3515,4.3515,4.3515,4.3515,4.3515,4.3515,4.3515,4.3515,4.3515,4.3515,4.3515,4.3515,4.3515,4.3515,4.3515,4.3515,4.3515,4.3515,4.3515,4.3515,4.3515,4.3445,4.3393,4.3393,4.3323,4.3287,4.3287,4.3178,4.3141,4.3104,4.303,4.3393,4.4229,4.4815,4.5234,4.1865,4.2704,4.3878,4.6102,4.5399,4.4672,4.6722,4.7574,4.8351,4.9796,5.0225,5.0313,5.0118,5.0715,5.114,5.0811,5.0057,4.9578,4.979,4.8588,4.7516,4.6995,4.5788,4.4912,4.4653,4.3948,4.3515,0.0,0.0,0.0,0.0,4.3515,4.3515,4.3515,4.3515,4.3515,4.3515,4.3515,4.3515,4.3515,4.3515,4.3515,4.3515,4.3515,4.3515,4.3515,4.3515,4.3515,4.3515,4.3515,4.3515,4.3515,4.3515,4.3515,4.3515,4.3515,4.3515,4.3515,4.3515,4.3515,4.3515,4.3515,4.3515,4.3515,4.3515,4.3515,4.3515,4.3515,4.3515,4.3515,4.3515,4.3515,4.3515,4.3515,4.3515,4.3515,4.3515,4.3515,4.3515,4.3515,4.3515,4.3515,4.3515,4.3515,4.3515,4.3515,4.3515,4.3515,4.3515,4.3515,4.3515,4.3515,4.3515,4.3515,4.3515,4.3515,4.3515,4.3515,4.3515,4.3515,4.3515,4.3429,4.3394,4.3394,4.3215,4.3123,4.3104,4.2975,4.3318,4.4114,4.4792,4.5268,4.2878,4.2557,4.259,4.5388,4.4868,4.4383,4.7188,4.7155,4.7322,5.0115,5.0712,5.0712,5.0712,5.0712,5.0594,5.0241,4.9968,4.9386,4.8239,4.7858,4.7088,4.5491,4.5121,4.469,4.3878,4.3617,4.3515,0.0,0.0,0.0,0.0,4.3515,4.3515,4.3515,4.3515,4.3515,4.3515,4.3515,4.3515,4.3515,4.3515,4.3515,4.3515,4.3515,4.3515,4.3515,4.3515,4.3515,4.3515,4.3515,4.3515,4.3515,4.3515,4.3515,4.3515,4.3515,4.3515,4.3515,4.3515,4.3515,4.3515,4.3515,4.3515,4.3515,4.3515,4.3515,4.3515,4.3515,4.3515,4.3515,4.3515,4.3515,4.3515,4.3515,4.3515,4.3515,4.3515,4.3515,4.3515,4.3515,4.3515,4.3515,4.3515,4.3515,4.3515,4.3515,4.3515,4.3515,4.3515,4.3515,4.3515,4.3515,4.3515,4.3515,4.3515,4.3515,4.3515,4.3515,4.3515,4.3515,4.3515,4.3429,4.3394,4.3394,4.3269,4.3178,4.3104,4.2957,4.3318,4.4077,4.4229,4.4762,4.1145,4.2524,4.3941,4.5167,4.6409,4.761,4.869,4.8571,4.8709,5.0365,5.0712,5.0712,5.0712,5.0712,5.0471,4.9748,4.9411,4.8827,4.7702,4.6788,4.6,4.5374,4.4621,4.4063,4.3822,4.3617,0.0,0.0,0.0,0.0,0.0,4.3515,4.3515,4.3515,4.3515,4.3515,4.3515,4.3515,4.3515,4.3515,4.3515,4.3515,4.3515,4.3515,4.3515,4.3515,4.3515,4.3515,4.3515,4.3515,4.3515,4.3515,4.3515,4.3515,4.3515,4.3515,4.3515,4.3515,4.3515,4.3515,4.3515,4.3515,4.3515,4.3515,4.3515,4.3515,4.3515,4.3515,4.3515,4.3515,4.3515,4.3515,4.3515,4.3515,4.3515,4.3515,4.3515,4.3515,4.3515,4.3515,4.3515,4.3515,4.3515,4.3515,4.3515,4.3515,4.3515,4.3515,4.3515,4.3515,4.3515,4.3515,4.3515,4.3515,4.3515,4.3515,4.3515,4.3515,4.3515,4.3515,4.3515,4.3429,4.3376,4.3251,4.3178,4.3086,4.2957,4.2919,4.3028,4.3281,4.4014,4.4217,4.2002,4.3271,4.4718,4.684,4.7756,4.8428,4.9635,4.9786,4.9869,5.0567,5.0712,5.0712,5.0712,5.0423,5.001,4.949,4.8877,4.809,4.6992,4.6118,4.5394,4.4851,4.4198,4.3804,4.3804,4.3617,0.0,0.0,0.0,0.0,0.0,4.3515,4.3515,4.3515,4.3515,4.3515,4.3515,4.3515,4.3515,4.3515,4.3515,4.3515,4.3515,4.3515,4.3515,4.3515,4.3515,4.3515,4.3515,4.3515,4.3515,4.3515,4.3515,4.3515,4.3515,4.3515,4.3515,4.3515,4.3515,4.3515,4.3515,4.3515,4.3515,4.3515,4.3515,4.3515,4.3515,4.3515,4.3515,4.3515,4.3515,4.3515,4.3515,4.3515,4.3515,4.3515,4.3515,4.3515,4.3515,4.3515,4.3515,4.3515,4.3515,4.3515,4.3515,4.3515,4.3515,4.3515,4.3515,4.3515,4.3515,4.3515,4.3515,4.3515,4.3515,4.3515,4.3515,4.3515,4.3515,4.3515,4.3515,4.3445,4.3394,4.3269,4.3196,4.3086,4.2975,4.2975,4.2975,4.2975,4.3633,4.3689,4.4231,4.4306,4.4954,4.9365,4.8836,4.7836,5.0067,5.0577,5.0577,5.0577,5.0519,5.0462,5.0462,4.9817,4.926,4.9183,4.8304,4.7236,4.6151,4.573,4.5142,4.4126,4.3899,4.3804,4.3804,0.0,0.0,0.0,0.0,0.0,0.0,4.3515,4.3515,4.3515,4.3515,4.3515,4.3515,4.3515,4.3515,4.3515,4.3515,4.3515,4.3515,4.3515,4.3515,4.3515,4.3515,4.3515,4.3515,4.3515,4.3515,4.3515,4.3515,4.3515,4.3515,4.3515,4.3515,4.3515,4.3515,4.3515,4.3515,4.3515,4.3515,4.3515,4.3515,4.3515,4.3515,4.3515,4.3515,4.3515,4.3515,4.3515,4.3515,4.3515,4.3515,4.3515,4.3515,4.3515,4.3515,4.3515,4.3515,4.3515,4.3515,4.3515,4.3515,4.3515,4.3515,4.3515,4.3515,4.3515,4.3515,4.3515,4.3515,4.3515,4.3515,4.3515,4.3515,4.3515,4.3515,4.3515,4.3515,4.3479,4.3463,4.3394,4.3269,4.316,4.3104,4.3104,4.3104,4.3104,4.316,4.3269,4.2664,4.3557,4.4737,4.7886,4.9279,4.9837,4.9702,4.9683,4.9683,4.9683,4.9144,4.8663,4.8663,4.8509,4.8163,4.7548,4.7232,4.6596,4.5259,4.5016,4.4726,4.4067,4.3929,4.3851,4.3804,0.0,0.0,0.0,0.0,0.0,4.3515,4.3515,4.3515,4.3515,4.3515,4.3515,4.3515,4.3515,4.3515,0.0,4.3515,4.3515,4.3515,4.3515,4.3515,4.3515,4.3515,4.3515,4.3515,4.3515,4.3515,4.3515,4.3515,4.3515,4.3515,4.3515,4.3515,4.3515,4.3515,4.3515,4.3515,4.3515,4.3515,4.3515,4.3515,4.3515,4.3515,4.3515,4.3515,4.3515,4.3515,4.3515,4.3515,4.3515,4.3515,4.3515,4.3515,4.3515,4.3515,4.3515,4.3515,4.3515,4.3515,4.3515,4.3515,4.3515,4.3515,4.3515,4.3515,4.3515,4.3515,4.3515,4.3515,4.3515,4.3515,4.3515,4.3515,4.3515,4.3515,4.3515,4.3515,4.3464,4.3411,4.3394,4.3269,4.3196,4.3178,4.3141,4.3141,4.3178,4.3196,4.3269,4.2871,4.4039,4.54,4.8068,4.9721,5.0481,4.9606,4.9086,4.8663,4.8279,4.8144,4.8105,4.8105,4.7798,4.7394,4.6962,4.6547,4.5928,4.4948,4.4788,4.4599,4.4064,4.3945,4.3883,0.0,0.0,0.0,0.0,0.0,4.3515,4.3515,4.3515,4.3515,4.3515,4.3515,4.3515,4.3515,4.3515,4.3515,4.3515,4.3515,4.3515,4.3515,4.3515,4.3515,4.3515,4.3515,4.3515,4.3515,4.3515,4.3515,4.3515,4.3515,4.3515,4.3515,4.3515,4.3515,4.3515,4.3515,4.3515,4.3515,4.3515,4.3515,4.3515,4.3515,4.3515,4.3515,4.3515,4.3515,4.3515,4.3515,4.3515,4.3515,4.3515,4.3515,4.3515,4.3515,4.3515,4.3515,4.3515,4.3515,4.3515,4.3515,4.3515,4.3515,4.3515,4.3515,4.3515,4.3515,4.3515,4.3515,4.3515,4.3515,4.3515,4.3515,4.3515,4.3515,4.3515,4.3515,4.3515,4.3515,4.3463,4.3429,4.3394,4.3323,4.3269,4.3214,4.3233,4.3251,4.3305,4.334,4.3375,4.3379,4.4882,4.6576,4.8836,4.9933,5.025,4.9375,4.8509,4.7663,4.6836,4.7221,4.7663,4.7663,4.7124,4.6682,4.6682,4.6067,4.5419,4.4891,4.4788,4.4599,4.4064,4.3945,4.3883,0.0,0.0,0.0,0.0,0.0,4.3515,4.3515,4.3515,4.3515,4.3515,4.3515,4.3515,4.3515,4.3515,4.3515,4.3515,4.3515,4.3515,4.3515,4.3515,4.3515,4.3515,4.3515,4.3515,4.3515,4.3515,4.3515,4.3515,4.3515,4.3515,4.3515,4.3515,4.3515,4.3515,4.3515,4.3515,4.3515,4.3515,4.3515,4.3515,4.3515,4.3515,4.3515,4.3515,4.3515,4.3515,4.3515,4.3515,4.3515,4.3515,4.3515,4.3515,4.3515,4.3515,4.3515,4.3515,4.3515,4.3515,4.3515,4.3515,4.3515,4.3515,4.3515,4.3515,4.3515,4.3515,4.3515,4.3515,4.3515,4.3515,4.3515,4.3515,4.3515,4.3515,4.3515,4.3515,4.3515,4.3515,4.348,4.3429,4.3429,4.3358,4.325,4.334,4.3412,4.3429,4.3463,4.3497,4.2431,4.5276,4.8029,4.9125,4.949,4.9356,4.8471,4.7644,4.6817,4.5951,4.5864,4.5941,4.5941,4.5845,4.5768,4.5768,4.5691,4.5419,4.4891,4.4788,4.4599,4.4064,4.3945,4.3883,0.0,0.0,0.0,0.0,4.3515,4.3515,4.3515,4.3515,4.3515,4.3515,4.3515,4.3515,4.3515,4.3515,4.3515,4.3515,4.3515,4.3515,4.3515,4.3515,4.3515,4.3515,4.3515,4.3515,4.3515,4.3515,4.3515,4.3515,4.3515,4.3515,4.3515,4.3515,4.3515,4.3515,4.3515,4.3515,4.3515,4.3515,4.3515,4.3515,4.3515,4.3515,4.3515,4.3515,4.3515,4.3515,4.3515,4.3515,4.3515,4.3515,4.3515,4.3515,4.3515,4.3515,4.3515,4.3515,4.3515,4.3515,4.3515,4.3515,4.3515,4.3515,4.3515,4.3515,4.3515,4.3515,4.3515,4.3515,4.3515,4.3515,4.3515,4.3515,4.3515,4.3515,4.3515,4.3515,4.3515,4.3515,4.3497,4.3497,4.3497,4.348,4.3463,4.3411,4.3429,4.348,4.3429,4.3446,4.3482,4.5381,4.7124,4.8952,4.9394,4.9163,4.8298,4.7836,4.7201,4.5864,4.5594,4.5594,4.5594,4.5594,4.5594,4.5594,4.5594,4.5476,4.5074,4.4884,4.465,4.4279,4.4033,4.3883,0.0,0.0,0.0,0.0,4.3515,4.3515,4.3515,4.3515,4.3515,4.3515,4.3515,4.3515,4.3515,4.3515,4.3515,4.3515,4.3515,4.3515,4.3515,4.3515,4.3515,4.3515,4.3515,4.3515,4.3515,4.3515,4.3515,4.3515,4.3515,4.3515,4.3515,4.3515,4.3515,4.3515,4.3515,4.3515,4.3515,4.3515,4.3515,4.3515,4.3515,4.3515,4.3515,4.3515,4.3515,4.3515,4.3515,4.3515,4.3515,4.3515,4.3515,4.3515,4.3515,4.3515,4.3515,4.3515,4.3515,4.3515,4.3515,4.3515,4.3515,4.3515,4.3515,4.3515,4.3515,4.3515,4.3515,4.3515,4.3515,4.3515,4.3515,4.3515,4.3515,4.3515,4.3515,4.3515,4.3515,4.3515,4.3515,4.3515,4.3515,4.3515,4.3515,4.3463,4.3463,4.3515,4.3463,4.3463,4.3881,4.4921,4.5883,4.8432,4.9067,4.8894,4.8259,4.7952,4.7375,4.5902,4.5594,4.5594,4.5594,4.5594,4.5594,4.5594,4.5594,4.5504,4.5232,4.4973,4.4701,4.4425,4.4094,4.3851,0.0,0.0,0.0,0.0,4.3515,4.3515,4.3515,4.3515,4.3515,4.3515,4.3515,4.3515,4.3515,4.3515,4.3515,4.3515,4.3515,4.3515,4.3515,4.3515,4.3515,4.3515,4.3515,4.3515,4.3515,4.3515,4.3515,4.3515,4.3515,4.3515,4.3515,4.3515,4.3515,4.3515,4.3515,4.3515,4.3515,4.3515,4.3515,4.3515,4.3515,4.3515,4.3515,4.3515,4.3515,4.3515,4.3515,4.3515,4.3515,4.3515,4.3515,4.3515,4.3515,4.3515,4.3515,4.3515,4.3515,4.3515,4.3515,4.3515,4.3515,4.3515,4.3515,4.3515,4.3515,4.3515,4.3515,4.3515,4.3515,4.3515,4.3515,4.3515,4.3515,4.3515,4.3515,4.3515,4.3515,4.3515,4.3515,4.3515,4.3515,4.3515,4.3515,4.3515,4.3515,4.3515,4.3515,4.3515,4.2296,4.3588,4.497,4.7528,4.8163,4.8163,4.8105,4.7509,4.6701,4.5787,4.5594,4.5594,4.5594,4.5594,4.5594,4.5594,4.5594,4.5504,4.5232,4.4973,4.4701,4.4425,4.4048,0.0,0.0,0.0,0.0,0.0,4.3515,4.3515,4.3515,4.3515,4.3515,4.3515,4.3515,4.3515,4.3515,4.3515,4.3515,4.3515,4.3515,4.3515,4.3515,4.3515,4.3515,4.3515,4.3515,4.3515,4.3515,4.3515,4.3515,4.3515,4.3515,4.3515,4.3515,4.3515,4.3515,4.3515,4.3515,4.3515,4.3515,4.3515,4.3515,4.3515,4.3515,4.3515,4.3515,4.3515,4.3515,4.3515,4.3515,4.3515,4.3515,4.3515,4.3515,4.3515,4.3515,4.3515,4.3515,4.3515,4.3515,4.3515,4.3515,4.3515,4.3515,4.3515,4.3515,4.3515,4.3515,4.3515,4.3515,4.3515,4.3515,4.3515,4.3515,4.3515,4.3515,4.3515,4.3515,4.3515,4.3515,4.3515,4.3515,4.3515,4.3515,4.3515,4.3515,4.3515,4.3515,4.3515,4.3515,4.3515,4.1003,4.2086,4.3156,4.5837,4.6913,4.7336,4.7336,4.7096,4.6644,4.5787,4.5594,4.5594,4.5594,4.5594,4.5594,4.5594,4.5594,4.5568,4.5476,4.5074,4.4763,4.4663,4.4151,0.0,0.0,0.0,0.0,0.0,0.0,4.3515,4.3515,4.3515,4.3515,4.3515,4.3515,4.3515,4.3515,4.3515,4.3515,4.3515,4.3515,4.3515,4.3515,4.3515,4.3515,4.3515,4.3515,4.3515,4.3515,4.3515,4.3515,4.3515,4.3515,4.3515,4.3515,4.3515,4.3515,4.3515,4.3515,4.3515,4.3515,4.3515,4.3515,4.3515,4.3515,4.3515,4.3515,4.3515,4.3515,4.3515,4.3515,4.3515,4.3515,4.3515,4.3515,4.3515,4.3515,4.3515,4.3515,4.3515,4.3515,4.3515,4.3515,4.3515,4.3515,4.3515,4.3515,4.3515,4.3515,4.3515,4.3515,4.3515,4.3515,4.3515,4.3515,4.3515,4.3515,4.3515,4.3515,4.3515,4.3515,4.3515,4.3515,4.3515,4.3515,4.3515,4.3515,4.3515,4.3515,4.3515,4.3515,4.3515,4.0004,4.0965,4.2029,4.4767,4.5908,4.6436,4.6818,4.7096,4.699,4.5845,4.5825,4.5951,4.5652,4.5594,4.5594,4.5594,4.5594,4.5594,4.5594,4.5211,4.4884,4.4776,4.4265,0.0,0.0,0.0,0.0,0.0,0.0,0.0,4.3515,4.3515,4.3515,4.3515,4.3515,4.3515,4.3515,4.3515,4.3515,4.3515,4.3515,4.3515,4.3515,4.3515,4.3515,4.3515,4.3515,4.3515,4.3515,4.3515,4.3515,4.3515,4.3515,4.3515,4.3515,4.3515,4.3515,4.3515,4.3515,4.3515,4.3515,4.3515,4.3515,4.3515,4.3515,4.3515,4.3515,4.3515,4.3515,4.3515,4.3515,4.3515,4.3515,4.3515,4.3515,4.3515,4.3515,4.3515,4.3515,4.3515,4.3515,4.3515,4.3515,4.3515,4.3515,4.3515,4.3515,4.3515,4.3515,4.3515,4.3515,4.3515,4.3515,4.3515,4.3515,4.3515,4.3515,4.3515,4.3515,4.3515,4.3515,4.3515,4.3515,4.3515,4.3515,4.3515,4.3515,4.3515,4.3515,4.3515,4.3515,4.3515,0.0,0.0,0.0,4.4435,4.5137,4.5455,4.6589,4.7462,4.7558,4.5932,4.6278,4.6605,4.5759,4.5586,4.5594,4.5586,4.5586,4.5594,4.5586,4.5352,4.5063,4.4733,4.4388,0.0,0.0,0.0,0.0,0.0,4.3515,4.3515,4.3515,4.3515,4.3515,4.3515,4.3515,4.3515,4.3515,4.3515,4.3515,4.3515,4.3515,4.3515,4.3515,4.3515,4.3515,4.3515,4.3515,4.3515,4.3515,4.3515,4.3515,4.3515,4.3515,4.3515,4.3515,4.3515,4.3479,4.3479,4.3479,4.3462,4.3462,4.3462,4.3462,4.3462,4.3462,4.3462,4.3462,4.3462,4.3462,4.3462,4.3479,4.3479,4.3497,4.3497,4.3515,4.3515,4.3515,4.3515,4.3515,4.3515,4.3515,4.3515,4.3515,4.3515,4.3515,4.3515,4.3515,4.3515,4.3515,4.3515,4.3515,4.3515,4.3515,4.3515,4.3515,4.3515,4.3515,4.3515,4.3515,4.3515,4.3515,4.3515,4.3515,4.3515,4.3515,4.3515,4.3515,4.3515,4.3515,4.3515,4.3515,4.3515,3.8201,0.0,0.0,0.0,0.0,0.0,4.5425,4.5848,4.5867,4.5408,4.5668,4.5839,4.538,4.5476,4.555,4.5342,4.5457,4.5522,4.5332,4.5041,4.4726,4.4438,4.4026,0.0,0.0,0.0,0.0,0.0,4.3515,4.3515,4.3515,4.3515,4.3515,4.3515,4.3515,4.3515,4.3515,4.3515,4.3515,4.3515,4.3515,4.3515,4.3515,4.3515,4.3515,4.3515,4.3515,4.3515,4.3515,4.3515,4.3515,4.3515,4.3515,4.3515,4.3515,4.3515,4.3322,4.3068,4.3068,4.2845,4.2559,4.2559,4.2559,4.2559,4.2559,4.2559,4.2559,4.2559,4.2559,4.2635,4.2976,4.3068,4.3124,4.3427,4.3515,4.3515,4.3515,4.3515,4.3515,4.3515,4.3515,4.3515,4.3515,4.3515,4.3515,4.3515,4.3515,4.3515,4.3515,4.3515,4.3515,4.3515,4.3515,4.3515,4.3515,4.3515,4.3515,4.3515,4.3515,4.3515,4.3515,4.3515,4.3515,4.3515,4.3515,4.3515,4.3515,4.3515,4.3515,4.3515,4.3515,4.3515,3.8252,3.8976,3.9864,4.2121,0.0,0.0,4.4794,4.5041,4.5071,4.5041,4.518,4.5251,4.5063,4.5169,4.5211,4.5063,4.5129,4.518,4.5019,4.48,4.4546,4.4213,4.3931,0.0,0.0,4.3513,4.3515,4.3515,4.3515,4.3515,4.3515,4.3515,4.3515,4.3515,4.3515,4.3515,4.3515,4.3515,4.3515,4.3515,4.3515,4.3515,4.3515,4.3515,4.3515,4.3515,4.3515,4.3515,4.3515,4.3515,4.3515,4.3515,4.3515,4.3392,4.325,4.325,4.2995,4.2614,4.2614,4.2438,4.2198,4.2198,4.2198,4.2198,4.2198,4.2198,4.2198,4.2198,4.2198,4.2318,4.2787,4.2901,4.2995,4.3392,4.3515,4.3515,4.3515,4.3515,4.3515,4.3515,4.3515,4.3515,4.3515,4.3515,4.3515,4.3515,4.3515,4.3515,4.3515,4.3515,4.3515,4.3515,4.3515,4.3515,4.3515,4.3515,4.3515,4.3515,4.3515,4.3515,4.3515,4.3515,4.3515,4.3515,4.3515,4.3515,4.3515,4.3515,4.3515,4.3515,4.3515,4.3515,3.9031,3.9305,3.9988,4.2524,4.3154,0.0,4.4499,4.4795,4.4826,4.4782,4.4838,4.4862,4.4763,4.4719,4.4693,4.4751,4.4688,4.4688,4.477,4.4717,4.4524,4.4131,4.407,0.0,4.3549,4.3515,4.3515,4.3515,4.3515,4.3515,4.3515,4.3515,4.3515,4.3515,4.3515,4.3515,4.3515,4.3515,4.3515,4.3515,4.3515,4.3515,4.3515,4.3515,4.3515,4.3515,4.3515,4.3515,4.3515,4.3515,4.3515,4.3497,4.3444,4.3196,4.2882,4.2844,4.2536,4.2115,4.2115,4.2095,4.2071,4.2071,4.2071,4.2071,4.2071,4.2071,4.2071,4.2071,4.2071,4.2157,4.2692,4.2825,4.2939,4.3392,4.3515,4.3515,4.3515,4.3515,4.3497,4.3444,4.348,4.3515,4.3515,4.3515,4.3515,4.3515,4.3515,4.3515,4.3515,4.3515,4.3515,4.3515,4.3515,4.3515,4.3515,4.3515,4.3515,4.3515,4.3515,4.3515,4.3515,4.3515,4.3515,4.3515,4.3515,4.3515,4.3515,4.3515,4.3515,4.3515,4.3515,4.3515,4.0014,4.0606,4.14,4.259,4.2884,0.0,4.4242,4.4498,4.4479,4.4479,4.465,4.4758,4.4519,4.4134,4.3982,4.4412,4.4411,4.4599,4.5246,4.52,4.4969,4.4672,4.4607,0.0,4.357,4.3515,4.3515,4.3515,4.3515,4.3515,4.3515,4.3515,4.3515,4.3515,4.3515,4.3515,4.3515,4.3515,4.3515,4.3515,4.3515,4.3515,4.3515,4.3515,4.3515,4.3515,4.3515,4.3515,4.3515,4.3515,4.3515,4.348,4.3142,4.2957,4.2844,4.2478,4.2032,4.1626,4.1626,4.1423,4.114,4.114,4.114,4.114,4.114,4.114,4.114,4.114,4.114,4.1346,4.2115,4.2338,4.2537,4.3303,4.3515,4.3515,4.3515,4.3515,4.3392,4.3069,4.3286,4.3515,4.3515,4.3515,4.3515,4.3515,4.3515,4.3515,4.3515,4.3515,4.3515,4.3515,4.3515,4.3515,4.3515,4.3515,4.3515,4.3515,4.3515,4.3515,4.3515,4.3515,4.3515,4.3515,4.3515,4.3515,4.3515,4.3515,4.3515,4.3515,4.3515,4.3515,4.1072,4.1295,4.1638,4.3049,0.0,0.0,0.0,4.3889,4.3721,4.4117,4.3985,4.3872,4.4146,4.3985,4.376,4.3623,4.3845,4.4212,4.4634,4.5254,4.5572,4.5367,4.4965,0.0,4.414,4.3736,4.3515,4.3515,4.3515,4.3515,4.3515,4.3515,4.3515,4.3515,4.3515,4.3515,4.3515,4.3515,4.3515,4.3515,4.3515,4.3515,4.3515,4.3515,4.3515,4.3515,4.3515,4.3515,4.3515,4.3515,4.3375,4.3196,4.2976,4.2614,4.2157,4.1948,4.1578,4.1209,4.1209,4.1065,4.0912,4.0912,4.0912,4.0912,4.0912,4.0912,4.0912,4.0912,4.0912,4.1111,4.1969,4.2032,4.2074,4.2995,4.3014,4.2846,4.2846,4.2846,4.2846,4.2901,4.305,4.3214,4.3214,4.3375,4.3515,4.3515,4.3515,4.3515,4.3515,4.3515,4.3515,4.3515,4.3515,4.3515,4.3515,4.3515,4.3515,4.3515,4.3515,4.3515,4.3515,4.3515,4.3515,4.3515,4.3515,4.3515,4.3515,4.3515,4.3515,4.3515,4.3515,4.3515,4.2027,4.1838,4.1757,0.0,0.0,4.3908,0.0,0.0,0.0,4.3875,4.3485,4.3225,4.3875,0.0,0.0,4.3113,0.0,0.0,0.0,4.5169,0.0,4.5699,4.5094,0.0,4.4488,4.3883,4.3515,4.3515,4.3515,4.3515,4.3515,4.3515,4.3515,4.3515,4.3515,4.3515,4.3515,4.3515,4.3515,4.3515,4.3515,4.3515,4.3515,4.3515,4.3515,4.3515,4.3515,4.3515,4.3515,4.3515,4.3196,4.2768,4.2768,4.2257,4.1494,4.1423,4.1186,4.0912,4.0912,4.0912,4.0912,4.0912,4.0912,4.0912,4.0912,4.0912,4.0912,4.0912,4.0912,4.1065,4.1864,4.1778,4.1713,4.2557,4.2478,4.2198,4.2198,4.2198,4.2297,4.2557,4.2787,4.292,4.2995,4.3286,4.3515,4.3515,4.3515,4.3515,4.3515,4.3515,4.3515,4.3515,4.3515,4.3515,4.3515,4.3515,4.3515,4.3515,4.3515,4.3515,4.3515,4.3515,4.3515,4.3515,4.3515,4.3515,4.3515,4.3515,4.3515,4.3515,4.3515,4.3515,0.0,0.0,0.0,0.0,4.3474,0.0,0.0,0.0,4.3893,4.3986,0.0,0.0,0.0,0.0,0.0,0.0,0.0,0.0,4.4767,4.5121,4.513,4.4959,4.4781,0.0,0.0,4.3551,4.3515,4.3515,4.3515,4.3515,4.3515,4.3515,4.3515,4.3515,4.3515,4.3515,4.3515,4.3515,4.3515,4.3515,4.3515,4.3515,4.3515,4.3515,4.3515,4.3515,4.3515,4.3515,4.3515,4.3515,4.3014,4.2297,4.2297,4.1969,4.1468,4.1094,4.0942,4.0912,4.0912,4.0912,4.0912,4.0912,4.0912,4.0912,4.0912,4.0912,4.0912,4.0912,4.0912,4.0995,4.1468,4.1539,4.1626,4.2175,4.2257,4.2198,4.2198,4.2198,4.2095,4.1735,4.2338,4.3013,4.3375,4.348,4.3515,4.3515,4.3515,4.3515,4.3515,4.3515,4.3515,4.3515,4.3515,4.3515,4.3515,4.3515,4.3515,4.3515,4.3515,4.3515,4.3515,4.3515,4.3515,4.3515,4.3515,4.3515,4.3515,4.3515,4.3515,4.3515,4.3515,4.3515,0.0,0.0,0.0,0.0,0.0,0.0,4.3284,0.0,4.3371,0.0,0.0,0.0,0.0,0.0,0.0,0.0,4.3383,0.0,0.0,0.0,4.4485,0.0,0.0,0.0,0.0,0.0,0.0,0.0,4.3515,4.3515,4.3515,4.3515,4.3515,4.3515,4.3515,4.3515,4.3515,4.3515,4.3515,4.3515,4.3515,4.3515,4.3515,4.3515,4.3515,4.3515,4.3515,4.3515,4.3515,4.3515,4.2995,4.2198,4.2198,4.1774,4.1117,4.0965,4.0912,4.0912,4.0912,4.0912,4.0912,4.0912,4.0912,4.0912,4.0912,4.0912,4.0912,4.0912,4.0912,4.0995,4.1401,4.1328,4.126,4.1692,4.1622,4.144,4.144,4.144,4.1463,4.1494,4.2032,4.2616,4.3069,4.3339,4.3515,4.3515,4.3515,4.3515,4.3515,4.3515,4.348,4.3446,4.3446,4.3411,4.3322,4.3393,4.3446,4.3446,4.348,4.3515,4.3515,4.3515,4.3515,4.3515,4.3515,4.3515,4.3515,4.3515,4.3515,4.3515,4.3515,4.3515,4.1803,0.0,0.0,0.0,0.0,0.0,0.0,0.0,0.0,0.0,0.0,0.0,0.0,0.0,0.0,0.0,0.0,4.3335,0.0,4.3278,0.0,0.0,0.0,0.0,0.0,0.0,0.0,0.0,0.0,4.3606,4.3809,4.3608,4.3606,4.3809,4.3608,4.3515,4.3515,4.3515,4.3515,4.3515,4.3515,4.3515,4.3515,4.3515,4.3515,4.3515,4.3515,4.3515,4.3515,4.3515,4.3069,4.2378,4.2239,4.1731,4.1041,4.0942,4.0912,4.0912,4.0912,4.0912,4.0912,4.0912,4.0912,4.0912,4.0912,4.0912,4.0912,4.0912,4.0912,4.0965,4.126,4.1117,4.0965,4.126,4.1117,4.0912,4.0912,4.0912,4.0989,4.1283,4.1799,4.2318,4.2653,4.3142,4.3515,4.3515,4.3515,4.3515,4.3515,4.3515,4.348,4.3412,4.3394,4.3358,4.3269,4.3323,4.3358,4.3394,4.3463,4.3515,4.3515,4.3515,4.3515,4.3515,4.3515,4.3515,4.3515,4.3515,4.3515,4.3515,4.3515,4.3515,0.0,0.0,0.0,4.2133,0.0,0.0,0.0,0.0,4.2792,0.0,0.0,0.0,0.0,0.0,4.2829,4.2811,0.0,0.0,0.0,0.0,0.0,0.0,0.0,0.0,0.0,0.0,0.0,0.0,0.0,0.0,4.4618,4.392,4.3864,4.4654,4.3901,4.3515,4.3515,4.3515,4.3515,4.3515,4.3515,4.3515,4.3515,4.3515,4.3515,4.3515,4.3515,4.3515,4.3515,4.3515,4.325,4.2844,4.2378,4.1906,4.1445,4.1041,4.0912,4.0912,4.0912,4.0912,4.0912,4.0912,4.0912,4.0912,4.0912,4.0912,4.0912,4.0912,4.0912,4.0894,4.0935,4.0912,4.0894,4.0935,4.0912,4.0912,4.0912,4.0912,4.0894,4.0935,4.16,4.2198,4.2218,4.2921,4.3515,4.3515,4.3515,4.3515,4.3515,4.3515,4.348,4.3412,4.3394,4.3394,4.3394,4.3269,4.3251,4.3394,4.3463,4.3515,4.3515,4.3515,4.3515,4.3515,4.3515,4.3515,4.3515,4.3515,4.3515,4.3515,4.3515,4.3515,0.0,0.0,4.0243,4.0923,0.0,0.0,0.0,0.0,0.0,0.0,0.0,0.0,0.0,0.0,4.281,4.281,4.2704,4.2668,0.0,0.0,0.0,0.0,0.0,4.2465,0.0,0.0,0.0,0.0,4.3993,0.0,0.0,4.4947,4.4966,4.4727,4.4452,4.403,4.3515,4.3515,4.3515,4.3515,4.3515,4.3515,4.3515,4.3515,4.3515,4.3515,4.3515,4.3515,4.3515,4.3515,4.3268,4.2882,4.2731,4.2195,4.1468,4.1041,4.0912,4.0912,4.0912,4.0912,4.0912,4.0912,4.0912,4.0912,4.0912,4.0912,4.0912,4.0912,4.0912,4.0912,4.0912,4.084,4.0769,4.0769,4.0769,4.0769,4.0769,4.084,4.0989,4.1237,4.1796,4.2297,4.2614,4.3142,4.3515,4.3515,4.3515,4.348,4.3446,4.3429,4.3376,4.3215,4.3196,4.316,4.3087,4.316,4.3286,4.3445,4.3497,4.3515,4.3515,4.3515,4.3515,4.3515,4.3515,4.3515,4.3515,4.3515,4.3515,4.3515,4.3515,4.3515,3.9143,3.9284,0.0,3.9937,3.9691,0.0,4.0327,0.0,0.0,0.0,0.0,0.0,0.0,0.0,0.0,4.2302,4.2402,4.2483,0.0,4.2338,0.0,0.0,0.0,4.2355,0.0,4.302,4.3608,4.3901,4.4415,0.0,0.0,0.0,4.5663,4.5149,4.4856,4.4305,4.3515,4.3515,4.3515,4.3515,4.3515,4.3515,4.3515,4.3515,4.3515,4.3515,4.3515,4.3515,4.3515,4.3515,4.3357,4.3087,4.2975,4.2518,4.1927,4.1328,4.1018,4.0918,4.1065,4.1018,4.0912,4.0912,4.0912,4.0912,4.0912,4.0912,4.0912,4.0912,4.0912,4.0888,4.084,4.0769,4.0697,4.0697,4.0697,4.0721,4.0769,4.084,4.1018,4.1423,4.1885,4.2358,4.2825,4.3232,4.3515,4.3515,4.348,4.3464,4.3412,4.3358,4.3287,4.3142,4.3123,4.3067,4.2975,4.316,4.3322,4.3445,4.3463,4.3463,4.3463,4.3463,4.3463,4.3463,4.3497,4.3515,4.3515,4.3515,4.3515,4.3515,4.3515,4.3515]}]]